<?xml version="1.0" encoding="UTF-8" standalone="no" ?>
<gpx xmlns="http://www.topografix.com/GPX/1/1" xmlns:xsi="http://www.w3.org/2001/XMLSchema-instance" xsi:schemaLocation="http://www.topografix.com/GPX/1/1 http://www.topografix.com/GPX/1/1/gpx.xsd" version="1.1" creator="VisuGPX - https://www.visugpx.com">
  <metadata>
    <name>Jour 22 - Le Chemin Sauvage</name>
  </metadata>
  <trk>
    <name><![CDATA[2026-05-23 13:03:33]]></name>
    <trkseg>
      <trkpt lat="43.91206" lon="1.89725">
        <ele>151.54</ele>
        <time>2026-05-23T04:30:07Z</time>
      </trkpt>
      <trkpt lat="43.91208" lon="1.89723">
        <ele>151.54</ele>
        <time>2026-05-23T04:30:18Z</time>
      </trkpt>
      <trkpt lat="43.91212" lon="1.89729">
        <ele>151.54</ele>
        <time>2026-05-23T04:30:30Z</time>
      </trkpt>
      <trkpt lat="43.91209" lon="1.89737">
        <ele>151.54</ele>
        <time>2026-05-23T04:30:35Z</time>
      </trkpt>
      <trkpt lat="43.9121" lon="1.89741">
        <ele>151.54</ele>
        <time>2026-05-23T04:30:38Z</time>
      </trkpt>
      <trkpt lat="43.91212" lon="1.89766">
        <ele>150.58</ele>
        <time>2026-05-23T04:30:54Z</time>
      </trkpt>
      <trkpt lat="43.91214" lon="1.89794">
        <ele>150.58</ele>
        <time>2026-05-23T04:31:09Z</time>
      </trkpt>
      <trkpt lat="43.91216" lon="1.89817">
        <ele>150.58</ele>
        <time>2026-05-23T04:31:23Z</time>
      </trkpt>
      <trkpt lat="43.91214" lon="1.89837">
        <ele>149.62</ele>
        <time>2026-05-23T04:31:35Z</time>
      </trkpt>
      <trkpt lat="43.91188" lon="1.89841">
        <ele>149.14</ele>
        <time>2026-05-23T04:31:52Z</time>
      </trkpt>
      <trkpt lat="43.91168" lon="1.89847">
        <ele>148.66</ele>
        <time>2026-05-23T04:32:07Z</time>
      </trkpt>
      <trkpt lat="43.91146" lon="1.89852">
        <ele>148.66</ele>
        <time>2026-05-23T04:32:23Z</time>
      </trkpt>
      <trkpt lat="43.91126" lon="1.89859">
        <ele>148.66</ele>
        <time>2026-05-23T04:32:38Z</time>
      </trkpt>
      <trkpt lat="43.91106" lon="1.89866">
        <ele>148.66</ele>
        <time>2026-05-23T04:32:53Z</time>
      </trkpt>
      <trkpt lat="43.91084" lon="1.89872">
        <ele>148.18</ele>
        <time>2026-05-23T04:33:10Z</time>
      </trkpt>
      <trkpt lat="43.91062" lon="1.89878">
        <ele>148.66</ele>
        <time>2026-05-23T04:33:27Z</time>
      </trkpt>
      <trkpt lat="43.91038" lon="1.89882">
        <ele>148.18</ele>
        <time>2026-05-23T04:33:44Z</time>
      </trkpt>
      <trkpt lat="43.91015" lon="1.89893">
        <ele>148.18</ele>
        <time>2026-05-23T04:34:01Z</time>
      </trkpt>
      <trkpt lat="43.90996" lon="1.89899">
        <ele>148.18</ele>
        <time>2026-05-23T04:34:16Z</time>
      </trkpt>
      <trkpt lat="43.90977" lon="1.89907">
        <ele>148.18</ele>
        <time>2026-05-23T04:34:31Z</time>
      </trkpt>
      <trkpt lat="43.9095" lon="1.89912">
        <ele>148.18</ele>
        <time>2026-05-23T04:34:49Z</time>
      </trkpt>
      <trkpt lat="43.90925" lon="1.89919">
        <ele>147.7</ele>
        <time>2026-05-23T04:35:08Z</time>
      </trkpt>
      <trkpt lat="43.90907" lon="1.89919">
        <ele>147.22</ele>
        <time>2026-05-23T04:35:26Z</time>
      </trkpt>
      <trkpt lat="43.9088" lon="1.89911">
        <ele>147.22</ele>
        <time>2026-05-23T04:35:46Z</time>
      </trkpt>
      <trkpt lat="43.90858" lon="1.89897">
        <ele>146.74</ele>
        <time>2026-05-23T04:36:04Z</time>
      </trkpt>
      <trkpt lat="43.90839" lon="1.89872">
        <ele>146.74</ele>
        <time>2026-05-23T04:36:20Z</time>
      </trkpt>
      <trkpt lat="43.90833" lon="1.89851">
        <ele>145.78</ele>
        <time>2026-05-23T04:36:34Z</time>
      </trkpt>
      <trkpt lat="43.90819" lon="1.89831">
        <ele>146.74</ele>
        <time>2026-05-23T04:36:49Z</time>
      </trkpt>
      <trkpt lat="43.90813" lon="1.89831">
        <ele>146.74</ele>
        <time>2026-05-23T04:36:53Z</time>
      </trkpt>
      <trkpt lat="43.90811" lon="1.89832">
        <ele>145.3</ele>
        <time>2026-05-23T04:36:55Z</time>
      </trkpt>
      <trkpt lat="43.90789" lon="1.89847">
        <ele>145.3</ele>
        <time>2026-05-23T04:37:13Z</time>
      </trkpt>
      <trkpt lat="43.90784" lon="1.89842">
        <ele>145.3</ele>
        <time>2026-05-23T04:37:19Z</time>
      </trkpt>
      <trkpt lat="43.90782" lon="1.89833">
        <ele>145.3</ele>
        <time>2026-05-23T04:37:24Z</time>
      </trkpt>
      <trkpt lat="43.90773" lon="1.89807">
        <ele>145.3</ele>
        <time>2026-05-23T04:37:40Z</time>
      </trkpt>
      <trkpt lat="43.90758" lon="1.89779">
        <ele>146.26</ele>
        <time>2026-05-23T04:37:56Z</time>
      </trkpt>
      <trkpt lat="43.90753" lon="1.89773">
        <ele>146.26</ele>
        <time>2026-05-23T04:38:03Z</time>
      </trkpt>
      <trkpt lat="43.90735" lon="1.89749">
        <ele>146.26</ele>
        <time>2026-05-23T04:38:19Z</time>
      </trkpt>
      <trkpt lat="43.90718" lon="1.89731">
        <ele>146.26</ele>
        <time>2026-05-23T04:38:36Z</time>
      </trkpt>
      <trkpt lat="43.90717" lon="1.89731">
        <ele>146.26</ele>
        <time>2026-05-23T04:38:37Z</time>
      </trkpt>
      <trkpt lat="43.90702" lon="1.8972">
        <ele>146.26</ele>
        <time>2026-05-23T04:38:51Z</time>
      </trkpt>
      <trkpt lat="43.90691" lon="1.8971">
        <ele>146.74</ele>
        <time>2026-05-23T04:39:00Z</time>
      </trkpt>
      <trkpt lat="43.90672" lon="1.89696">
        <ele>146.74</ele>
        <time>2026-05-23T04:39:17Z</time>
      </trkpt>
      <trkpt lat="43.90659" lon="1.89679">
        <ele>147.22</ele>
        <time>2026-05-23T04:39:31Z</time>
      </trkpt>
      <trkpt lat="43.90644" lon="1.89653">
        <ele>147.22</ele>
        <time>2026-05-23T04:39:48Z</time>
      </trkpt>
      <trkpt lat="43.90634" lon="1.89637">
        <ele>147.22</ele>
        <time>2026-05-23T04:40:01Z</time>
      </trkpt>
      <trkpt lat="43.90616" lon="1.89611">
        <ele>147.7</ele>
        <time>2026-05-23T04:40:18Z</time>
      </trkpt>
      <trkpt lat="43.9061" lon="1.89608">
        <ele>147.7</ele>
        <time>2026-05-23T04:40:25Z</time>
      </trkpt>
      <trkpt lat="43.90589" lon="1.896">
        <ele>147.7</ele>
        <time>2026-05-23T04:40:41Z</time>
      </trkpt>
      <trkpt lat="43.90582" lon="1.89599">
        <ele>147.7</ele>
        <time>2026-05-23T04:40:49Z</time>
      </trkpt>
      <trkpt lat="43.90572" lon="1.89596">
        <ele>147.7</ele>
        <time>2026-05-23T04:40:56Z</time>
      </trkpt>
      <trkpt lat="43.90563" lon="1.89592">
        <ele>146.74</ele>
        <time>2026-05-23T04:41:03Z</time>
      </trkpt>
      <trkpt lat="43.9054" lon="1.89582">
        <ele>146.26</ele>
        <time>2026-05-23T04:41:20Z</time>
      </trkpt>
      <trkpt lat="43.90533" lon="1.89581">
        <ele>145.78</ele>
        <time>2026-05-23T04:41:40Z</time>
      </trkpt>
      <trkpt lat="43.9052" lon="1.89578">
        <ele>145.78</ele>
        <time>2026-05-23T04:41:54Z</time>
      </trkpt>
      <trkpt lat="43.90516" lon="1.89578">
        <ele>145.78</ele>
        <time>2026-05-23T04:41:57Z</time>
      </trkpt>
      <trkpt lat="43.90489" lon="1.89581">
        <ele>144.82</ele>
        <time>2026-05-23T04:42:15Z</time>
      </trkpt>
      <trkpt lat="43.90478" lon="1.89583">
        <ele>144.82</ele>
        <time>2026-05-23T04:42:28Z</time>
      </trkpt>
      <trkpt lat="43.90459" lon="1.89585">
        <ele>144.82</ele>
        <time>2026-05-23T04:42:45Z</time>
      </trkpt>
      <trkpt lat="43.9044" lon="1.89583">
        <ele>144.82</ele>
        <time>2026-05-23T04:42:57Z</time>
      </trkpt>
      <trkpt lat="43.90424" lon="1.8958">
        <ele>144.82</ele>
        <time>2026-05-23T04:43:11Z</time>
      </trkpt>
      <trkpt lat="43.90408" lon="1.89576">
        <ele>144.82</ele>
        <time>2026-05-23T04:43:24Z</time>
      </trkpt>
      <trkpt lat="43.90393" lon="1.89575">
        <ele>144.82</ele>
        <time>2026-05-23T04:43:38Z</time>
      </trkpt>
      <trkpt lat="43.90364" lon="1.89563">
        <ele>144.82</ele>
        <time>2026-05-23T04:43:53Z</time>
      </trkpt>
      <trkpt lat="43.90362" lon="1.89564">
        <ele>144.82</ele>
        <time>2026-05-23T04:43:54Z</time>
      </trkpt>
      <trkpt lat="43.9035" lon="1.89574">
        <ele>144.82</ele>
        <time>2026-05-23T04:44:06Z</time>
      </trkpt>
      <trkpt lat="43.90329" lon="1.89583">
        <ele>144.82</ele>
        <time>2026-05-23T04:44:24Z</time>
      </trkpt>
      <trkpt lat="43.90312" lon="1.89579">
        <ele>144.82</ele>
        <time>2026-05-23T04:44:38Z</time>
      </trkpt>
      <trkpt lat="43.90311" lon="1.89577">
        <ele>144.82</ele>
        <time>2026-05-23T04:44:39Z</time>
      </trkpt>
      <trkpt lat="43.90294" lon="1.89571">
        <ele>144.82</ele>
        <time>2026-05-23T04:44:52Z</time>
      </trkpt>
      <trkpt lat="43.90289" lon="1.89574">
        <ele>144.82</ele>
        <time>2026-05-23T04:44:56Z</time>
      </trkpt>
      <trkpt lat="43.90279" lon="1.89583">
        <ele>145.78</ele>
        <time>2026-05-23T04:45:07Z</time>
      </trkpt>
      <trkpt lat="43.90262" lon="1.89598">
        <ele>145.78</ele>
        <time>2026-05-23T04:45:21Z</time>
      </trkpt>
      <trkpt lat="43.90247" lon="1.89609">
        <ele>146.26</ele>
        <time>2026-05-23T04:45:35Z</time>
      </trkpt>
      <trkpt lat="43.90231" lon="1.89618">
        <ele>146.26</ele>
        <time>2026-05-23T04:45:47Z</time>
      </trkpt>
      <trkpt lat="43.90213" lon="1.89633">
        <ele>146.26</ele>
        <time>2026-05-23T04:46:03Z</time>
      </trkpt>
      <trkpt lat="43.90214" lon="1.89639">
        <ele>146.26</ele>
        <time>2026-05-23T04:46:08Z</time>
      </trkpt>
      <trkpt lat="43.90213" lon="1.89642">
        <ele>146.26</ele>
        <time>2026-05-23T04:46:11Z</time>
      </trkpt>
      <trkpt lat="43.90211" lon="1.89643">
        <ele>146.26</ele>
        <time>2026-05-23T04:46:12Z</time>
      </trkpt>
      <trkpt lat="43.90209" lon="1.89644">
        <ele>146.26</ele>
        <time>2026-05-23T04:46:13Z</time>
      </trkpt>
      <trkpt lat="43.90193" lon="1.89649">
        <ele>146.26</ele>
        <time>2026-05-23T04:46:23Z</time>
      </trkpt>
      <trkpt lat="43.90188" lon="1.89649">
        <ele>147.22</ele>
        <time>2026-05-23T04:46:42Z</time>
      </trkpt>
      <trkpt lat="43.90169" lon="1.89671">
        <ele>147.22</ele>
        <time>2026-05-23T04:46:51Z</time>
      </trkpt>
      <trkpt lat="43.90161" lon="1.89666">
        <ele>147.22</ele>
        <time>2026-05-23T04:46:55Z</time>
      </trkpt>
      <trkpt lat="43.9016" lon="1.89667">
        <ele>147.22</ele>
        <time>2026-05-23T04:46:56Z</time>
      </trkpt>
      <trkpt lat="43.90155" lon="1.89668">
        <ele>147.22</ele>
        <time>2026-05-23T04:47:07Z</time>
      </trkpt>
      <trkpt lat="43.90148" lon="1.89672">
        <ele>147.22</ele>
        <time>2026-05-23T04:47:16Z</time>
      </trkpt>
      <trkpt lat="43.90145" lon="1.89675">
        <ele>147.22</ele>
        <time>2026-05-23T04:47:22Z</time>
      </trkpt>
      <trkpt lat="43.90146" lon="1.89679">
        <ele>147.22</ele>
        <time>2026-05-23T04:47:26Z</time>
      </trkpt>
      <trkpt lat="43.90113" lon="1.89677">
        <ele>147.22</ele>
        <time>2026-05-23T04:47:38Z</time>
      </trkpt>
      <trkpt lat="43.90095" lon="1.89697">
        <ele>147.22</ele>
        <time>2026-05-23T04:47:54Z</time>
      </trkpt>
      <trkpt lat="43.9009" lon="1.89706">
        <ele>147.7</ele>
        <time>2026-05-23T04:48:07Z</time>
      </trkpt>
      <trkpt lat="43.90086" lon="1.89709">
        <ele>146.74</ele>
        <time>2026-05-23T04:48:24Z</time>
      </trkpt>
      <trkpt lat="43.90085" lon="1.89715">
        <ele>146.74</ele>
        <time>2026-05-23T04:48:36Z</time>
      </trkpt>
      <trkpt lat="43.9009" lon="1.89714">
        <ele>146.74</ele>
        <time>2026-05-23T04:48:53Z</time>
      </trkpt>
      <trkpt lat="43.9009" lon="1.89709">
        <ele>147.22</ele>
        <time>2026-05-23T04:49:23Z</time>
      </trkpt>
      <trkpt lat="43.90095" lon="1.89712">
        <ele>147.7</ele>
        <time>2026-05-23T04:49:43Z</time>
      </trkpt>
      <trkpt lat="43.90096" lon="1.89719">
        <ele>147.7</ele>
        <time>2026-05-23T04:50:05Z</time>
      </trkpt>
      <trkpt lat="43.90094" lon="1.89717">
        <ele>148.18</ele>
        <time>2026-05-23T04:50:20Z</time>
      </trkpt>
      <trkpt lat="43.90087" lon="1.89716">
        <ele>148.18</ele>
        <time>2026-05-23T04:50:34Z</time>
      </trkpt>
      <trkpt lat="43.90073" lon="1.89711">
        <ele>148.66</ele>
        <time>2026-05-23T04:50:50Z</time>
      </trkpt>
      <trkpt lat="43.9006" lon="1.89702">
        <ele>148.66</ele>
        <time>2026-05-23T04:50:58Z</time>
      </trkpt>
      <trkpt lat="43.90036" lon="1.8971">
        <ele>150.1</ele>
        <time>2026-05-23T04:51:12Z</time>
      </trkpt>
      <trkpt lat="43.90027" lon="1.89732">
        <ele>150.1</ele>
        <time>2026-05-23T04:51:30Z</time>
      </trkpt>
      <trkpt lat="43.9002" lon="1.89756">
        <ele>150.1</ele>
        <time>2026-05-23T04:51:45Z</time>
      </trkpt>
      <trkpt lat="43.9001" lon="1.89771">
        <ele>149.14</ele>
        <time>2026-05-23T04:52:00Z</time>
      </trkpt>
      <trkpt lat="43.90007" lon="1.89766">
        <ele>149.14</ele>
        <time>2026-05-23T04:52:04Z</time>
      </trkpt>
      <trkpt lat="43.89989" lon="1.89752">
        <ele>150.1</ele>
        <time>2026-05-23T04:52:22Z</time>
      </trkpt>
      <trkpt lat="43.89975" lon="1.89755">
        <ele>148.18</ele>
        <time>2026-05-23T04:52:42Z</time>
      </trkpt>
      <trkpt lat="43.89948" lon="1.89748">
        <ele>146.26</ele>
        <time>2026-05-23T04:52:58Z</time>
      </trkpt>
      <trkpt lat="43.89909" lon="1.89722">
        <ele>143.85</ele>
        <time>2026-05-23T04:53:18Z</time>
      </trkpt>
      <trkpt lat="43.89897" lon="1.89716">
        <ele>142.41</ele>
        <time>2026-05-23T04:53:30Z</time>
      </trkpt>
      <trkpt lat="43.89896" lon="1.89715">
        <ele>142.41</ele>
        <time>2026-05-23T04:53:31Z</time>
      </trkpt>
      <trkpt lat="43.89868" lon="1.89701">
        <ele>141.45</ele>
        <time>2026-05-23T04:53:50Z</time>
      </trkpt>
      <trkpt lat="43.89864" lon="1.89689">
        <ele>140.97</ele>
        <time>2026-05-23T04:53:57Z</time>
      </trkpt>
      <trkpt lat="43.89867" lon="1.89664">
        <ele>141.45</ele>
        <time>2026-05-23T04:54:11Z</time>
      </trkpt>
      <trkpt lat="43.89863" lon="1.89653">
        <ele>140.97</ele>
        <time>2026-05-23T04:54:19Z</time>
      </trkpt>
      <trkpt lat="43.89866" lon="1.89649">
        <ele>140.97</ele>
        <time>2026-05-23T04:54:33Z</time>
      </trkpt>
      <trkpt lat="43.89868" lon="1.89653">
        <ele>140.97</ele>
        <time>2026-05-23T04:54:38Z</time>
      </trkpt>
      <trkpt lat="43.89871" lon="1.89656">
        <ele>140.97</ele>
        <time>2026-05-23T04:54:46Z</time>
      </trkpt>
      <trkpt lat="43.89874" lon="1.89648">
        <ele>140.49</ele>
        <time>2026-05-23T04:54:52Z</time>
      </trkpt>
      <trkpt lat="43.89868" lon="1.89645">
        <ele>140.49</ele>
        <time>2026-05-23T04:54:57Z</time>
      </trkpt>
      <trkpt lat="43.89862" lon="1.89636">
        <ele>140.49</ele>
        <time>2026-05-23T04:55:02Z</time>
      </trkpt>
      <trkpt lat="43.89831" lon="1.89633">
        <ele>141.93</ele>
        <time>2026-05-23T04:55:19Z</time>
      </trkpt>
      <trkpt lat="43.89824" lon="1.89635">
        <ele>140.49</ele>
        <time>2026-05-23T04:55:23Z</time>
      </trkpt>
      <trkpt lat="43.89819" lon="1.89638">
        <ele>140.49</ele>
        <time>2026-05-23T04:55:26Z</time>
      </trkpt>
      <trkpt lat="43.89801" lon="1.89639">
        <ele>139.53</ele>
        <time>2026-05-23T04:55:44Z</time>
      </trkpt>
      <trkpt lat="43.89812" lon="1.89637">
        <ele>139.53</ele>
        <time>2026-05-23T04:55:53Z</time>
      </trkpt>
      <trkpt lat="43.89833" lon="1.89632">
        <ele>141.45</ele>
        <time>2026-05-23T04:56:11Z</time>
      </trkpt>
      <trkpt lat="43.89829" lon="1.89616">
        <ele>141.45</ele>
        <time>2026-05-23T04:56:23Z</time>
      </trkpt>
      <trkpt lat="43.89818" lon="1.89597">
        <ele>139.53</ele>
        <time>2026-05-23T04:56:35Z</time>
      </trkpt>
      <trkpt lat="43.89809" lon="1.89587">
        <ele>139.05</ele>
        <time>2026-05-23T04:56:48Z</time>
      </trkpt>
      <trkpt lat="43.89806" lon="1.89587">
        <ele>138.57</ele>
        <time>2026-05-23T04:56:51Z</time>
      </trkpt>
      <trkpt lat="43.89793" lon="1.89569">
        <ele>136.64</ele>
        <time>2026-05-23T04:57:07Z</time>
      </trkpt>
      <trkpt lat="43.89783" lon="1.89559">
        <ele>136.64</ele>
        <time>2026-05-23T04:57:22Z</time>
      </trkpt>
      <trkpt lat="43.8978" lon="1.89554">
        <ele>134.72</ele>
        <time>2026-05-23T04:57:44Z</time>
      </trkpt>
      <trkpt lat="43.89781" lon="1.8955">
        <ele>133.76</ele>
        <time>2026-05-23T04:58:04Z</time>
      </trkpt>
      <trkpt lat="43.89776" lon="1.89528">
        <ele>130.4</ele>
        <time>2026-05-23T04:58:18Z</time>
      </trkpt>
      <trkpt lat="43.89774" lon="1.89517">
        <ele>129.43</ele>
        <time>2026-05-23T04:58:24Z</time>
      </trkpt>
      <trkpt lat="43.89781" lon="1.89504">
        <ele>127.51</ele>
        <time>2026-05-23T04:58:33Z</time>
      </trkpt>
      <trkpt lat="43.89795" lon="1.89493">
        <ele>126.07</ele>
        <time>2026-05-23T04:58:45Z</time>
      </trkpt>
      <trkpt lat="43.89816" lon="1.89486">
        <ele>125.59</ele>
        <time>2026-05-23T04:59:00Z</time>
      </trkpt>
      <trkpt lat="43.8983" lon="1.89478">
        <ele>125.11</ele>
        <time>2026-05-23T04:59:12Z</time>
      </trkpt>
      <trkpt lat="43.8983" lon="1.89471">
        <ele>125.11</ele>
        <time>2026-05-23T04:59:16Z</time>
      </trkpt>
      <trkpt lat="43.8983" lon="1.89458">
        <ele>124.63</ele>
        <time>2026-05-23T04:59:24Z</time>
      </trkpt>
      <trkpt lat="43.89835" lon="1.89447">
        <ele>123.19</ele>
        <time>2026-05-23T04:59:40Z</time>
      </trkpt>
      <trkpt lat="43.89829" lon="1.89437">
        <ele>123.19</ele>
        <time>2026-05-23T04:59:55Z</time>
      </trkpt>
      <trkpt lat="43.89835" lon="1.89424">
        <ele>123.19</ele>
        <time>2026-05-23T05:00:02Z</time>
      </trkpt>
      <trkpt lat="43.89841" lon="1.894">
        <ele>123.19</ele>
        <time>2026-05-23T05:00:17Z</time>
      </trkpt>
      <trkpt lat="43.89843" lon="1.89391">
        <ele>123.19</ele>
        <time>2026-05-23T05:00:23Z</time>
      </trkpt>
      <trkpt lat="43.89855" lon="1.89367">
        <ele>123.19</ele>
        <time>2026-05-23T05:00:38Z</time>
      </trkpt>
      <trkpt lat="43.89861" lon="1.89343">
        <ele>123.19</ele>
        <time>2026-05-23T05:00:52Z</time>
      </trkpt>
      <trkpt lat="43.89864" lon="1.89329">
        <ele>123.19</ele>
        <time>2026-05-23T05:01:00Z</time>
      </trkpt>
      <trkpt lat="43.8987" lon="1.89299">
        <ele>123.19</ele>
        <time>2026-05-23T05:01:16Z</time>
      </trkpt>
      <trkpt lat="43.89876" lon="1.89273">
        <ele>123.19</ele>
        <time>2026-05-23T05:01:31Z</time>
      </trkpt>
      <trkpt lat="43.89883" lon="1.89257">
        <ele>122.71</ele>
        <time>2026-05-23T05:01:43Z</time>
      </trkpt>
      <trkpt lat="43.89889" lon="1.89251">
        <ele>124.15</ele>
        <time>2026-05-23T05:01:49Z</time>
      </trkpt>
      <trkpt lat="43.89893" lon="1.89245">
        <ele>124.63</ele>
        <time>2026-05-23T05:01:56Z</time>
      </trkpt>
      <trkpt lat="43.89895" lon="1.89236">
        <ele>125.59</ele>
        <time>2026-05-23T05:02:11Z</time>
      </trkpt>
      <trkpt lat="43.89892" lon="1.89236">
        <ele>125.59</ele>
        <time>2026-05-23T05:02:18Z</time>
      </trkpt>
      <trkpt lat="43.89884" lon="1.89243">
        <ele>124.63</ele>
        <time>2026-05-23T05:02:26Z</time>
      </trkpt>
      <trkpt lat="43.89878" lon="1.89232">
        <ele>124.15</ele>
        <time>2026-05-23T05:02:39Z</time>
      </trkpt>
      <trkpt lat="43.89881" lon="1.89225">
        <ele>124.15</ele>
        <time>2026-05-23T05:02:45Z</time>
      </trkpt>
      <trkpt lat="43.8988" lon="1.89216">
        <ele>125.59</ele>
        <time>2026-05-23T05:02:57Z</time>
      </trkpt>
      <trkpt lat="43.89876" lon="1.89192">
        <ele>127.99</ele>
        <time>2026-05-23T05:03:11Z</time>
      </trkpt>
      <trkpt lat="43.89875" lon="1.89187">
        <ele>127.99</ele>
        <time>2026-05-23T05:03:17Z</time>
      </trkpt>
      <trkpt lat="43.89872" lon="1.89175">
        <ele>128.95</ele>
        <time>2026-05-23T05:03:25Z</time>
      </trkpt>
      <trkpt lat="43.89872" lon="1.89165">
        <ele>129.43</ele>
        <time>2026-05-23T05:03:32Z</time>
      </trkpt>
      <trkpt lat="43.89871" lon="1.89162">
        <ele>129.43</ele>
        <time>2026-05-23T05:03:34Z</time>
      </trkpt>
      <trkpt lat="43.8987" lon="1.89152">
        <ele>129.92</ele>
        <time>2026-05-23T05:03:40Z</time>
      </trkpt>
      <trkpt lat="43.89865" lon="1.8913">
        <ele>132.32</ele>
        <time>2026-05-23T05:03:57Z</time>
      </trkpt>
      <trkpt lat="43.89859" lon="1.89111">
        <ele>134.24</ele>
        <time>2026-05-23T05:04:13Z</time>
      </trkpt>
      <trkpt lat="43.89851" lon="1.89102">
        <ele>134.72</ele>
        <time>2026-05-23T05:04:36Z</time>
      </trkpt>
      <trkpt lat="43.89848" lon="1.89097">
        <ele>134.72</ele>
        <time>2026-05-23T05:05:20Z</time>
      </trkpt>
      <trkpt lat="43.89843" lon="1.89079">
        <ele>137.13</ele>
        <time>2026-05-23T05:05:36Z</time>
      </trkpt>
      <trkpt lat="43.89837" lon="1.89078">
        <ele>136.64</ele>
        <time>2026-05-23T05:05:55Z</time>
      </trkpt>
      <trkpt lat="43.89835" lon="1.89071">
        <ele>137.61</ele>
        <time>2026-05-23T05:06:05Z</time>
      </trkpt>
      <trkpt lat="43.89829" lon="1.89053">
        <ele>139.05</ele>
        <time>2026-05-23T05:06:21Z</time>
      </trkpt>
      <trkpt lat="43.89829" lon="1.89051">
        <ele>139.05</ele>
        <time>2026-05-23T05:06:22Z</time>
      </trkpt>
      <trkpt lat="43.89827" lon="1.89032">
        <ele>141.93</ele>
        <time>2026-05-23T05:06:38Z</time>
      </trkpt>
      <trkpt lat="43.89826" lon="1.89023">
        <ele>142.89</ele>
        <time>2026-05-23T05:06:45Z</time>
      </trkpt>
      <trkpt lat="43.89822" lon="1.89007">
        <ele>144.82</ele>
        <time>2026-05-23T05:06:58Z</time>
      </trkpt>
      <trkpt lat="43.89821" lon="1.88999">
        <ele>145.3</ele>
        <time>2026-05-23T05:07:05Z</time>
      </trkpt>
      <trkpt lat="43.89814" lon="1.88976">
        <ele>144.82</ele>
        <time>2026-05-23T05:07:18Z</time>
      </trkpt>
      <trkpt lat="43.89811" lon="1.88959">
        <ele>145.3</ele>
        <time>2026-05-23T05:07:30Z</time>
      </trkpt>
      <trkpt lat="43.89808" lon="1.88942">
        <ele>146.26</ele>
        <time>2026-05-23T05:07:40Z</time>
      </trkpt>
      <trkpt lat="43.89804" lon="1.88914">
        <ele>146.74</ele>
        <time>2026-05-23T05:07:55Z</time>
      </trkpt>
      <trkpt lat="43.898" lon="1.88887">
        <ele>146.74</ele>
        <time>2026-05-23T05:08:10Z</time>
      </trkpt>
      <trkpt lat="43.89796" lon="1.88861">
        <ele>146.74</ele>
        <time>2026-05-23T05:08:24Z</time>
      </trkpt>
      <trkpt lat="43.89795" lon="1.88836">
        <ele>146.74</ele>
        <time>2026-05-23T05:08:40Z</time>
      </trkpt>
      <trkpt lat="43.89796" lon="1.88828">
        <ele>146.74</ele>
        <time>2026-05-23T05:08:44Z</time>
      </trkpt>
      <trkpt lat="43.89794" lon="1.88798">
        <ele>146.74</ele>
        <time>2026-05-23T05:09:01Z</time>
      </trkpt>
      <trkpt lat="43.8979" lon="1.88771">
        <ele>146.74</ele>
        <time>2026-05-23T05:09:15Z</time>
      </trkpt>
      <trkpt lat="43.89789" lon="1.88761">
        <ele>146.26</ele>
        <time>2026-05-23T05:09:21Z</time>
      </trkpt>
      <trkpt lat="43.89787" lon="1.88735">
        <ele>146.26</ele>
        <time>2026-05-23T05:09:35Z</time>
      </trkpt>
      <trkpt lat="43.89785" lon="1.88709">
        <ele>146.26</ele>
        <time>2026-05-23T05:09:49Z</time>
      </trkpt>
      <trkpt lat="43.8978" lon="1.88686">
        <ele>146.26</ele>
        <time>2026-05-23T05:10:03Z</time>
      </trkpt>
      <trkpt lat="43.89778" lon="1.88658">
        <ele>146.26</ele>
        <time>2026-05-23T05:10:18Z</time>
      </trkpt>
      <trkpt lat="43.89775" lon="1.88633">
        <ele>146.26</ele>
        <time>2026-05-23T05:10:32Z</time>
      </trkpt>
      <trkpt lat="43.89773" lon="1.88623">
        <ele>146.26</ele>
        <time>2026-05-23T05:10:39Z</time>
      </trkpt>
      <trkpt lat="43.89774" lon="1.8861">
        <ele>146.26</ele>
        <time>2026-05-23T05:10:47Z</time>
      </trkpt>
      <trkpt lat="43.89775" lon="1.88603">
        <ele>146.26</ele>
        <time>2026-05-23T05:10:51Z</time>
      </trkpt>
      <trkpt lat="43.89774" lon="1.88597">
        <ele>146.26</ele>
        <time>2026-05-23T05:10:54Z</time>
      </trkpt>
      <trkpt lat="43.89766" lon="1.88569">
        <ele>146.26</ele>
        <time>2026-05-23T05:11:09Z</time>
      </trkpt>
      <trkpt lat="43.89763" lon="1.88543">
        <ele>146.74</ele>
        <time>2026-05-23T05:11:25Z</time>
      </trkpt>
      <trkpt lat="43.89755" lon="1.88521">
        <ele>147.22</ele>
        <time>2026-05-23T05:11:40Z</time>
      </trkpt>
      <trkpt lat="43.89755" lon="1.88511">
        <ele>147.22</ele>
        <time>2026-05-23T05:11:49Z</time>
      </trkpt>
      <trkpt lat="43.89763" lon="1.88493">
        <ele>147.22</ele>
        <time>2026-05-23T05:12:01Z</time>
      </trkpt>
      <trkpt lat="43.89761" lon="1.88484">
        <ele>147.22</ele>
        <time>2026-05-23T05:12:06Z</time>
      </trkpt>
      <trkpt lat="43.89757" lon="1.88474">
        <ele>147.22</ele>
        <time>2026-05-23T05:12:13Z</time>
      </trkpt>
      <trkpt lat="43.89766" lon="1.88447">
        <ele>145.78</ele>
        <time>2026-05-23T05:12:28Z</time>
      </trkpt>
      <trkpt lat="43.89773" lon="1.88432">
        <ele>145.78</ele>
        <time>2026-05-23T05:12:36Z</time>
      </trkpt>
      <trkpt lat="43.89778" lon="1.88404">
        <ele>145.3</ele>
        <time>2026-05-23T05:12:53Z</time>
      </trkpt>
      <trkpt lat="43.89778" lon="1.8838">
        <ele>145.3</ele>
        <time>2026-05-23T05:13:05Z</time>
      </trkpt>
      <trkpt lat="43.89786" lon="1.88353">
        <ele>145.3</ele>
        <time>2026-05-23T05:13:22Z</time>
      </trkpt>
      <trkpt lat="43.89785" lon="1.88326">
        <ele>145.3</ele>
        <time>2026-05-23T05:13:37Z</time>
      </trkpt>
      <trkpt lat="43.89783" lon="1.88297">
        <ele>145.3</ele>
        <time>2026-05-23T05:13:53Z</time>
      </trkpt>
      <trkpt lat="43.89783" lon="1.88266">
        <ele>145.3</ele>
        <time>2026-05-23T05:14:09Z</time>
      </trkpt>
      <trkpt lat="43.89786" lon="1.88239">
        <ele>145.78</ele>
        <time>2026-05-23T05:14:25Z</time>
      </trkpt>
      <trkpt lat="43.89789" lon="1.88211">
        <ele>145.78</ele>
        <time>2026-05-23T05:14:40Z</time>
      </trkpt>
      <trkpt lat="43.89793" lon="1.8819">
        <ele>145.78</ele>
        <time>2026-05-23T05:14:53Z</time>
      </trkpt>
      <trkpt lat="43.89798" lon="1.88178">
        <ele>145.78</ele>
        <time>2026-05-23T05:15:02Z</time>
      </trkpt>
      <trkpt lat="43.89783" lon="1.88141">
        <ele>146.74</ele>
        <time>2026-05-23T05:15:22Z</time>
      </trkpt>
      <trkpt lat="43.8979" lon="1.88116">
        <ele>146.74</ele>
        <time>2026-05-23T05:15:36Z</time>
      </trkpt>
      <trkpt lat="43.89796" lon="1.88091">
        <ele>146.74</ele>
        <time>2026-05-23T05:15:51Z</time>
      </trkpt>
      <trkpt lat="43.89804" lon="1.88067">
        <ele>146.74</ele>
        <time>2026-05-23T05:16:07Z</time>
      </trkpt>
      <trkpt lat="43.89812" lon="1.8804">
        <ele>147.22</ele>
        <time>2026-05-23T05:16:23Z</time>
      </trkpt>
      <trkpt lat="43.89819" lon="1.88015">
        <ele>147.22</ele>
        <time>2026-05-23T05:16:38Z</time>
      </trkpt>
      <trkpt lat="43.8982" lon="1.88013">
        <ele>147.22</ele>
        <time>2026-05-23T05:16:39Z</time>
      </trkpt>
      <trkpt lat="43.89824" lon="1.88001">
        <ele>147.22</ele>
        <time>2026-05-23T05:16:46Z</time>
      </trkpt>
      <trkpt lat="43.89827" lon="1.87985">
        <ele>147.7</ele>
        <time>2026-05-23T05:16:56Z</time>
      </trkpt>
      <trkpt lat="43.89833" lon="1.87958">
        <ele>147.7</ele>
        <time>2026-05-23T05:17:11Z</time>
      </trkpt>
      <trkpt lat="43.89826" lon="1.87939">
        <ele>147.7</ele>
        <time>2026-05-23T05:17:23Z</time>
      </trkpt>
      <trkpt lat="43.89816" lon="1.87912">
        <ele>147.7</ele>
        <time>2026-05-23T05:17:39Z</time>
      </trkpt>
      <trkpt lat="43.89801" lon="1.87878">
        <ele>148.18</ele>
        <time>2026-05-23T05:17:59Z</time>
      </trkpt>
      <trkpt lat="43.8979" lon="1.87848">
        <ele>148.18</ele>
        <time>2026-05-23T05:18:18Z</time>
      </trkpt>
      <trkpt lat="43.89783" lon="1.87819">
        <ele>148.18</ele>
        <time>2026-05-23T05:18:35Z</time>
      </trkpt>
      <trkpt lat="43.89775" lon="1.87782">
        <ele>148.18</ele>
        <time>2026-05-23T05:18:54Z</time>
      </trkpt>
      <trkpt lat="43.89772" lon="1.87755">
        <ele>146.74</ele>
        <time>2026-05-23T05:19:10Z</time>
      </trkpt>
      <trkpt lat="43.89772" lon="1.87722">
        <ele>147.22</ele>
        <time>2026-05-23T05:19:28Z</time>
      </trkpt>
      <trkpt lat="43.8977" lon="1.87695">
        <ele>147.22</ele>
        <time>2026-05-23T05:19:43Z</time>
      </trkpt>
      <trkpt lat="43.89766" lon="1.87667">
        <ele>147.22</ele>
        <time>2026-05-23T05:19:59Z</time>
      </trkpt>
      <trkpt lat="43.89761" lon="1.87637">
        <ele>146.74</ele>
        <time>2026-05-23T05:20:14Z</time>
      </trkpt>
      <trkpt lat="43.89758" lon="1.87605">
        <ele>146.74</ele>
        <time>2026-05-23T05:20:33Z</time>
      </trkpt>
      <trkpt lat="43.89754" lon="1.87573">
        <ele>146.74</ele>
        <time>2026-05-23T05:20:51Z</time>
      </trkpt>
      <trkpt lat="43.89751" lon="1.87537">
        <ele>146.74</ele>
        <time>2026-05-23T05:21:10Z</time>
      </trkpt>
      <trkpt lat="43.89755" lon="1.87507">
        <ele>146.74</ele>
        <time>2026-05-23T05:21:26Z</time>
      </trkpt>
      <trkpt lat="43.89759" lon="1.8747">
        <ele>146.74</ele>
        <time>2026-05-23T05:21:45Z</time>
      </trkpt>
      <trkpt lat="43.89758" lon="1.87437">
        <ele>145.78</ele>
        <time>2026-05-23T05:22:03Z</time>
      </trkpt>
      <trkpt lat="43.89757" lon="1.87427">
        <ele>145.78</ele>
        <time>2026-05-23T05:22:10Z</time>
      </trkpt>
      <trkpt lat="43.89756" lon="1.87415">
        <ele>145.78</ele>
        <time>2026-05-23T05:22:16Z</time>
      </trkpt>
      <trkpt lat="43.89764" lon="1.87384">
        <ele>145.78</ele>
        <time>2026-05-23T05:22:34Z</time>
      </trkpt>
      <trkpt lat="43.89772" lon="1.87361">
        <ele>145.78</ele>
        <time>2026-05-23T05:22:49Z</time>
      </trkpt>
      <trkpt lat="43.89775" lon="1.87335">
        <ele>145.78</ele>
        <time>2026-05-23T05:23:04Z</time>
      </trkpt>
      <trkpt lat="43.89772" lon="1.87304">
        <ele>145.78</ele>
        <time>2026-05-23T05:23:21Z</time>
      </trkpt>
      <trkpt lat="43.89767" lon="1.87271">
        <ele>145.78</ele>
        <time>2026-05-23T05:23:39Z</time>
      </trkpt>
      <trkpt lat="43.8977" lon="1.87239">
        <ele>145.78</ele>
        <time>2026-05-23T05:23:56Z</time>
      </trkpt>
      <trkpt lat="43.89771" lon="1.87234">
        <ele>145.78</ele>
        <time>2026-05-23T05:24:00Z</time>
      </trkpt>
      <trkpt lat="43.89771" lon="1.87229">
        <ele>145.78</ele>
        <time>2026-05-23T05:24:05Z</time>
      </trkpt>
      <trkpt lat="43.89774" lon="1.87212">
        <ele>145.78</ele>
        <time>2026-05-23T05:24:16Z</time>
      </trkpt>
      <trkpt lat="43.8977" lon="1.8718">
        <ele>145.78</ele>
        <time>2026-05-23T05:24:34Z</time>
      </trkpt>
      <trkpt lat="43.8976" lon="1.87151">
        <ele>145.78</ele>
        <time>2026-05-23T05:24:50Z</time>
      </trkpt>
      <trkpt lat="43.89747" lon="1.87118">
        <ele>145.3</ele>
        <time>2026-05-23T05:25:10Z</time>
      </trkpt>
      <trkpt lat="43.89737" lon="1.87089">
        <ele>145.3</ele>
        <time>2026-05-23T05:25:28Z</time>
      </trkpt>
      <trkpt lat="43.89728" lon="1.87058">
        <ele>145.3</ele>
        <time>2026-05-23T05:25:47Z</time>
      </trkpt>
      <trkpt lat="43.89721" lon="1.87031">
        <ele>144.82</ele>
        <time>2026-05-23T05:26:02Z</time>
      </trkpt>
      <trkpt lat="43.89714" lon="1.87006">
        <ele>144.82</ele>
        <time>2026-05-23T05:26:18Z</time>
      </trkpt>
      <trkpt lat="43.89709" lon="1.86978">
        <ele>144.82</ele>
        <time>2026-05-23T05:26:34Z</time>
      </trkpt>
      <trkpt lat="43.89707" lon="1.86951">
        <ele>144.82</ele>
        <time>2026-05-23T05:26:49Z</time>
      </trkpt>
      <trkpt lat="43.89708" lon="1.86923">
        <ele>144.82</ele>
        <time>2026-05-23T05:27:05Z</time>
      </trkpt>
      <trkpt lat="43.89711" lon="1.86894">
        <ele>144.82</ele>
        <time>2026-05-23T05:27:21Z</time>
      </trkpt>
      <trkpt lat="43.89717" lon="1.86875">
        <ele>144.82</ele>
        <time>2026-05-23T05:27:33Z</time>
      </trkpt>
      <trkpt lat="43.89732" lon="1.8686">
        <ele>144.82</ele>
        <time>2026-05-23T05:27:49Z</time>
      </trkpt>
      <trkpt lat="43.8975" lon="1.86843">
        <ele>144.82</ele>
        <time>2026-05-23T05:28:05Z</time>
      </trkpt>
      <trkpt lat="43.89761" lon="1.86819">
        <ele>144.82</ele>
        <time>2026-05-23T05:28:21Z</time>
      </trkpt>
      <trkpt lat="43.89767" lon="1.86786">
        <ele>144.82</ele>
        <time>2026-05-23T05:28:39Z</time>
      </trkpt>
      <trkpt lat="43.89771" lon="1.86759">
        <ele>144.82</ele>
        <time>2026-05-23T05:28:55Z</time>
      </trkpt>
      <trkpt lat="43.89772" lon="1.86753">
        <ele>144.82</ele>
        <time>2026-05-23T05:29:09Z</time>
      </trkpt>
      <trkpt lat="43.89774" lon="1.86753">
        <ele>144.82</ele>
        <time>2026-05-23T05:29:43Z</time>
      </trkpt>
      <trkpt lat="43.89774" lon="1.86733">
        <ele>144.82</ele>
        <time>2026-05-23T05:30:00Z</time>
      </trkpt>
      <trkpt lat="43.89772" lon="1.86699">
        <ele>144.82</ele>
        <time>2026-05-23T05:30:18Z</time>
      </trkpt>
      <trkpt lat="43.89764" lon="1.86671">
        <ele>144.82</ele>
        <time>2026-05-23T05:30:35Z</time>
      </trkpt>
      <trkpt lat="43.8975" lon="1.86642">
        <ele>144.34</ele>
        <time>2026-05-23T05:30:53Z</time>
      </trkpt>
      <trkpt lat="43.89741" lon="1.86615">
        <ele>144.34</ele>
        <time>2026-05-23T05:31:09Z</time>
      </trkpt>
      <trkpt lat="43.89736" lon="1.86579">
        <ele>145.78</ele>
        <time>2026-05-23T05:31:29Z</time>
      </trkpt>
      <trkpt lat="43.89737" lon="1.8656">
        <ele>145.78</ele>
        <time>2026-05-23T05:31:40Z</time>
      </trkpt>
      <trkpt lat="43.89746" lon="1.86528">
        <ele>145.78</ele>
        <time>2026-05-23T05:31:59Z</time>
      </trkpt>
      <trkpt lat="43.89753" lon="1.86497">
        <ele>145.78</ele>
        <time>2026-05-23T05:32:16Z</time>
      </trkpt>
      <trkpt lat="43.8975" lon="1.86464">
        <ele>145.78</ele>
        <time>2026-05-23T05:32:35Z</time>
      </trkpt>
      <trkpt lat="43.89742" lon="1.86432">
        <ele>145.78</ele>
        <time>2026-05-23T05:32:53Z</time>
      </trkpt>
      <trkpt lat="43.89731" lon="1.86395">
        <ele>145.78</ele>
        <time>2026-05-23T05:33:14Z</time>
      </trkpt>
      <trkpt lat="43.89721" lon="1.86359">
        <ele>145.78</ele>
        <time>2026-05-23T05:33:34Z</time>
      </trkpt>
      <trkpt lat="43.89712" lon="1.86327">
        <ele>145.78</ele>
        <time>2026-05-23T05:33:53Z</time>
      </trkpt>
      <trkpt lat="43.89709" lon="1.86316">
        <ele>145.78</ele>
        <time>2026-05-23T05:34:01Z</time>
      </trkpt>
      <trkpt lat="43.89708" lon="1.86311">
        <ele>145.78</ele>
        <time>2026-05-23T05:34:05Z</time>
      </trkpt>
      <trkpt lat="43.89699" lon="1.86279">
        <ele>145.78</ele>
        <time>2026-05-23T05:34:24Z</time>
      </trkpt>
      <trkpt lat="43.89692" lon="1.86251">
        <ele>145.3</ele>
        <time>2026-05-23T05:34:40Z</time>
      </trkpt>
      <trkpt lat="43.89685" lon="1.86218">
        <ele>145.3</ele>
        <time>2026-05-23T05:34:58Z</time>
      </trkpt>
      <trkpt lat="43.89684" lon="1.86217">
        <ele>145.3</ele>
        <time>2026-05-23T05:34:59Z</time>
      </trkpt>
      <trkpt lat="43.89695" lon="1.8619">
        <ele>145.3</ele>
        <time>2026-05-23T05:35:17Z</time>
      </trkpt>
      <trkpt lat="43.89717" lon="1.86184">
        <ele>145.3</ele>
        <time>2026-05-23T05:35:34Z</time>
      </trkpt>
      <trkpt lat="43.89744" lon="1.86178">
        <ele>145.3</ele>
        <time>2026-05-23T05:35:55Z</time>
      </trkpt>
      <trkpt lat="43.89753" lon="1.86172">
        <ele>145.3</ele>
        <time>2026-05-23T05:36:08Z</time>
      </trkpt>
      <trkpt lat="43.89753" lon="1.86172">
        <ele>145.3</ele>
        <time>2026-05-23T05:36:14Z</time>
      </trkpt>
      <trkpt lat="43.89774" lon="1.86165">
        <ele>145.3</ele>
        <time>2026-05-23T05:36:31Z</time>
      </trkpt>
      <trkpt lat="43.89796" lon="1.86153">
        <ele>145.3</ele>
        <time>2026-05-23T05:36:47Z</time>
      </trkpt>
      <trkpt lat="43.89817" lon="1.86135">
        <ele>145.78</ele>
        <time>2026-05-23T05:37:05Z</time>
      </trkpt>
      <trkpt lat="43.89829" lon="1.86106">
        <ele>145.78</ele>
        <time>2026-05-23T05:37:23Z</time>
      </trkpt>
      <trkpt lat="43.89834" lon="1.86076">
        <ele>146.26</ele>
        <time>2026-05-23T05:37:40Z</time>
      </trkpt>
      <trkpt lat="43.89838" lon="1.86049">
        <ele>146.26</ele>
        <time>2026-05-23T05:37:56Z</time>
      </trkpt>
      <trkpt lat="43.89842" lon="1.86019">
        <ele>146.26</ele>
        <time>2026-05-23T05:38:13Z</time>
      </trkpt>
      <trkpt lat="43.89846" lon="1.85993">
        <ele>146.26</ele>
        <time>2026-05-23T05:38:29Z</time>
      </trkpt>
      <trkpt lat="43.89849" lon="1.85962">
        <ele>146.26</ele>
        <time>2026-05-23T05:38:45Z</time>
      </trkpt>
      <trkpt lat="43.89855" lon="1.8593">
        <ele>146.74</ele>
        <time>2026-05-23T05:39:02Z</time>
      </trkpt>
      <trkpt lat="43.8986" lon="1.85902">
        <ele>146.74</ele>
        <time>2026-05-23T05:39:19Z</time>
      </trkpt>
      <trkpt lat="43.89866" lon="1.85887">
        <ele>147.22</ele>
        <time>2026-05-23T05:39:30Z</time>
      </trkpt>
      <trkpt lat="43.89883" lon="1.85865">
        <ele>147.22</ele>
        <time>2026-05-23T05:39:48Z</time>
      </trkpt>
      <trkpt lat="43.89898" lon="1.85848">
        <ele>147.22</ele>
        <time>2026-05-23T05:40:04Z</time>
      </trkpt>
      <trkpt lat="43.89909" lon="1.85825">
        <ele>147.22</ele>
        <time>2026-05-23T05:40:19Z</time>
      </trkpt>
      <trkpt lat="43.89903" lon="1.858">
        <ele>147.22</ele>
        <time>2026-05-23T05:40:34Z</time>
      </trkpt>
      <trkpt lat="43.89893" lon="1.85771">
        <ele>147.22</ele>
        <time>2026-05-23T05:40:53Z</time>
      </trkpt>
      <trkpt lat="43.89883" lon="1.8574">
        <ele>147.22</ele>
        <time>2026-05-23T05:41:10Z</time>
      </trkpt>
      <trkpt lat="43.89873" lon="1.85714">
        <ele>145.78</ele>
        <time>2026-05-23T05:41:25Z</time>
      </trkpt>
      <trkpt lat="43.89863" lon="1.85688">
        <ele>145.78</ele>
        <time>2026-05-23T05:41:41Z</time>
      </trkpt>
      <trkpt lat="43.89853" lon="1.85659">
        <ele>145.78</ele>
        <time>2026-05-23T05:41:58Z</time>
      </trkpt>
      <trkpt lat="43.8985" lon="1.85631">
        <ele>145.3</ele>
        <time>2026-05-23T05:42:14Z</time>
      </trkpt>
      <trkpt lat="43.89854" lon="1.85603">
        <ele>145.3</ele>
        <time>2026-05-23T05:42:31Z</time>
      </trkpt>
      <trkpt lat="43.8986" lon="1.85573">
        <ele>145.3</ele>
        <time>2026-05-23T05:42:48Z</time>
      </trkpt>
      <trkpt lat="43.89866" lon="1.85542">
        <ele>145.3</ele>
        <time>2026-05-23T05:43:05Z</time>
      </trkpt>
      <trkpt lat="43.89871" lon="1.85512">
        <ele>145.3</ele>
        <time>2026-05-23T05:43:20Z</time>
      </trkpt>
      <trkpt lat="43.89876" lon="1.85482">
        <ele>145.3</ele>
        <time>2026-05-23T05:43:37Z</time>
      </trkpt>
      <trkpt lat="43.89879" lon="1.85452">
        <ele>145.3</ele>
        <time>2026-05-23T05:43:54Z</time>
      </trkpt>
      <trkpt lat="43.8988" lon="1.85447">
        <ele>146.74</ele>
        <time>2026-05-23T05:43:57Z</time>
      </trkpt>
      <trkpt lat="43.89885" lon="1.85415">
        <ele>146.74</ele>
        <time>2026-05-23T05:44:15Z</time>
      </trkpt>
      <trkpt lat="43.89885" lon="1.85383">
        <ele>147.22</ele>
        <time>2026-05-23T05:44:33Z</time>
      </trkpt>
      <trkpt lat="43.89881" lon="1.85355">
        <ele>147.22</ele>
        <time>2026-05-23T05:44:50Z</time>
      </trkpt>
      <trkpt lat="43.89876" lon="1.85331">
        <ele>147.7</ele>
        <time>2026-05-23T05:45:05Z</time>
      </trkpt>
      <trkpt lat="43.89868" lon="1.85306">
        <ele>147.7</ele>
        <time>2026-05-23T05:45:22Z</time>
      </trkpt>
      <trkpt lat="43.89857" lon="1.8528">
        <ele>147.7</ele>
        <time>2026-05-23T05:45:39Z</time>
      </trkpt>
      <trkpt lat="43.89848" lon="1.85249">
        <ele>148.18</ele>
        <time>2026-05-23T05:45:57Z</time>
      </trkpt>
      <trkpt lat="43.89836" lon="1.85219">
        <ele>148.18</ele>
        <time>2026-05-23T05:46:16Z</time>
      </trkpt>
      <trkpt lat="43.89826" lon="1.85192">
        <ele>148.66</ele>
        <time>2026-05-23T05:46:32Z</time>
      </trkpt>
      <trkpt lat="43.89818" lon="1.85173">
        <ele>148.66</ele>
        <time>2026-05-23T05:46:46Z</time>
      </trkpt>
      <trkpt lat="43.89806" lon="1.85147">
        <ele>149.14</ele>
        <time>2026-05-23T05:47:04Z</time>
      </trkpt>
      <trkpt lat="43.89794" lon="1.85116">
        <ele>149.62</ele>
        <time>2026-05-23T05:47:23Z</time>
      </trkpt>
      <trkpt lat="43.89787" lon="1.8509">
        <ele>150.58</ele>
        <time>2026-05-23T05:47:39Z</time>
      </trkpt>
      <trkpt lat="43.89791" lon="1.85066">
        <ele>150.58</ele>
        <time>2026-05-23T05:47:53Z</time>
      </trkpt>
      <trkpt lat="43.89789" lon="1.85041">
        <ele>151.06</ele>
        <time>2026-05-23T05:48:08Z</time>
      </trkpt>
      <trkpt lat="43.89781" lon="1.85008">
        <ele>151.06</ele>
        <time>2026-05-23T05:48:26Z</time>
      </trkpt>
      <trkpt lat="43.89774" lon="1.84983">
        <ele>151.06</ele>
        <time>2026-05-23T05:48:41Z</time>
      </trkpt>
      <trkpt lat="43.89767" lon="1.84949">
        <ele>151.06</ele>
        <time>2026-05-23T05:48:59Z</time>
      </trkpt>
      <trkpt lat="43.89759" lon="1.84915">
        <ele>151.06</ele>
        <time>2026-05-23T05:49:18Z</time>
      </trkpt>
      <trkpt lat="43.89751" lon="1.84885">
        <ele>151.06</ele>
        <time>2026-05-23T05:49:35Z</time>
      </trkpt>
      <trkpt lat="43.89747" lon="1.84869">
        <ele>149.62</ele>
        <time>2026-05-23T05:49:44Z</time>
      </trkpt>
      <trkpt lat="43.89742" lon="1.84838">
        <ele>150.1</ele>
        <time>2026-05-23T05:50:01Z</time>
      </trkpt>
      <trkpt lat="43.89735" lon="1.84809">
        <ele>150.1</ele>
        <time>2026-05-23T05:50:18Z</time>
      </trkpt>
      <trkpt lat="43.89731" lon="1.84775">
        <ele>149.62</ele>
        <time>2026-05-23T05:50:36Z</time>
      </trkpt>
      <trkpt lat="43.89725" lon="1.84743">
        <ele>149.14</ele>
        <time>2026-05-23T05:50:54Z</time>
      </trkpt>
      <trkpt lat="43.89722" lon="1.84713">
        <ele>148.66</ele>
        <time>2026-05-23T05:51:11Z</time>
      </trkpt>
      <trkpt lat="43.89722" lon="1.84703">
        <ele>148.66</ele>
        <time>2026-05-23T05:51:22Z</time>
      </trkpt>
      <trkpt lat="43.89718" lon="1.84678">
        <ele>147.7</ele>
        <time>2026-05-23T05:51:37Z</time>
      </trkpt>
      <trkpt lat="43.89716" lon="1.84653">
        <ele>147.7</ele>
        <time>2026-05-23T05:51:50Z</time>
      </trkpt>
      <trkpt lat="43.89714" lon="1.8463">
        <ele>147.7</ele>
        <time>2026-05-23T05:52:03Z</time>
      </trkpt>
      <trkpt lat="43.89713" lon="1.84605">
        <ele>147.7</ele>
        <time>2026-05-23T05:52:18Z</time>
      </trkpt>
      <trkpt lat="43.89711" lon="1.84576">
        <ele>147.7</ele>
        <time>2026-05-23T05:52:33Z</time>
      </trkpt>
      <trkpt lat="43.89709" lon="1.84545">
        <ele>147.7</ele>
        <time>2026-05-23T05:52:49Z</time>
      </trkpt>
      <trkpt lat="43.89707" lon="1.84516">
        <ele>147.22</ele>
        <time>2026-05-23T05:53:06Z</time>
      </trkpt>
      <trkpt lat="43.89704" lon="1.84487">
        <ele>147.22</ele>
        <time>2026-05-23T05:53:22Z</time>
      </trkpt>
      <trkpt lat="43.897" lon="1.84455">
        <ele>147.22</ele>
        <time>2026-05-23T05:53:40Z</time>
      </trkpt>
      <trkpt lat="43.89696" lon="1.84425">
        <ele>147.22</ele>
        <time>2026-05-23T05:53:57Z</time>
      </trkpt>
      <trkpt lat="43.89692" lon="1.84396">
        <ele>147.22</ele>
        <time>2026-05-23T05:54:14Z</time>
      </trkpt>
      <trkpt lat="43.89684" lon="1.84364">
        <ele>147.22</ele>
        <time>2026-05-23T05:54:33Z</time>
      </trkpt>
      <trkpt lat="43.89678" lon="1.84334">
        <ele>147.22</ele>
        <time>2026-05-23T05:54:51Z</time>
      </trkpt>
      <trkpt lat="43.89676" lon="1.84324">
        <ele>148.18</ele>
        <time>2026-05-23T05:54:57Z</time>
      </trkpt>
      <trkpt lat="43.89673" lon="1.84303">
        <ele>148.66</ele>
        <time>2026-05-23T05:55:11Z</time>
      </trkpt>
      <trkpt lat="43.89663" lon="1.8428">
        <ele>147.7</ele>
        <time>2026-05-23T05:55:26Z</time>
      </trkpt>
      <trkpt lat="43.89654" lon="1.84256">
        <ele>147.7</ele>
        <time>2026-05-23T05:55:41Z</time>
      </trkpt>
      <trkpt lat="43.89642" lon="1.84238">
        <ele>147.7</ele>
        <time>2026-05-23T05:55:53Z</time>
      </trkpt>
      <trkpt lat="43.89631" lon="1.84214">
        <ele>148.18</ele>
        <time>2026-05-23T05:56:07Z</time>
      </trkpt>
      <trkpt lat="43.89622" lon="1.84194">
        <ele>147.7</ele>
        <time>2026-05-23T05:56:21Z</time>
      </trkpt>
      <trkpt lat="43.89616" lon="1.84168">
        <ele>147.7</ele>
        <time>2026-05-23T05:56:35Z</time>
      </trkpt>
      <trkpt lat="43.89608" lon="1.84148">
        <ele>147.7</ele>
        <time>2026-05-23T05:56:48Z</time>
      </trkpt>
      <trkpt lat="43.89605" lon="1.84142">
        <ele>147.7</ele>
        <time>2026-05-23T05:57:01Z</time>
      </trkpt>
      <trkpt lat="43.89604" lon="1.84138">
        <ele>147.7</ele>
        <time>2026-05-23T05:57:12Z</time>
      </trkpt>
      <trkpt lat="43.89603" lon="1.84138">
        <ele>147.7</ele>
        <time>2026-05-23T05:57:38Z</time>
      </trkpt>
      <trkpt lat="43.89603" lon="1.84136">
        <ele>147.22</ele>
        <time>2026-05-23T05:58:00Z</time>
      </trkpt>
      <trkpt lat="43.89599" lon="1.84114">
        <ele>147.22</ele>
        <time>2026-05-23T05:58:14Z</time>
      </trkpt>
      <trkpt lat="43.89593" lon="1.84092">
        <ele>147.22</ele>
        <time>2026-05-23T05:58:27Z</time>
      </trkpt>
      <trkpt lat="43.89587" lon="1.84072">
        <ele>147.22</ele>
        <time>2026-05-23T05:58:40Z</time>
      </trkpt>
      <trkpt lat="43.8958" lon="1.84049">
        <ele>147.22</ele>
        <time>2026-05-23T05:58:55Z</time>
      </trkpt>
      <trkpt lat="43.89573" lon="1.84025">
        <ele>147.22</ele>
        <time>2026-05-23T05:59:09Z</time>
      </trkpt>
      <trkpt lat="43.89565" lon="1.84002">
        <ele>147.22</ele>
        <time>2026-05-23T05:59:23Z</time>
      </trkpt>
      <trkpt lat="43.89561" lon="1.83991">
        <ele>147.22</ele>
        <time>2026-05-23T05:59:37Z</time>
      </trkpt>
      <trkpt lat="43.89561" lon="1.83986">
        <ele>147.22</ele>
        <time>2026-05-23T05:59:41Z</time>
      </trkpt>
      <trkpt lat="43.89559" lon="1.83979">
        <ele>147.22</ele>
        <time>2026-05-23T05:59:45Z</time>
      </trkpt>
      <trkpt lat="43.89556" lon="1.83962">
        <ele>147.22</ele>
        <time>2026-05-23T05:59:55Z</time>
      </trkpt>
      <trkpt lat="43.89548" lon="1.8393">
        <ele>147.22</ele>
        <time>2026-05-23T06:00:14Z</time>
      </trkpt>
      <trkpt lat="43.89542" lon="1.83904">
        <ele>147.22</ele>
        <time>2026-05-23T06:00:29Z</time>
      </trkpt>
      <trkpt lat="43.8954" lon="1.83897">
        <ele>147.22</ele>
        <time>2026-05-23T06:00:34Z</time>
      </trkpt>
      <trkpt lat="43.89531" lon="1.83872">
        <ele>147.22</ele>
        <time>2026-05-23T06:00:49Z</time>
      </trkpt>
      <trkpt lat="43.8953" lon="1.83869">
        <ele>147.22</ele>
        <time>2026-05-23T06:00:51Z</time>
      </trkpt>
      <trkpt lat="43.89528" lon="1.83862">
        <ele>147.22</ele>
        <time>2026-05-23T06:00:56Z</time>
      </trkpt>
      <trkpt lat="43.89525" lon="1.83858">
        <ele>147.22</ele>
        <time>2026-05-23T06:01:08Z</time>
      </trkpt>
      <trkpt lat="43.8952" lon="1.83834">
        <ele>146.74</ele>
        <time>2026-05-23T06:01:22Z</time>
      </trkpt>
      <trkpt lat="43.89511" lon="1.83808">
        <ele>146.74</ele>
        <time>2026-05-23T06:01:37Z</time>
      </trkpt>
      <trkpt lat="43.89511" lon="1.83807">
        <ele>146.74</ele>
        <time>2026-05-23T06:01:38Z</time>
      </trkpt>
      <trkpt lat="43.89509" lon="1.83777">
        <ele>146.74</ele>
        <time>2026-05-23T06:01:55Z</time>
      </trkpt>
      <trkpt lat="43.89509" lon="1.83748">
        <ele>147.7</ele>
        <time>2026-05-23T06:02:12Z</time>
      </trkpt>
      <trkpt lat="43.89511" lon="1.83716">
        <ele>148.18</ele>
        <time>2026-05-23T06:02:30Z</time>
      </trkpt>
      <trkpt lat="43.89513" lon="1.83692">
        <ele>148.66</ele>
        <time>2026-05-23T06:02:43Z</time>
      </trkpt>
      <trkpt lat="43.89515" lon="1.83667">
        <ele>148.66</ele>
        <time>2026-05-23T06:02:58Z</time>
      </trkpt>
      <trkpt lat="43.89511" lon="1.83631">
        <ele>148.66</ele>
        <time>2026-05-23T06:03:15Z</time>
      </trkpt>
      <trkpt lat="43.89509" lon="1.83598">
        <ele>148.66</ele>
        <time>2026-05-23T06:03:33Z</time>
      </trkpt>
      <trkpt lat="43.89505" lon="1.83573">
        <ele>147.22</ele>
        <time>2026-05-23T06:03:47Z</time>
      </trkpt>
      <trkpt lat="43.89504" lon="1.83571">
        <ele>147.22</ele>
        <time>2026-05-23T06:03:48Z</time>
      </trkpt>
      <trkpt lat="43.89501" lon="1.83542">
        <ele>147.22</ele>
        <time>2026-05-23T06:04:04Z</time>
      </trkpt>
      <trkpt lat="43.89498" lon="1.83514">
        <ele>147.22</ele>
        <time>2026-05-23T06:04:20Z</time>
      </trkpt>
      <trkpt lat="43.89497" lon="1.83486">
        <ele>146.74</ele>
        <time>2026-05-23T06:04:36Z</time>
      </trkpt>
      <trkpt lat="43.89496" lon="1.83455">
        <ele>146.26</ele>
        <time>2026-05-23T06:04:53Z</time>
      </trkpt>
      <trkpt lat="43.89495" lon="1.83426">
        <ele>145.78</ele>
        <time>2026-05-23T06:05:08Z</time>
      </trkpt>
      <trkpt lat="43.89497" lon="1.83394">
        <ele>145.78</ele>
        <time>2026-05-23T06:05:25Z</time>
      </trkpt>
      <trkpt lat="43.89501" lon="1.8336">
        <ele>145.78</ele>
        <time>2026-05-23T06:05:44Z</time>
      </trkpt>
      <trkpt lat="43.89509" lon="1.83332">
        <ele>145.78</ele>
        <time>2026-05-23T06:06:01Z</time>
      </trkpt>
      <trkpt lat="43.89514" lon="1.83305">
        <ele>145.78</ele>
        <time>2026-05-23T06:06:17Z</time>
      </trkpt>
      <trkpt lat="43.89519" lon="1.83278">
        <ele>145.78</ele>
        <time>2026-05-23T06:06:33Z</time>
      </trkpt>
      <trkpt lat="43.89518" lon="1.83248">
        <ele>145.3</ele>
        <time>2026-05-23T06:06:49Z</time>
      </trkpt>
      <trkpt lat="43.8951" lon="1.83217">
        <ele>145.3</ele>
        <time>2026-05-23T06:07:07Z</time>
      </trkpt>
      <trkpt lat="43.895" lon="1.83186">
        <ele>145.3</ele>
        <time>2026-05-23T06:07:26Z</time>
      </trkpt>
      <trkpt lat="43.89492" lon="1.83153">
        <ele>145.3</ele>
        <time>2026-05-23T06:07:45Z</time>
      </trkpt>
      <trkpt lat="43.89482" lon="1.83122">
        <ele>145.3</ele>
        <time>2026-05-23T06:08:03Z</time>
      </trkpt>
      <trkpt lat="43.89481" lon="1.83116">
        <ele>146.74</ele>
        <time>2026-05-23T06:08:08Z</time>
      </trkpt>
      <trkpt lat="43.89477" lon="1.83095">
        <ele>146.74</ele>
        <time>2026-05-23T06:08:20Z</time>
      </trkpt>
      <trkpt lat="43.89474" lon="1.8307">
        <ele>146.74</ele>
        <time>2026-05-23T06:08:35Z</time>
      </trkpt>
      <trkpt lat="43.89468" lon="1.83042">
        <ele>146.74</ele>
        <time>2026-05-23T06:08:51Z</time>
      </trkpt>
      <trkpt lat="43.8946" lon="1.83019">
        <ele>146.74</ele>
        <time>2026-05-23T06:09:06Z</time>
      </trkpt>
      <trkpt lat="43.8945" lon="1.82997">
        <ele>146.74</ele>
        <time>2026-05-23T06:09:21Z</time>
      </trkpt>
      <trkpt lat="43.89441" lon="1.82974">
        <ele>146.74</ele>
        <time>2026-05-23T06:09:36Z</time>
      </trkpt>
      <trkpt lat="43.89433" lon="1.82948">
        <ele>146.74</ele>
        <time>2026-05-23T06:09:52Z</time>
      </trkpt>
      <trkpt lat="43.89426" lon="1.82925">
        <ele>147.22</ele>
        <time>2026-05-23T06:10:06Z</time>
      </trkpt>
      <trkpt lat="43.89421" lon="1.82902">
        <ele>147.7</ele>
        <time>2026-05-23T06:10:20Z</time>
      </trkpt>
      <trkpt lat="43.89416" lon="1.8288">
        <ele>148.18</ele>
        <time>2026-05-23T06:10:34Z</time>
      </trkpt>
      <trkpt lat="43.89414" lon="1.82867">
        <ele>148.66</ele>
        <time>2026-05-23T06:10:47Z</time>
      </trkpt>
      <trkpt lat="43.89413" lon="1.82867">
        <ele>148.66</ele>
        <time>2026-05-23T06:11:05Z</time>
      </trkpt>
      <trkpt lat="43.89411" lon="1.82853">
        <ele>148.66</ele>
        <time>2026-05-23T06:11:25Z</time>
      </trkpt>
      <trkpt lat="43.89412" lon="1.8283">
        <ele>149.14</ele>
        <time>2026-05-23T06:11:40Z</time>
      </trkpt>
      <trkpt lat="43.89411" lon="1.82823">
        <ele>149.14</ele>
        <time>2026-05-23T06:11:52Z</time>
      </trkpt>
      <trkpt lat="43.89405" lon="1.82798">
        <ele>149.14</ele>
        <time>2026-05-23T06:12:06Z</time>
      </trkpt>
      <trkpt lat="43.89397" lon="1.8277">
        <ele>149.14</ele>
        <time>2026-05-23T06:12:22Z</time>
      </trkpt>
      <trkpt lat="43.89391" lon="1.82743">
        <ele>149.14</ele>
        <time>2026-05-23T06:12:37Z</time>
      </trkpt>
      <trkpt lat="43.89386" lon="1.8272">
        <ele>149.14</ele>
        <time>2026-05-23T06:12:51Z</time>
      </trkpt>
      <trkpt lat="43.89383" lon="1.82706">
        <ele>148.18</ele>
        <time>2026-05-23T06:12:59Z</time>
      </trkpt>
      <trkpt lat="43.8938" lon="1.82701">
        <ele>148.18</ele>
        <time>2026-05-23T06:13:12Z</time>
      </trkpt>
      <trkpt lat="43.8938" lon="1.82701">
        <ele>148.18</ele>
        <time>2026-05-23T06:13:13Z</time>
      </trkpt>
      <trkpt lat="43.8938" lon="1.82694">
        <ele>148.18</ele>
        <time>2026-05-23T06:13:22Z</time>
      </trkpt>
      <trkpt lat="43.89379" lon="1.8267">
        <ele>148.18</ele>
        <time>2026-05-23T06:13:37Z</time>
      </trkpt>
      <trkpt lat="43.89378" lon="1.82639">
        <ele>148.18</ele>
        <time>2026-05-23T06:13:55Z</time>
      </trkpt>
      <trkpt lat="43.89374" lon="1.8261">
        <ele>148.18</ele>
        <time>2026-05-23T06:14:11Z</time>
      </trkpt>
      <trkpt lat="43.89371" lon="1.82593">
        <ele>148.18</ele>
        <time>2026-05-23T06:14:22Z</time>
      </trkpt>
      <trkpt lat="43.89369" lon="1.82578">
        <ele>149.14</ele>
        <time>2026-05-23T06:14:34Z</time>
      </trkpt>
      <trkpt lat="43.89363" lon="1.82548">
        <ele>149.14</ele>
        <time>2026-05-23T06:14:49Z</time>
      </trkpt>
      <trkpt lat="43.89357" lon="1.8252">
        <ele>149.14</ele>
        <time>2026-05-23T06:15:05Z</time>
      </trkpt>
      <trkpt lat="43.89353" lon="1.82495">
        <ele>149.62</ele>
        <time>2026-05-23T06:15:19Z</time>
      </trkpt>
      <trkpt lat="43.89351" lon="1.8247">
        <ele>149.62</ele>
        <time>2026-05-23T06:15:33Z</time>
      </trkpt>
      <trkpt lat="43.89349" lon="1.82455">
        <ele>149.62</ele>
        <time>2026-05-23T06:15:42Z</time>
      </trkpt>
      <trkpt lat="43.89344" lon="1.82429">
        <ele>149.62</ele>
        <time>2026-05-23T06:15:58Z</time>
      </trkpt>
      <trkpt lat="43.8934" lon="1.82404">
        <ele>150.1</ele>
        <time>2026-05-23T06:16:13Z</time>
      </trkpt>
      <trkpt lat="43.89334" lon="1.82378">
        <ele>150.1</ele>
        <time>2026-05-23T06:16:29Z</time>
      </trkpt>
      <trkpt lat="43.89324" lon="1.82354">
        <ele>151.06</ele>
        <time>2026-05-23T06:16:45Z</time>
      </trkpt>
      <trkpt lat="43.89316" lon="1.82329">
        <ele>151.54</ele>
        <time>2026-05-23T06:17:00Z</time>
      </trkpt>
      <trkpt lat="43.89307" lon="1.82308">
        <ele>151.54</ele>
        <time>2026-05-23T06:17:13Z</time>
      </trkpt>
      <trkpt lat="43.89298" lon="1.82283">
        <ele>150.1</ele>
        <time>2026-05-23T06:17:28Z</time>
      </trkpt>
      <trkpt lat="43.89288" lon="1.82257">
        <ele>149.62</ele>
        <time>2026-05-23T06:17:45Z</time>
      </trkpt>
      <trkpt lat="43.89279" lon="1.82235">
        <ele>149.62</ele>
        <time>2026-05-23T06:17:59Z</time>
      </trkpt>
      <trkpt lat="43.89267" lon="1.82211">
        <ele>149.62</ele>
        <time>2026-05-23T06:18:15Z</time>
      </trkpt>
      <trkpt lat="43.89258" lon="1.82186">
        <ele>149.62</ele>
        <time>2026-05-23T06:18:31Z</time>
      </trkpt>
      <trkpt lat="43.89248" lon="1.82162">
        <ele>149.62</ele>
        <time>2026-05-23T06:18:46Z</time>
      </trkpt>
      <trkpt lat="43.89242" lon="1.82141">
        <ele>149.62</ele>
        <time>2026-05-23T06:19:01Z</time>
      </trkpt>
      <trkpt lat="43.89242" lon="1.8214">
        <ele>149.62</ele>
        <time>2026-05-23T06:19:03Z</time>
      </trkpt>
      <trkpt lat="43.89232" lon="1.82121">
        <ele>148.66</ele>
        <time>2026-05-23T06:19:16Z</time>
      </trkpt>
      <trkpt lat="43.89221" lon="1.82096">
        <ele>148.18</ele>
        <time>2026-05-23T06:19:32Z</time>
      </trkpt>
      <trkpt lat="43.89209" lon="1.82076">
        <ele>148.18</ele>
        <time>2026-05-23T06:19:46Z</time>
      </trkpt>
      <trkpt lat="43.89197" lon="1.82055">
        <ele>147.7</ele>
        <time>2026-05-23T06:20:00Z</time>
      </trkpt>
      <trkpt lat="43.89185" lon="1.82036">
        <ele>147.7</ele>
        <time>2026-05-23T06:20:14Z</time>
      </trkpt>
      <trkpt lat="43.89176" lon="1.82019">
        <ele>147.7</ele>
        <time>2026-05-23T06:20:28Z</time>
      </trkpt>
      <trkpt lat="43.89166" lon="1.82008">
        <ele>147.7</ele>
        <time>2026-05-23T06:20:38Z</time>
      </trkpt>
      <trkpt lat="43.89154" lon="1.81987">
        <ele>147.7</ele>
        <time>2026-05-23T06:20:53Z</time>
      </trkpt>
      <trkpt lat="43.89151" lon="1.81982">
        <ele>147.7</ele>
        <time>2026-05-23T06:20:56Z</time>
      </trkpt>
      <trkpt lat="43.8914" lon="1.81958">
        <ele>147.7</ele>
        <time>2026-05-23T06:21:12Z</time>
      </trkpt>
      <trkpt lat="43.8913" lon="1.81931">
        <ele>150.1</ele>
        <time>2026-05-23T06:21:29Z</time>
      </trkpt>
      <trkpt lat="43.89118" lon="1.81908">
        <ele>150.1</ele>
        <time>2026-05-23T06:21:45Z</time>
      </trkpt>
      <trkpt lat="43.89108" lon="1.81888">
        <ele>150.1</ele>
        <time>2026-05-23T06:21:59Z</time>
      </trkpt>
      <trkpt lat="43.89096" lon="1.81866">
        <ele>150.1</ele>
        <time>2026-05-23T06:22:14Z</time>
      </trkpt>
      <trkpt lat="43.89085" lon="1.81846">
        <ele>150.58</ele>
        <time>2026-05-23T06:22:29Z</time>
      </trkpt>
      <trkpt lat="43.89072" lon="1.81823">
        <ele>151.06</ele>
        <time>2026-05-23T06:22:45Z</time>
      </trkpt>
      <trkpt lat="43.89061" lon="1.818">
        <ele>151.06</ele>
        <time>2026-05-23T06:23:01Z</time>
      </trkpt>
      <trkpt lat="43.89053" lon="1.81773">
        <ele>151.06</ele>
        <time>2026-05-23T06:23:18Z</time>
      </trkpt>
      <trkpt lat="43.89048" lon="1.81745">
        <ele>151.54</ele>
        <time>2026-05-23T06:23:34Z</time>
      </trkpt>
      <trkpt lat="43.89044" lon="1.81722">
        <ele>152.03</ele>
        <time>2026-05-23T06:23:48Z</time>
      </trkpt>
      <trkpt lat="43.89034" lon="1.81692">
        <ele>152.51</ele>
        <time>2026-05-23T06:24:07Z</time>
      </trkpt>
      <trkpt lat="43.89025" lon="1.81668">
        <ele>152.51</ele>
        <time>2026-05-23T06:24:22Z</time>
      </trkpt>
      <trkpt lat="43.89015" lon="1.81647">
        <ele>152.51</ele>
        <time>2026-05-23T06:24:37Z</time>
      </trkpt>
      <trkpt lat="43.89003" lon="1.81623">
        <ele>152.99</ele>
        <time>2026-05-23T06:24:53Z</time>
      </trkpt>
      <trkpt lat="43.88993" lon="1.81603">
        <ele>152.99</ele>
        <time>2026-05-23T06:25:07Z</time>
      </trkpt>
      <trkpt lat="43.88982" lon="1.81584">
        <ele>152.99</ele>
        <time>2026-05-23T06:25:21Z</time>
      </trkpt>
      <trkpt lat="43.88969" lon="1.81562">
        <ele>152.99</ele>
        <time>2026-05-23T06:25:37Z</time>
      </trkpt>
      <trkpt lat="43.88958" lon="1.81545">
        <ele>152.99</ele>
        <time>2026-05-23T06:25:51Z</time>
      </trkpt>
      <trkpt lat="43.88946" lon="1.81529">
        <ele>152.99</ele>
        <time>2026-05-23T06:26:04Z</time>
      </trkpt>
      <trkpt lat="43.88942" lon="1.81501">
        <ele>153.95</ele>
        <time>2026-05-23T06:26:20Z</time>
      </trkpt>
      <trkpt lat="43.88944" lon="1.81494">
        <ele>153.95</ele>
        <time>2026-05-23T06:26:24Z</time>
      </trkpt>
      <trkpt lat="43.88945" lon="1.81472">
        <ele>154.43</ele>
        <time>2026-05-23T06:26:38Z</time>
      </trkpt>
      <trkpt lat="43.88929" lon="1.8145">
        <ele>154.91</ele>
        <time>2026-05-23T06:26:56Z</time>
      </trkpt>
      <trkpt lat="43.8892" lon="1.81426">
        <ele>155.39</ele>
        <time>2026-05-23T06:27:11Z</time>
      </trkpt>
      <trkpt lat="43.88916" lon="1.81401">
        <ele>155.87</ele>
        <time>2026-05-23T06:27:26Z</time>
      </trkpt>
      <trkpt lat="43.88919" lon="1.81389">
        <ele>155.87</ele>
        <time>2026-05-23T06:27:40Z</time>
      </trkpt>
      <trkpt lat="43.88928" lon="1.81382">
        <ele>156.83</ele>
        <time>2026-05-23T06:27:49Z</time>
      </trkpt>
      <trkpt lat="43.88928" lon="1.81374">
        <ele>157.31</ele>
        <time>2026-05-23T06:27:53Z</time>
      </trkpt>
      <trkpt lat="43.88927" lon="1.81345">
        <ele>157.79</ele>
        <time>2026-05-23T06:28:09Z</time>
      </trkpt>
      <trkpt lat="43.88927" lon="1.81345">
        <ele>157.79</ele>
        <time>2026-05-23T06:28:22Z</time>
      </trkpt>
      <trkpt lat="43.88926" lon="1.81346">
        <ele>157.79</ele>
        <time>2026-05-23T06:28:33Z</time>
      </trkpt>
      <trkpt lat="43.88927" lon="1.81347">
        <ele>161.16</ele>
        <time>2026-05-23T06:28:35Z</time>
      </trkpt>
      <trkpt lat="43.88927" lon="1.81347">
        <ele>161.16</ele>
        <time>2026-05-23T06:28:36Z</time>
      </trkpt>
      <trkpt lat="43.88927" lon="1.81347">
        <ele>157.79</ele>
        <time>2026-05-23T06:28:40Z</time>
      </trkpt>
      <trkpt lat="43.88927" lon="1.81347">
        <ele>157.79</ele>
        <time>2026-05-23T06:28:43Z</time>
      </trkpt>
      <trkpt lat="43.88924" lon="1.81337">
        <ele>157.79</ele>
        <time>2026-05-23T06:28:48Z</time>
      </trkpt>
      <trkpt lat="43.88923" lon="1.81327">
        <ele>157.79</ele>
        <time>2026-05-23T06:28:53Z</time>
      </trkpt>
      <trkpt lat="43.88922" lon="1.813">
        <ele>157.79</ele>
        <time>2026-05-23T06:29:08Z</time>
      </trkpt>
      <trkpt lat="43.88921" lon="1.81271">
        <ele>157.79</ele>
        <time>2026-05-23T06:29:24Z</time>
      </trkpt>
      <trkpt lat="43.88918" lon="1.81242">
        <ele>159.72</ele>
        <time>2026-05-23T06:29:41Z</time>
      </trkpt>
      <trkpt lat="43.88912" lon="1.81217">
        <ele>159.72</ele>
        <time>2026-05-23T06:29:56Z</time>
      </trkpt>
      <trkpt lat="43.88903" lon="1.81191">
        <ele>159.72</ele>
        <time>2026-05-23T06:30:12Z</time>
      </trkpt>
      <trkpt lat="43.88894" lon="1.81166">
        <ele>159.72</ele>
        <time>2026-05-23T06:30:27Z</time>
      </trkpt>
      <trkpt lat="43.88894" lon="1.81164">
        <ele>159.72</ele>
        <time>2026-05-23T06:30:28Z</time>
      </trkpt>
      <trkpt lat="43.88892" lon="1.81128">
        <ele>159.72</ele>
        <time>2026-05-23T06:30:46Z</time>
      </trkpt>
      <trkpt lat="43.88892" lon="1.81096">
        <ele>159.72</ele>
        <time>2026-05-23T06:31:04Z</time>
      </trkpt>
      <trkpt lat="43.88893" lon="1.81093">
        <ele>159.72</ele>
        <time>2026-05-23T06:31:07Z</time>
      </trkpt>
      <trkpt lat="43.88895" lon="1.81066">
        <ele>159.72</ele>
        <time>2026-05-23T06:31:22Z</time>
      </trkpt>
      <trkpt lat="43.88894" lon="1.81058">
        <ele>159.72</ele>
        <time>2026-05-23T06:31:26Z</time>
      </trkpt>
      <trkpt lat="43.88891" lon="1.8103">
        <ele>159.72</ele>
        <time>2026-05-23T06:31:42Z</time>
      </trkpt>
      <trkpt lat="43.88887" lon="1.81007">
        <ele>159.72</ele>
        <time>2026-05-23T06:31:55Z</time>
      </trkpt>
      <trkpt lat="43.88884" lon="1.80983">
        <ele>159.72</ele>
        <time>2026-05-23T06:32:09Z</time>
      </trkpt>
      <trkpt lat="43.88882" lon="1.80955">
        <ele>159.72</ele>
        <time>2026-05-23T06:32:25Z</time>
      </trkpt>
      <trkpt lat="43.88879" lon="1.80928">
        <ele>159.72</ele>
        <time>2026-05-23T06:32:41Z</time>
      </trkpt>
      <trkpt lat="43.88885" lon="1.809">
        <ele>160.2</ele>
        <time>2026-05-23T06:32:58Z</time>
      </trkpt>
      <trkpt lat="43.88885" lon="1.80874">
        <ele>160.68</ele>
        <time>2026-05-23T06:33:13Z</time>
      </trkpt>
      <trkpt lat="43.8888" lon="1.80851">
        <ele>159.72</ele>
        <time>2026-05-23T06:33:27Z</time>
      </trkpt>
      <trkpt lat="43.88874" lon="1.80826">
        <ele>158.27</ele>
        <time>2026-05-23T06:33:42Z</time>
      </trkpt>
      <trkpt lat="43.88873" lon="1.80823">
        <ele>157.79</ele>
        <time>2026-05-23T06:33:54Z</time>
      </trkpt>
      <trkpt lat="43.88889" lon="1.80811">
        <ele>157.79</ele>
        <time>2026-05-23T06:34:10Z</time>
      </trkpt>
      <trkpt lat="43.88904" lon="1.808">
        <ele>157.79</ele>
        <time>2026-05-23T06:34:24Z</time>
      </trkpt>
      <trkpt lat="43.88912" lon="1.80792">
        <ele>158.75</ele>
        <time>2026-05-23T06:34:36Z</time>
      </trkpt>
      <trkpt lat="43.88913" lon="1.80791">
        <ele>159.72</ele>
        <time>2026-05-23T06:34:37Z</time>
      </trkpt>
      <trkpt lat="43.88932" lon="1.80784">
        <ele>160.2</ele>
        <time>2026-05-23T06:34:53Z</time>
      </trkpt>
      <trkpt lat="43.88955" lon="1.8078">
        <ele>161.16</ele>
        <time>2026-05-23T06:35:11Z</time>
      </trkpt>
      <trkpt lat="43.88973" lon="1.8078">
        <ele>161.16</ele>
        <time>2026-05-23T06:35:26Z</time>
      </trkpt>
      <trkpt lat="43.88991" lon="1.80777">
        <ele>162.12</ele>
        <time>2026-05-23T06:35:40Z</time>
      </trkpt>
      <trkpt lat="43.89013" lon="1.80778">
        <ele>162.6</ele>
        <time>2026-05-23T06:35:58Z</time>
      </trkpt>
      <trkpt lat="43.89034" lon="1.80777">
        <ele>163.08</ele>
        <time>2026-05-23T06:36:14Z</time>
      </trkpt>
      <trkpt lat="43.89055" lon="1.80774">
        <ele>164.04</ele>
        <time>2026-05-23T06:36:31Z</time>
      </trkpt>
      <trkpt lat="43.89077" lon="1.80768">
        <ele>164.52</ele>
        <time>2026-05-23T06:36:48Z</time>
      </trkpt>
      <trkpt lat="43.89098" lon="1.80762">
        <ele>164.52</ele>
        <time>2026-05-23T06:37:05Z</time>
      </trkpt>
      <trkpt lat="43.89118" lon="1.80755">
        <ele>164.52</ele>
        <time>2026-05-23T06:37:21Z</time>
      </trkpt>
      <trkpt lat="43.89139" lon="1.80751">
        <ele>164.52</ele>
        <time>2026-05-23T06:37:37Z</time>
      </trkpt>
      <trkpt lat="43.89156" lon="1.80748">
        <ele>164.52</ele>
        <time>2026-05-23T06:37:53Z</time>
      </trkpt>
      <trkpt lat="43.89157" lon="1.80744">
        <ele>164.52</ele>
        <time>2026-05-23T06:38:06Z</time>
      </trkpt>
      <trkpt lat="43.89155" lon="1.80743">
        <ele>164.04</ele>
        <time>2026-05-23T06:38:29Z</time>
      </trkpt>
      <trkpt lat="43.89151" lon="1.8074">
        <ele>163.56</ele>
        <time>2026-05-23T06:38:43Z</time>
      </trkpt>
      <trkpt lat="43.89152" lon="1.80744">
        <ele>162.12</ele>
        <time>2026-05-23T06:38:57Z</time>
      </trkpt>
      <trkpt lat="43.89153" lon="1.8074">
        <ele>162.12</ele>
        <time>2026-05-23T06:39:22Z</time>
      </trkpt>
      <trkpt lat="43.89154" lon="1.80739">
        <ele>163.56</ele>
        <time>2026-05-23T06:39:28Z</time>
      </trkpt>
      <trkpt lat="43.89155" lon="1.80741">
        <ele>164.04</ele>
        <time>2026-05-23T06:39:32Z</time>
      </trkpt>
      <trkpt lat="43.89157" lon="1.80744">
        <ele>164.04</ele>
        <time>2026-05-23T06:39:46Z</time>
      </trkpt>
      <trkpt lat="43.89156" lon="1.80742">
        <ele>164.04</ele>
        <time>2026-05-23T06:40:07Z</time>
      </trkpt>
      <trkpt lat="43.89155" lon="1.80743">
        <ele>164.04</ele>
        <time>2026-05-23T06:40:24Z</time>
      </trkpt>
      <trkpt lat="43.89156" lon="1.80742">
        <ele>160.68</ele>
        <time>2026-05-23T06:40:34Z</time>
      </trkpt>
      <trkpt lat="43.89156" lon="1.80742">
        <ele>166.45</ele>
        <time>2026-05-23T06:40:35Z</time>
      </trkpt>
      <trkpt lat="43.89156" lon="1.80742">
        <ele>165</ele>
        <time>2026-05-23T06:40:36Z</time>
      </trkpt>
      <trkpt lat="43.89155" lon="1.80747">
        <ele>164.04</ele>
        <time>2026-05-23T06:40:40Z</time>
      </trkpt>
      <trkpt lat="43.89172" lon="1.80752">
        <ele>163.56</ele>
        <time>2026-05-23T06:40:54Z</time>
      </trkpt>
      <trkpt lat="43.89188" lon="1.80756">
        <ele>164.04</ele>
        <time>2026-05-23T06:41:07Z</time>
      </trkpt>
      <trkpt lat="43.89204" lon="1.80758">
        <ele>164.04</ele>
        <time>2026-05-23T06:41:21Z</time>
      </trkpt>
      <trkpt lat="43.89221" lon="1.80753">
        <ele>165</ele>
        <time>2026-05-23T06:41:35Z</time>
      </trkpt>
      <trkpt lat="43.89222" lon="1.80752">
        <ele>165</ele>
        <time>2026-05-23T06:41:36Z</time>
      </trkpt>
      <trkpt lat="43.89238" lon="1.80739">
        <ele>165.48</ele>
        <time>2026-05-23T06:41:51Z</time>
      </trkpt>
      <trkpt lat="43.89251" lon="1.80736">
        <ele>166.45</ele>
        <time>2026-05-23T06:42:03Z</time>
      </trkpt>
      <trkpt lat="43.89273" lon="1.80734">
        <ele>166.93</ele>
        <time>2026-05-23T06:42:20Z</time>
      </trkpt>
      <trkpt lat="43.89287" lon="1.80732">
        <ele>168.37</ele>
        <time>2026-05-23T06:42:34Z</time>
      </trkpt>
      <trkpt lat="43.89303" lon="1.80729">
        <ele>169.33</ele>
        <time>2026-05-23T06:42:48Z</time>
      </trkpt>
      <trkpt lat="43.89323" lon="1.80726">
        <ele>170.29</ele>
        <time>2026-05-23T06:43:04Z</time>
      </trkpt>
      <trkpt lat="43.89333" lon="1.80724">
        <ele>171.25</ele>
        <time>2026-05-23T06:43:13Z</time>
      </trkpt>
      <trkpt lat="43.89337" lon="1.80717">
        <ele>171.73</ele>
        <time>2026-05-23T06:43:26Z</time>
      </trkpt>
      <trkpt lat="43.89338" lon="1.80715">
        <ele>172.69</ele>
        <time>2026-05-23T06:43:41Z</time>
      </trkpt>
      <trkpt lat="43.89335" lon="1.80696">
        <ele>172.69</ele>
        <time>2026-05-23T06:43:54Z</time>
      </trkpt>
      <trkpt lat="43.89333" lon="1.80688">
        <ele>173.17</ele>
        <time>2026-05-23T06:43:59Z</time>
      </trkpt>
      <trkpt lat="43.8933" lon="1.80669">
        <ele>173.66</ele>
        <time>2026-05-23T06:44:12Z</time>
      </trkpt>
      <trkpt lat="43.89328" lon="1.8065">
        <ele>174.62</ele>
        <time>2026-05-23T06:44:25Z</time>
      </trkpt>
      <trkpt lat="43.89329" lon="1.80633">
        <ele>176.06</ele>
        <time>2026-05-23T06:44:38Z</time>
      </trkpt>
      <trkpt lat="43.89329" lon="1.80632">
        <ele>176.06</ele>
        <time>2026-05-23T06:44:39Z</time>
      </trkpt>
      <trkpt lat="43.89332" lon="1.80625">
        <ele>177.5</ele>
        <time>2026-05-23T06:44:45Z</time>
      </trkpt>
      <trkpt lat="43.89336" lon="1.80619">
        <ele>178.94</ele>
        <time>2026-05-23T06:44:52Z</time>
      </trkpt>
      <trkpt lat="43.89348" lon="1.80611">
        <ele>179.9</ele>
        <time>2026-05-23T06:45:05Z</time>
      </trkpt>
      <trkpt lat="43.89359" lon="1.806">
        <ele>180.38</ele>
        <time>2026-05-23T06:45:18Z</time>
      </trkpt>
      <trkpt lat="43.8936" lon="1.80598">
        <ele>181.35</ele>
        <time>2026-05-23T06:45:20Z</time>
      </trkpt>
      <trkpt lat="43.89362" lon="1.80593">
        <ele>181.35</ele>
        <time>2026-05-23T06:45:23Z</time>
      </trkpt>
      <trkpt lat="43.89362" lon="1.80589">
        <ele>181.83</ele>
        <time>2026-05-23T06:45:26Z</time>
      </trkpt>
      <trkpt lat="43.8936" lon="1.80582">
        <ele>182.31</ele>
        <time>2026-05-23T06:45:31Z</time>
      </trkpt>
      <trkpt lat="43.89354" lon="1.80565">
        <ele>183.75</ele>
        <time>2026-05-23T06:45:44Z</time>
      </trkpt>
      <trkpt lat="43.89351" lon="1.80555">
        <ele>184.23</ele>
        <time>2026-05-23T06:45:53Z</time>
      </trkpt>
      <trkpt lat="43.89351" lon="1.80551">
        <ele>184.71</ele>
        <time>2026-05-23T06:45:56Z</time>
      </trkpt>
      <trkpt lat="43.89345" lon="1.8054">
        <ele>186.63</ele>
        <time>2026-05-23T06:46:09Z</time>
      </trkpt>
      <trkpt lat="43.89343" lon="1.80534">
        <ele>188.08</ele>
        <time>2026-05-23T06:46:16Z</time>
      </trkpt>
      <trkpt lat="43.89342" lon="1.80531">
        <ele>188.56</ele>
        <time>2026-05-23T06:46:20Z</time>
      </trkpt>
      <trkpt lat="43.89338" lon="1.80523">
        <ele>190</ele>
        <time>2026-05-23T06:46:29Z</time>
      </trkpt>
      <trkpt lat="43.89334" lon="1.80508">
        <ele>192.4</ele>
        <time>2026-05-23T06:46:42Z</time>
      </trkpt>
      <trkpt lat="43.8933" lon="1.80496">
        <ele>194.32</ele>
        <time>2026-05-23T06:46:54Z</time>
      </trkpt>
      <trkpt lat="43.89327" lon="1.80483">
        <ele>196.25</ele>
        <time>2026-05-23T06:47:05Z</time>
      </trkpt>
      <trkpt lat="43.89323" lon="1.80474">
        <ele>197.69</ele>
        <time>2026-05-23T06:47:17Z</time>
      </trkpt>
      <trkpt lat="43.89319" lon="1.80464">
        <ele>200.09</ele>
        <time>2026-05-23T06:47:28Z</time>
      </trkpt>
      <trkpt lat="43.89315" lon="1.80457">
        <ele>202.01</ele>
        <time>2026-05-23T06:47:38Z</time>
      </trkpt>
      <trkpt lat="43.89312" lon="1.80448">
        <ele>203.46</ele>
        <time>2026-05-23T06:47:50Z</time>
      </trkpt>
      <trkpt lat="43.89312" lon="1.80448">
        <ele>203.94</ele>
        <time>2026-05-23T06:47:53Z</time>
      </trkpt>
      <trkpt lat="43.8931" lon="1.80446">
        <ele>203.94</ele>
        <time>2026-05-23T06:47:56Z</time>
      </trkpt>
      <trkpt lat="43.89306" lon="1.80433">
        <ele>205.86</ele>
        <time>2026-05-23T06:48:08Z</time>
      </trkpt>
      <trkpt lat="43.89303" lon="1.80422">
        <ele>208.26</ele>
        <time>2026-05-23T06:48:20Z</time>
      </trkpt>
      <trkpt lat="43.893" lon="1.80414">
        <ele>210.19</ele>
        <time>2026-05-23T06:48:31Z</time>
      </trkpt>
      <trkpt lat="43.893" lon="1.80414">
        <ele>210.19</ele>
        <time>2026-05-23T06:48:32Z</time>
      </trkpt>
      <trkpt lat="43.89301" lon="1.8041">
        <ele>211.15</ele>
        <time>2026-05-23T06:48:36Z</time>
      </trkpt>
      <trkpt lat="43.89303" lon="1.80405">
        <ele>212.11</ele>
        <time>2026-05-23T06:48:49Z</time>
      </trkpt>
      <trkpt lat="43.89301" lon="1.80406">
        <ele>213.07</ele>
        <time>2026-05-23T06:49:21Z</time>
      </trkpt>
      <trkpt lat="43.89303" lon="1.80407">
        <ele>212.11</ele>
        <time>2026-05-23T06:49:47Z</time>
      </trkpt>
      <trkpt lat="43.89304" lon="1.80406">
        <ele>212.11</ele>
        <time>2026-05-23T06:49:49Z</time>
      </trkpt>
      <trkpt lat="43.89313" lon="1.80392">
        <ele>213.55</ele>
        <time>2026-05-23T06:50:02Z</time>
      </trkpt>
      <trkpt lat="43.89313" lon="1.80392">
        <ele>213.55</ele>
        <time>2026-05-23T06:50:03Z</time>
      </trkpt>
      <trkpt lat="43.89319" lon="1.80378">
        <ele>214.99</ele>
        <time>2026-05-23T06:50:14Z</time>
      </trkpt>
      <trkpt lat="43.89324" lon="1.80369">
        <ele>215.47</ele>
        <time>2026-05-23T06:50:22Z</time>
      </trkpt>
      <trkpt lat="43.8933" lon="1.80359">
        <ele>215.95</ele>
        <time>2026-05-23T06:50:32Z</time>
      </trkpt>
      <trkpt lat="43.89333" lon="1.80353">
        <ele>216.91</ele>
        <time>2026-05-23T06:50:37Z</time>
      </trkpt>
      <trkpt lat="43.89341" lon="1.80342">
        <ele>218.36</ele>
        <time>2026-05-23T06:50:50Z</time>
      </trkpt>
      <trkpt lat="43.89346" lon="1.80336">
        <ele>219.32</ele>
        <time>2026-05-23T06:50:58Z</time>
      </trkpt>
      <trkpt lat="43.89354" lon="1.80322">
        <ele>220.28</ele>
        <time>2026-05-23T06:51:10Z</time>
      </trkpt>
      <trkpt lat="43.89366" lon="1.80307">
        <ele>222.68</ele>
        <time>2026-05-23T06:51:27Z</time>
      </trkpt>
      <trkpt lat="43.89375" lon="1.80295">
        <ele>224.61</ele>
        <time>2026-05-23T06:51:42Z</time>
      </trkpt>
      <trkpt lat="43.89372" lon="1.80291">
        <ele>225.09</ele>
        <time>2026-05-23T06:51:46Z</time>
      </trkpt>
      <trkpt lat="43.89365" lon="1.80293">
        <ele>225.57</ele>
        <time>2026-05-23T06:51:52Z</time>
      </trkpt>
      <trkpt lat="43.89359" lon="1.80296">
        <ele>226.05</ele>
        <time>2026-05-23T06:51:58Z</time>
      </trkpt>
      <trkpt lat="43.89352" lon="1.80304">
        <ele>226.53</ele>
        <time>2026-05-23T06:52:11Z</time>
      </trkpt>
      <trkpt lat="43.89349" lon="1.80306">
        <ele>226.53</ele>
        <time>2026-05-23T06:52:14Z</time>
      </trkpt>
      <trkpt lat="43.89342" lon="1.80308">
        <ele>227.01</ele>
        <time>2026-05-23T06:52:20Z</time>
      </trkpt>
      <trkpt lat="43.89331" lon="1.80316">
        <ele>227.97</ele>
        <time>2026-05-23T06:52:32Z</time>
      </trkpt>
      <trkpt lat="43.89329" lon="1.80317">
        <ele>228.93</ele>
        <time>2026-05-23T06:52:34Z</time>
      </trkpt>
      <trkpt lat="43.8932" lon="1.80321">
        <ele>229.89</ele>
        <time>2026-05-23T06:52:43Z</time>
      </trkpt>
      <trkpt lat="43.89306" lon="1.80323">
        <ele>230.85</ele>
        <time>2026-05-23T06:52:57Z</time>
      </trkpt>
      <trkpt lat="43.89301" lon="1.80327">
        <ele>230.85</ele>
        <time>2026-05-23T06:53:01Z</time>
      </trkpt>
      <trkpt lat="43.89295" lon="1.80326">
        <ele>231.81</ele>
        <time>2026-05-23T06:53:07Z</time>
      </trkpt>
      <trkpt lat="43.89291" lon="1.80309">
        <ele>233.74</ele>
        <time>2026-05-23T06:53:21Z</time>
      </trkpt>
      <trkpt lat="43.89293" lon="1.80304">
        <ele>233.74</ele>
        <time>2026-05-23T06:53:26Z</time>
      </trkpt>
      <trkpt lat="43.89295" lon="1.80301">
        <ele>234.22</ele>
        <time>2026-05-23T06:53:43Z</time>
      </trkpt>
      <trkpt lat="43.89294" lon="1.80301">
        <ele>235.18</ele>
        <time>2026-05-23T06:53:56Z</time>
      </trkpt>
      <trkpt lat="43.89293" lon="1.80301">
        <ele>235.18</ele>
        <time>2026-05-23T06:54:03Z</time>
      </trkpt>
      <trkpt lat="43.89291" lon="1.80295">
        <ele>234.22</ele>
        <time>2026-05-23T06:54:07Z</time>
      </trkpt>
      <trkpt lat="43.8929" lon="1.80281">
        <ele>233.26</ele>
        <time>2026-05-23T06:54:17Z</time>
      </trkpt>
      <trkpt lat="43.89289" lon="1.80268">
        <ele>232.3</ele>
        <time>2026-05-23T06:54:25Z</time>
      </trkpt>
      <trkpt lat="43.89287" lon="1.80263">
        <ele>231.81</ele>
        <time>2026-05-23T06:54:37Z</time>
      </trkpt>
      <trkpt lat="43.89286" lon="1.80267">
        <ele>231.81</ele>
        <time>2026-05-23T06:54:42Z</time>
      </trkpt>
      <trkpt lat="43.89285" lon="1.80277">
        <ele>231.81</ele>
        <time>2026-05-23T06:54:49Z</time>
      </trkpt>
      <trkpt lat="43.89281" lon="1.80261">
        <ele>228.45</ele>
        <time>2026-05-23T06:55:03Z</time>
      </trkpt>
      <trkpt lat="43.89278" lon="1.80247">
        <ele>225.57</ele>
        <time>2026-05-23T06:55:14Z</time>
      </trkpt>
      <trkpt lat="43.89276" lon="1.80242">
        <ele>224.12</ele>
        <time>2026-05-23T06:55:18Z</time>
      </trkpt>
      <trkpt lat="43.89271" lon="1.80235">
        <ele>222.2</ele>
        <time>2026-05-23T06:55:24Z</time>
      </trkpt>
      <trkpt lat="43.89261" lon="1.80214">
        <ele>218.84</ele>
        <time>2026-05-23T06:55:38Z</time>
      </trkpt>
      <trkpt lat="43.8925" lon="1.80197">
        <ele>215.95</ele>
        <time>2026-05-23T06:55:51Z</time>
      </trkpt>
      <trkpt lat="43.89244" lon="1.8019">
        <ele>215.47</ele>
        <time>2026-05-23T06:55:58Z</time>
      </trkpt>
      <trkpt lat="43.89245" lon="1.80181">
        <ele>214.99</ele>
        <time>2026-05-23T06:56:10Z</time>
      </trkpt>
      <trkpt lat="43.89244" lon="1.80175">
        <ele>214.99</ele>
        <time>2026-05-23T06:56:29Z</time>
      </trkpt>
      <trkpt lat="43.89243" lon="1.80174">
        <ele>214.99</ele>
        <time>2026-05-23T06:56:53Z</time>
      </trkpt>
      <trkpt lat="43.89243" lon="1.80174">
        <ele>214.99</ele>
        <time>2026-05-23T06:57:13Z</time>
      </trkpt>
      <trkpt lat="43.89246" lon="1.80173">
        <ele>214.51</ele>
        <time>2026-05-23T06:57:54Z</time>
      </trkpt>
      <trkpt lat="43.89242" lon="1.80174">
        <ele>214.51</ele>
        <time>2026-05-23T06:58:25Z</time>
      </trkpt>
      <trkpt lat="43.89243" lon="1.80175">
        <ele>214.51</ele>
        <time>2026-05-23T06:59:08Z</time>
      </trkpt>
      <trkpt lat="43.89243" lon="1.80174">
        <ele>214.51</ele>
        <time>2026-05-23T06:59:36Z</time>
      </trkpt>
      <trkpt lat="43.89244" lon="1.80175">
        <ele>214.51</ele>
        <time>2026-05-23T07:00:06Z</time>
      </trkpt>
      <trkpt lat="43.89242" lon="1.80175">
        <ele>214.51</ele>
        <time>2026-05-23T07:00:50Z</time>
      </trkpt>
      <trkpt lat="43.89242" lon="1.80176">
        <ele>214.51</ele>
        <time>2026-05-23T07:01:31Z</time>
      </trkpt>
      <trkpt lat="43.89241" lon="1.80175">
        <ele>214.51</ele>
        <time>2026-05-23T07:02:11Z</time>
      </trkpt>
      <trkpt lat="43.89241" lon="1.80174">
        <ele>214.51</ele>
        <time>2026-05-23T07:02:42Z</time>
      </trkpt>
      <trkpt lat="43.89241" lon="1.80175">
        <ele>214.51</ele>
        <time>2026-05-23T07:03:08Z</time>
      </trkpt>
      <trkpt lat="43.89243" lon="1.80173">
        <ele>214.51</ele>
        <time>2026-05-23T07:03:49Z</time>
      </trkpt>
      <trkpt lat="43.89244" lon="1.80172">
        <ele>214.51</ele>
        <time>2026-05-23T07:04:25Z</time>
      </trkpt>
      <trkpt lat="43.89244" lon="1.80175">
        <ele>214.51</ele>
        <time>2026-05-23T07:04:50Z</time>
      </trkpt>
      <trkpt lat="43.89243" lon="1.80175">
        <ele>214.51</ele>
        <time>2026-05-23T07:05:29Z</time>
      </trkpt>
      <trkpt lat="43.89242" lon="1.80175">
        <ele>214.51</ele>
        <time>2026-05-23T07:06:13Z</time>
      </trkpt>
      <trkpt lat="43.89242" lon="1.80172">
        <ele>214.51</ele>
        <time>2026-05-23T07:06:58Z</time>
      </trkpt>
      <trkpt lat="43.89243" lon="1.80172">
        <ele>214.51</ele>
        <time>2026-05-23T07:07:37Z</time>
      </trkpt>
      <trkpt lat="43.89242" lon="1.8017">
        <ele>214.03</ele>
        <time>2026-05-23T07:07:57Z</time>
      </trkpt>
      <trkpt lat="43.89238" lon="1.80167">
        <ele>214.03</ele>
        <time>2026-05-23T07:08:02Z</time>
      </trkpt>
      <trkpt lat="43.89226" lon="1.80145">
        <ele>212.59</ele>
        <time>2026-05-23T07:08:17Z</time>
      </trkpt>
      <trkpt lat="43.89214" lon="1.80134">
        <ele>211.63</ele>
        <time>2026-05-23T07:08:29Z</time>
      </trkpt>
      <trkpt lat="43.89202" lon="1.80121">
        <ele>211.63</ele>
        <time>2026-05-23T07:08:44Z</time>
      </trkpt>
      <trkpt lat="43.89202" lon="1.80122">
        <ele>211.63</ele>
        <time>2026-05-23T07:09:04Z</time>
      </trkpt>
      <trkpt lat="43.892" lon="1.80119">
        <ele>211.63</ele>
        <time>2026-05-23T07:09:16Z</time>
      </trkpt>
      <trkpt lat="43.8919" lon="1.80112">
        <ele>211.15</ele>
        <time>2026-05-23T07:09:31Z</time>
      </trkpt>
      <trkpt lat="43.8919" lon="1.80112">
        <ele>211.15</ele>
        <time>2026-05-23T07:09:41Z</time>
      </trkpt>
      <trkpt lat="43.89169" lon="1.80115">
        <ele>211.15</ele>
        <time>2026-05-23T07:09:56Z</time>
      </trkpt>
      <trkpt lat="43.89151" lon="1.80121">
        <ele>210.67</ele>
        <time>2026-05-23T07:10:11Z</time>
      </trkpt>
      <trkpt lat="43.89133" lon="1.80122">
        <ele>210.67</ele>
        <time>2026-05-23T07:10:26Z</time>
      </trkpt>
      <trkpt lat="43.89129" lon="1.80123">
        <ele>210.67</ele>
        <time>2026-05-23T07:10:35Z</time>
      </trkpt>
      <trkpt lat="43.89124" lon="1.80123">
        <ele>210.67</ele>
        <time>2026-05-23T07:10:39Z</time>
      </trkpt>
      <trkpt lat="43.89102" lon="1.80128">
        <ele>210.67</ele>
        <time>2026-05-23T07:10:55Z</time>
      </trkpt>
      <trkpt lat="43.89084" lon="1.80129">
        <ele>210.67</ele>
        <time>2026-05-23T07:11:09Z</time>
      </trkpt>
      <trkpt lat="43.89077" lon="1.80128">
        <ele>210.19</ele>
        <time>2026-05-23T07:11:22Z</time>
      </trkpt>
      <trkpt lat="43.89077" lon="1.80128">
        <ele>210.19</ele>
        <time>2026-05-23T07:11:41Z</time>
      </trkpt>
      <trkpt lat="43.89074" lon="1.80127">
        <ele>210.19</ele>
        <time>2026-05-23T07:11:44Z</time>
      </trkpt>
      <trkpt lat="43.89057" lon="1.80118">
        <ele>207.78</ele>
        <time>2026-05-23T07:11:59Z</time>
      </trkpt>
      <trkpt lat="43.89044" lon="1.80113">
        <ele>206.34</ele>
        <time>2026-05-23T07:12:10Z</time>
      </trkpt>
      <trkpt lat="43.89023" lon="1.80101">
        <ele>203.46</ele>
        <time>2026-05-23T07:12:26Z</time>
      </trkpt>
      <trkpt lat="43.89016" lon="1.80099">
        <ele>202.98</ele>
        <time>2026-05-23T07:12:31Z</time>
      </trkpt>
      <trkpt lat="43.89002" lon="1.80109">
        <ele>200.57</ele>
        <time>2026-05-23T07:12:43Z</time>
      </trkpt>
      <trkpt lat="43.8899" lon="1.80125">
        <ele>198.17</ele>
        <time>2026-05-23T07:12:56Z</time>
      </trkpt>
      <trkpt lat="43.88979" lon="1.80137">
        <ele>195.28</ele>
        <time>2026-05-23T07:13:07Z</time>
      </trkpt>
      <trkpt lat="43.88962" lon="1.80158">
        <ele>192.4</ele>
        <time>2026-05-23T07:13:24Z</time>
      </trkpt>
      <trkpt lat="43.88948" lon="1.80174">
        <ele>190</ele>
        <time>2026-05-23T07:13:37Z</time>
      </trkpt>
      <trkpt lat="43.88935" lon="1.80191">
        <ele>187.11</ele>
        <time>2026-05-23T07:13:52Z</time>
      </trkpt>
      <trkpt lat="43.88934" lon="1.80192">
        <ele>187.11</ele>
        <time>2026-05-23T07:13:53Z</time>
      </trkpt>
      <trkpt lat="43.88918" lon="1.80213">
        <ele>184.71</ele>
        <time>2026-05-23T07:14:09Z</time>
      </trkpt>
      <trkpt lat="43.88906" lon="1.80232">
        <ele>182.79</ele>
        <time>2026-05-23T07:14:23Z</time>
      </trkpt>
      <trkpt lat="43.88892" lon="1.8025">
        <ele>179.9</ele>
        <time>2026-05-23T07:14:39Z</time>
      </trkpt>
      <trkpt lat="43.88888" lon="1.80254">
        <ele>179.42</ele>
        <time>2026-05-23T07:14:42Z</time>
      </trkpt>
      <trkpt lat="43.88885" lon="1.80259">
        <ele>178.46</ele>
        <time>2026-05-23T07:14:46Z</time>
      </trkpt>
      <trkpt lat="43.88867" lon="1.80278">
        <ele>176.06</ele>
        <time>2026-05-23T07:15:02Z</time>
      </trkpt>
      <trkpt lat="43.88854" lon="1.80293">
        <ele>173.66</ele>
        <time>2026-05-23T07:15:15Z</time>
      </trkpt>
      <trkpt lat="43.88841" lon="1.80296">
        <ele>171.73</ele>
        <time>2026-05-23T07:15:27Z</time>
      </trkpt>
      <trkpt lat="43.8882" lon="1.80287">
        <ele>169.33</ele>
        <time>2026-05-23T07:15:43Z</time>
      </trkpt>
      <trkpt lat="43.88804" lon="1.80276">
        <ele>167.41</ele>
        <time>2026-05-23T07:15:57Z</time>
      </trkpt>
      <trkpt lat="43.88787" lon="1.80263">
        <ele>165.48</ele>
        <time>2026-05-23T07:16:11Z</time>
      </trkpt>
      <trkpt lat="43.8877" lon="1.80248">
        <ele>164.04</ele>
        <time>2026-05-23T07:16:25Z</time>
      </trkpt>
      <trkpt lat="43.88756" lon="1.80235">
        <ele>162.6</ele>
        <time>2026-05-23T07:16:39Z</time>
      </trkpt>
      <trkpt lat="43.88742" lon="1.80222">
        <ele>161.64</ele>
        <time>2026-05-23T07:16:52Z</time>
      </trkpt>
      <trkpt lat="43.88726" lon="1.8021">
        <ele>160.68</ele>
        <time>2026-05-23T07:17:05Z</time>
      </trkpt>
      <trkpt lat="43.88709" lon="1.802">
        <ele>159.72</ele>
        <time>2026-05-23T07:17:20Z</time>
      </trkpt>
      <trkpt lat="43.88693" lon="1.8019">
        <ele>159.72</ele>
        <time>2026-05-23T07:17:35Z</time>
      </trkpt>
      <trkpt lat="43.88679" lon="1.80171">
        <ele>159.72</ele>
        <time>2026-05-23T07:17:52Z</time>
      </trkpt>
      <trkpt lat="43.88662" lon="1.80146">
        <ele>159.72</ele>
        <time>2026-05-23T07:18:10Z</time>
      </trkpt>
      <trkpt lat="43.88646" lon="1.80128">
        <ele>159.24</ele>
        <time>2026-05-23T07:18:24Z</time>
      </trkpt>
      <trkpt lat="43.88624" lon="1.80122">
        <ele>158.27</ele>
        <time>2026-05-23T07:18:39Z</time>
      </trkpt>
      <trkpt lat="43.88604" lon="1.80113">
        <ele>157.79</ele>
        <time>2026-05-23T07:18:54Z</time>
      </trkpt>
      <trkpt lat="43.88586" lon="1.80109">
        <ele>156.83</ele>
        <time>2026-05-23T07:19:09Z</time>
      </trkpt>
      <trkpt lat="43.88568" lon="1.80103">
        <ele>156.35</ele>
        <time>2026-05-23T07:19:24Z</time>
      </trkpt>
      <trkpt lat="43.88546" lon="1.80097">
        <ele>155.87</ele>
        <time>2026-05-23T07:19:40Z</time>
      </trkpt>
      <trkpt lat="43.88527" lon="1.80093">
        <ele>155.87</ele>
        <time>2026-05-23T07:19:54Z</time>
      </trkpt>
      <trkpt lat="43.88509" lon="1.80089">
        <ele>155.39</ele>
        <time>2026-05-23T07:20:08Z</time>
      </trkpt>
      <trkpt lat="43.88489" lon="1.80086">
        <ele>155.39</ele>
        <time>2026-05-23T07:20:23Z</time>
      </trkpt>
      <trkpt lat="43.88471" lon="1.80086">
        <ele>154.91</ele>
        <time>2026-05-23T07:20:36Z</time>
      </trkpt>
      <trkpt lat="43.88454" lon="1.80087">
        <ele>154.91</ele>
        <time>2026-05-23T07:20:49Z</time>
      </trkpt>
      <trkpt lat="43.88436" lon="1.80091">
        <ele>153.95</ele>
        <time>2026-05-23T07:21:02Z</time>
      </trkpt>
      <trkpt lat="43.88418" lon="1.80104">
        <ele>153.47</ele>
        <time>2026-05-23T07:21:17Z</time>
      </trkpt>
      <trkpt lat="43.88398" lon="1.80117">
        <ele>152.99</ele>
        <time>2026-05-23T07:21:33Z</time>
      </trkpt>
      <trkpt lat="43.88375" lon="1.8013">
        <ele>152.51</ele>
        <time>2026-05-23T07:21:51Z</time>
      </trkpt>
      <trkpt lat="43.88357" lon="1.8014">
        <ele>152.99</ele>
        <time>2026-05-23T07:22:05Z</time>
      </trkpt>
      <trkpt lat="43.8834" lon="1.80152">
        <ele>152.51</ele>
        <time>2026-05-23T07:22:20Z</time>
      </trkpt>
      <trkpt lat="43.88322" lon="1.80163">
        <ele>152.51</ele>
        <time>2026-05-23T07:22:35Z</time>
      </trkpt>
      <trkpt lat="43.88304" lon="1.80177">
        <ele>152.51</ele>
        <time>2026-05-23T07:22:51Z</time>
      </trkpt>
      <trkpt lat="43.88297" lon="1.80183">
        <ele>152.51</ele>
        <time>2026-05-23T07:22:58Z</time>
      </trkpt>
      <trkpt lat="43.88276" lon="1.80193">
        <ele>152.03</ele>
        <time>2026-05-23T07:23:15Z</time>
      </trkpt>
      <trkpt lat="43.88259" lon="1.80201">
        <ele>151.54</ele>
        <time>2026-05-23T07:23:28Z</time>
      </trkpt>
      <trkpt lat="43.88255" lon="1.80204">
        <ele>151.54</ele>
        <time>2026-05-23T07:23:33Z</time>
      </trkpt>
      <trkpt lat="43.88239" lon="1.80213">
        <ele>151.06</ele>
        <time>2026-05-23T07:23:46Z</time>
      </trkpt>
      <trkpt lat="43.8822" lon="1.80223">
        <ele>150.58</ele>
        <time>2026-05-23T07:24:01Z</time>
      </trkpt>
      <trkpt lat="43.88203" lon="1.80232">
        <ele>150.1</ele>
        <time>2026-05-23T07:24:15Z</time>
      </trkpt>
      <trkpt lat="43.88184" lon="1.80242">
        <ele>149.62</ele>
        <time>2026-05-23T07:24:30Z</time>
      </trkpt>
      <trkpt lat="43.88166" lon="1.80252">
        <ele>149.14</ele>
        <time>2026-05-23T07:24:44Z</time>
      </trkpt>
      <trkpt lat="43.8815" lon="1.8026">
        <ele>149.14</ele>
        <time>2026-05-23T07:24:57Z</time>
      </trkpt>
      <trkpt lat="43.88131" lon="1.80269">
        <ele>149.14</ele>
        <time>2026-05-23T07:25:12Z</time>
      </trkpt>
      <trkpt lat="43.88114" lon="1.80277">
        <ele>148.66</ele>
        <time>2026-05-23T07:25:26Z</time>
      </trkpt>
      <trkpt lat="43.88098" lon="1.80286">
        <ele>148.66</ele>
        <time>2026-05-23T07:25:40Z</time>
      </trkpt>
      <trkpt lat="43.8808" lon="1.80297">
        <ele>148.18</ele>
        <time>2026-05-23T07:25:55Z</time>
      </trkpt>
      <trkpt lat="43.8807" lon="1.80297">
        <ele>147.22</ele>
        <time>2026-05-23T07:26:03Z</time>
      </trkpt>
      <trkpt lat="43.88066" lon="1.80288">
        <ele>147.22</ele>
        <time>2026-05-23T07:26:09Z</time>
      </trkpt>
      <trkpt lat="43.88057" lon="1.80258">
        <ele>146.74</ele>
        <time>2026-05-23T07:26:28Z</time>
      </trkpt>
      <trkpt lat="43.88049" lon="1.80235">
        <ele>146.26</ele>
        <time>2026-05-23T07:26:42Z</time>
      </trkpt>
      <trkpt lat="43.88045" lon="1.80222">
        <ele>146.26</ele>
        <time>2026-05-23T07:26:50Z</time>
      </trkpt>
      <trkpt lat="43.88027" lon="1.8022">
        <ele>145.78</ele>
        <time>2026-05-23T07:27:03Z</time>
      </trkpt>
      <trkpt lat="43.88007" lon="1.80225">
        <ele>145.78</ele>
        <time>2026-05-23T07:27:17Z</time>
      </trkpt>
      <trkpt lat="43.87985" lon="1.80233">
        <ele>145.3</ele>
        <time>2026-05-23T07:27:34Z</time>
      </trkpt>
      <trkpt lat="43.87963" lon="1.8024">
        <ele>145.3</ele>
        <time>2026-05-23T07:27:51Z</time>
      </trkpt>
      <trkpt lat="43.87942" lon="1.80249">
        <ele>144.34</ele>
        <time>2026-05-23T07:28:08Z</time>
      </trkpt>
      <trkpt lat="43.87918" lon="1.80258">
        <ele>144.34</ele>
        <time>2026-05-23T07:28:25Z</time>
      </trkpt>
      <trkpt lat="43.87897" lon="1.80269">
        <ele>143.85</ele>
        <time>2026-05-23T07:28:42Z</time>
      </trkpt>
      <trkpt lat="43.8788" lon="1.80278">
        <ele>143.37</ele>
        <time>2026-05-23T07:28:56Z</time>
      </trkpt>
      <trkpt lat="43.87866" lon="1.80287">
        <ele>142.89</ele>
        <time>2026-05-23T07:29:09Z</time>
      </trkpt>
      <trkpt lat="43.87846" lon="1.80297">
        <ele>142.89</ele>
        <time>2026-05-23T07:29:24Z</time>
      </trkpt>
      <trkpt lat="43.87831" lon="1.80306">
        <ele>142.89</ele>
        <time>2026-05-23T07:29:37Z</time>
      </trkpt>
      <trkpt lat="43.87809" lon="1.80315">
        <ele>142.89</ele>
        <time>2026-05-23T07:29:54Z</time>
      </trkpt>
      <trkpt lat="43.87789" lon="1.80324">
        <ele>141.93</ele>
        <time>2026-05-23T07:30:10Z</time>
      </trkpt>
      <trkpt lat="43.87768" lon="1.8033">
        <ele>141.93</ele>
        <time>2026-05-23T07:30:26Z</time>
      </trkpt>
      <trkpt lat="43.8775" lon="1.80335">
        <ele>141.45</ele>
        <time>2026-05-23T07:30:39Z</time>
      </trkpt>
      <trkpt lat="43.87731" lon="1.80344">
        <ele>140.97</ele>
        <time>2026-05-23T07:30:54Z</time>
      </trkpt>
      <trkpt lat="43.87711" lon="1.80354">
        <ele>140.97</ele>
        <time>2026-05-23T07:31:10Z</time>
      </trkpt>
      <trkpt lat="43.87693" lon="1.80362">
        <ele>140.49</ele>
        <time>2026-05-23T07:31:24Z</time>
      </trkpt>
      <trkpt lat="43.87671" lon="1.80372">
        <ele>140.49</ele>
        <time>2026-05-23T07:31:41Z</time>
      </trkpt>
      <trkpt lat="43.87653" lon="1.8038">
        <ele>140.49</ele>
        <time>2026-05-23T07:31:56Z</time>
      </trkpt>
      <trkpt lat="43.87633" lon="1.80388">
        <ele>140.01</ele>
        <time>2026-05-23T07:32:11Z</time>
      </trkpt>
      <trkpt lat="43.87614" lon="1.80398">
        <ele>140.01</ele>
        <time>2026-05-23T07:32:26Z</time>
      </trkpt>
      <trkpt lat="43.87599" lon="1.80405">
        <ele>140.01</ele>
        <time>2026-05-23T07:32:41Z</time>
      </trkpt>
      <trkpt lat="43.87581" lon="1.80413">
        <ele>140.01</ele>
        <time>2026-05-23T07:32:56Z</time>
      </trkpt>
      <trkpt lat="43.87562" lon="1.80422">
        <ele>139.53</ele>
        <time>2026-05-23T07:33:12Z</time>
      </trkpt>
      <trkpt lat="43.87542" lon="1.80427">
        <ele>139.05</ele>
        <time>2026-05-23T07:33:27Z</time>
      </trkpt>
      <trkpt lat="43.87522" lon="1.80424">
        <ele>139.05</ele>
        <time>2026-05-23T07:33:42Z</time>
      </trkpt>
      <trkpt lat="43.87502" lon="1.80425">
        <ele>138.57</ele>
        <time>2026-05-23T07:33:57Z</time>
      </trkpt>
      <trkpt lat="43.8748" lon="1.8043">
        <ele>138.57</ele>
        <time>2026-05-23T07:34:14Z</time>
      </trkpt>
      <trkpt lat="43.8746" lon="1.80439">
        <ele>138.09</ele>
        <time>2026-05-23T07:34:30Z</time>
      </trkpt>
      <trkpt lat="43.8744" lon="1.8045">
        <ele>138.09</ele>
        <time>2026-05-23T07:34:46Z</time>
      </trkpt>
      <trkpt lat="43.8742" lon="1.8046">
        <ele>138.09</ele>
        <time>2026-05-23T07:35:02Z</time>
      </trkpt>
      <trkpt lat="43.87401" lon="1.8047">
        <ele>137.61</ele>
        <time>2026-05-23T07:35:18Z</time>
      </trkpt>
      <trkpt lat="43.87384" lon="1.80478">
        <ele>137.13</ele>
        <time>2026-05-23T07:35:32Z</time>
      </trkpt>
      <trkpt lat="43.87368" lon="1.80485">
        <ele>137.13</ele>
        <time>2026-05-23T07:35:46Z</time>
      </trkpt>
      <trkpt lat="43.87366" lon="1.80487">
        <ele>137.13</ele>
        <time>2026-05-23T07:35:59Z</time>
      </trkpt>
      <trkpt lat="43.87365" lon="1.80486">
        <ele>137.13</ele>
        <time>2026-05-23T07:36:01Z</time>
      </trkpt>
      <trkpt lat="43.87348" lon="1.80496">
        <ele>137.13</ele>
        <time>2026-05-23T07:36:16Z</time>
      </trkpt>
      <trkpt lat="43.87331" lon="1.80509">
        <ele>137.13</ele>
        <time>2026-05-23T07:36:31Z</time>
      </trkpt>
      <trkpt lat="43.87321" lon="1.8052">
        <ele>137.13</ele>
        <time>2026-05-23T07:36:42Z</time>
      </trkpt>
      <trkpt lat="43.87302" lon="1.80539">
        <ele>137.13</ele>
        <time>2026-05-23T07:36:59Z</time>
      </trkpt>
      <trkpt lat="43.87283" lon="1.80553">
        <ele>136.64</ele>
        <time>2026-05-23T07:37:15Z</time>
      </trkpt>
      <trkpt lat="43.87263" lon="1.80562">
        <ele>136.16</ele>
        <time>2026-05-23T07:37:31Z</time>
      </trkpt>
      <trkpt lat="43.87244" lon="1.80571">
        <ele>136.16</ele>
        <time>2026-05-23T07:37:47Z</time>
      </trkpt>
      <trkpt lat="43.87244" lon="1.80572">
        <ele>136.16</ele>
        <time>2026-05-23T07:37:57Z</time>
      </trkpt>
      <trkpt lat="43.87243" lon="1.80572">
        <ele>136.16</ele>
        <time>2026-05-23T07:38:15Z</time>
      </trkpt>
      <trkpt lat="43.87237" lon="1.80574">
        <ele>136.16</ele>
        <time>2026-05-23T07:38:20Z</time>
      </trkpt>
      <trkpt lat="43.87221" lon="1.80582">
        <ele>136.16</ele>
        <time>2026-05-23T07:38:35Z</time>
      </trkpt>
      <trkpt lat="43.87215" lon="1.80583">
        <ele>136.16</ele>
        <time>2026-05-23T07:38:39Z</time>
      </trkpt>
      <trkpt lat="43.87194" lon="1.8059">
        <ele>136.16</ele>
        <time>2026-05-23T07:38:56Z</time>
      </trkpt>
      <trkpt lat="43.87179" lon="1.80594">
        <ele>135.68</ele>
        <time>2026-05-23T07:39:08Z</time>
      </trkpt>
      <trkpt lat="43.87176" lon="1.80596">
        <ele>135.68</ele>
        <time>2026-05-23T07:39:25Z</time>
      </trkpt>
      <trkpt lat="43.87175" lon="1.80595">
        <ele>135.68</ele>
        <time>2026-05-23T07:39:52Z</time>
      </trkpt>
      <trkpt lat="43.87175" lon="1.80595">
        <ele>136.16</ele>
        <time>2026-05-23T07:40:39Z</time>
      </trkpt>
      <trkpt lat="43.87157" lon="1.8059">
        <ele>136.16</ele>
        <time>2026-05-23T07:40:54Z</time>
      </trkpt>
      <trkpt lat="43.87139" lon="1.80579">
        <ele>136.16</ele>
        <time>2026-05-23T07:41:09Z</time>
      </trkpt>
      <trkpt lat="43.87118" lon="1.80572">
        <ele>136.16</ele>
        <time>2026-05-23T07:41:26Z</time>
      </trkpt>
      <trkpt lat="43.87099" lon="1.80581">
        <ele>134.72</ele>
        <time>2026-05-23T07:41:42Z</time>
      </trkpt>
      <trkpt lat="43.8708" lon="1.80594">
        <ele>134.72</ele>
        <time>2026-05-23T07:41:58Z</time>
      </trkpt>
      <trkpt lat="43.87064" lon="1.80605">
        <ele>134.72</ele>
        <time>2026-05-23T07:42:12Z</time>
      </trkpt>
      <trkpt lat="43.87046" lon="1.80615">
        <ele>134.72</ele>
        <time>2026-05-23T07:42:27Z</time>
      </trkpt>
      <trkpt lat="43.87027" lon="1.80628">
        <ele>134.72</ele>
        <time>2026-05-23T07:42:43Z</time>
      </trkpt>
      <trkpt lat="43.87007" lon="1.80641">
        <ele>134.24</ele>
        <time>2026-05-23T07:43:00Z</time>
      </trkpt>
      <trkpt lat="43.86986" lon="1.80653">
        <ele>134.24</ele>
        <time>2026-05-23T07:43:17Z</time>
      </trkpt>
      <trkpt lat="43.86966" lon="1.80668">
        <ele>133.76</ele>
        <time>2026-05-23T07:43:34Z</time>
      </trkpt>
      <trkpt lat="43.8695" lon="1.8068">
        <ele>133.76</ele>
        <time>2026-05-23T07:43:48Z</time>
      </trkpt>
      <trkpt lat="43.86931" lon="1.80693">
        <ele>133.76</ele>
        <time>2026-05-23T07:44:04Z</time>
      </trkpt>
      <trkpt lat="43.86914" lon="1.80703">
        <ele>133.76</ele>
        <time>2026-05-23T07:44:18Z</time>
      </trkpt>
      <trkpt lat="43.86896" lon="1.80716">
        <ele>133.76</ele>
        <time>2026-05-23T07:44:33Z</time>
      </trkpt>
      <trkpt lat="43.8688" lon="1.80725">
        <ele>133.76</ele>
        <time>2026-05-23T07:44:47Z</time>
      </trkpt>
      <trkpt lat="43.8688" lon="1.80727">
        <ele>133.76</ele>
        <time>2026-05-23T07:45:01Z</time>
      </trkpt>
      <trkpt lat="43.86872" lon="1.80731">
        <ele>133.76</ele>
        <time>2026-05-23T07:45:25Z</time>
      </trkpt>
      <trkpt lat="43.86856" lon="1.80742">
        <ele>133.76</ele>
        <time>2026-05-23T07:45:38Z</time>
      </trkpt>
      <trkpt lat="43.86839" lon="1.80749">
        <ele>133.76</ele>
        <time>2026-05-23T07:45:52Z</time>
      </trkpt>
      <trkpt lat="43.86819" lon="1.80754">
        <ele>133.76</ele>
        <time>2026-05-23T07:46:08Z</time>
      </trkpt>
      <trkpt lat="43.86802" lon="1.80744">
        <ele>133.28</ele>
        <time>2026-05-23T07:46:22Z</time>
      </trkpt>
      <trkpt lat="43.86794" lon="1.80735">
        <ele>133.28</ele>
        <time>2026-05-23T07:46:31Z</time>
      </trkpt>
      <trkpt lat="43.86776" lon="1.80735">
        <ele>133.28</ele>
        <time>2026-05-23T07:46:45Z</time>
      </trkpt>
      <trkpt lat="43.86764" lon="1.80747">
        <ele>133.28</ele>
        <time>2026-05-23T07:46:57Z</time>
      </trkpt>
      <trkpt lat="43.86754" lon="1.80761">
        <ele>133.28</ele>
        <time>2026-05-23T07:47:10Z</time>
      </trkpt>
      <trkpt lat="43.86754" lon="1.80763">
        <ele>132.8</ele>
        <time>2026-05-23T07:47:23Z</time>
      </trkpt>
      <trkpt lat="43.86741" lon="1.80781">
        <ele>132.8</ele>
        <time>2026-05-23T07:47:38Z</time>
      </trkpt>
      <trkpt lat="43.86735" lon="1.80789">
        <ele>132.8</ele>
        <time>2026-05-23T07:47:45Z</time>
      </trkpt>
      <trkpt lat="43.86728" lon="1.80799">
        <ele>132.8</ele>
        <time>2026-05-23T07:47:56Z</time>
      </trkpt>
      <trkpt lat="43.86712" lon="1.80821">
        <ele>132.8</ele>
        <time>2026-05-23T07:48:13Z</time>
      </trkpt>
      <trkpt lat="43.86697" lon="1.80837">
        <ele>132.8</ele>
        <time>2026-05-23T07:48:27Z</time>
      </trkpt>
      <trkpt lat="43.86691" lon="1.80843">
        <ele>132.8</ele>
        <time>2026-05-23T07:48:33Z</time>
      </trkpt>
      <trkpt lat="43.86688" lon="1.80845">
        <ele>132.8</ele>
        <time>2026-05-23T07:48:38Z</time>
      </trkpt>
      <trkpt lat="43.86697" lon="1.80856">
        <ele>132.32</ele>
        <time>2026-05-23T07:48:47Z</time>
      </trkpt>
      <trkpt lat="43.86712" lon="1.80871">
        <ele>132.32</ele>
        <time>2026-05-23T07:49:02Z</time>
      </trkpt>
      <trkpt lat="43.86731" lon="1.80887">
        <ele>132.32</ele>
        <time>2026-05-23T07:49:18Z</time>
      </trkpt>
      <trkpt lat="43.86748" lon="1.80899">
        <ele>132.32</ele>
        <time>2026-05-23T07:49:32Z</time>
      </trkpt>
      <trkpt lat="43.86764" lon="1.80906">
        <ele>132.32</ele>
        <time>2026-05-23T07:49:45Z</time>
      </trkpt>
      <trkpt lat="43.86777" lon="1.80926">
        <ele>133.28</ele>
        <time>2026-05-23T07:50:00Z</time>
      </trkpt>
      <trkpt lat="43.86786" lon="1.80937">
        <ele>133.28</ele>
        <time>2026-05-23T07:50:11Z</time>
      </trkpt>
      <trkpt lat="43.86802" lon="1.80955">
        <ele>133.28</ele>
        <time>2026-05-23T07:50:27Z</time>
      </trkpt>
      <trkpt lat="43.86817" lon="1.8097">
        <ele>133.28</ele>
        <time>2026-05-23T07:50:41Z</time>
      </trkpt>
      <trkpt lat="43.86832" lon="1.80984">
        <ele>133.28</ele>
        <time>2026-05-23T07:50:55Z</time>
      </trkpt>
      <trkpt lat="43.86846" lon="1.80998">
        <ele>133.28</ele>
        <time>2026-05-23T07:51:09Z</time>
      </trkpt>
      <trkpt lat="43.86861" lon="1.81011">
        <ele>133.28</ele>
        <time>2026-05-23T07:51:23Z</time>
      </trkpt>
      <trkpt lat="43.8688" lon="1.81024">
        <ele>134.24</ele>
        <time>2026-05-23T07:51:40Z</time>
      </trkpt>
      <trkpt lat="43.86897" lon="1.8103">
        <ele>134.24</ele>
        <time>2026-05-23T07:51:54Z</time>
      </trkpt>
      <trkpt lat="43.86908" lon="1.81032">
        <ele>134.24</ele>
        <time>2026-05-23T07:52:04Z</time>
      </trkpt>
      <trkpt lat="43.86906" lon="1.8103">
        <ele>133.28</ele>
        <time>2026-05-23T07:52:10Z</time>
      </trkpt>
      <trkpt lat="43.86924" lon="1.81038">
        <ele>132.8</ele>
        <time>2026-05-23T07:52:25Z</time>
      </trkpt>
      <trkpt lat="43.8694" lon="1.8105">
        <ele>132.8</ele>
        <time>2026-05-23T07:52:39Z</time>
      </trkpt>
      <trkpt lat="43.86955" lon="1.81065">
        <ele>133.28</ele>
        <time>2026-05-23T07:52:53Z</time>
      </trkpt>
      <trkpt lat="43.8697" lon="1.81079">
        <ele>133.28</ele>
        <time>2026-05-23T07:53:07Z</time>
      </trkpt>
      <trkpt lat="43.86984" lon="1.81091">
        <ele>133.28</ele>
        <time>2026-05-23T07:53:20Z</time>
      </trkpt>
      <trkpt lat="43.86998" lon="1.81107">
        <ele>133.28</ele>
        <time>2026-05-23T07:53:35Z</time>
      </trkpt>
      <trkpt lat="43.87012" lon="1.81123">
        <ele>133.28</ele>
        <time>2026-05-23T07:53:49Z</time>
      </trkpt>
      <trkpt lat="43.87028" lon="1.81141">
        <ele>133.28</ele>
        <time>2026-05-23T07:54:05Z</time>
      </trkpt>
      <trkpt lat="43.87041" lon="1.81158">
        <ele>133.28</ele>
        <time>2026-05-23T07:54:19Z</time>
      </trkpt>
      <trkpt lat="43.87054" lon="1.81176">
        <ele>133.28</ele>
        <time>2026-05-23T07:54:33Z</time>
      </trkpt>
      <trkpt lat="43.87066" lon="1.81197">
        <ele>133.28</ele>
        <time>2026-05-23T07:54:48Z</time>
      </trkpt>
      <trkpt lat="43.87069" lon="1.81203">
        <ele>133.28</ele>
        <time>2026-05-23T07:54:53Z</time>
      </trkpt>
      <trkpt lat="43.8707" lon="1.81208">
        <ele>134.72</ele>
        <time>2026-05-23T07:55:10Z</time>
      </trkpt>
      <trkpt lat="43.87067" lon="1.81211">
        <ele>134.72</ele>
        <time>2026-05-23T07:55:16Z</time>
      </trkpt>
      <trkpt lat="43.87051" lon="1.81229">
        <ele>134.72</ele>
        <time>2026-05-23T07:55:33Z</time>
      </trkpt>
      <trkpt lat="43.87036" lon="1.81242">
        <ele>134.72</ele>
        <time>2026-05-23T07:55:48Z</time>
      </trkpt>
      <trkpt lat="43.87019" lon="1.81255">
        <ele>134.72</ele>
        <time>2026-05-23T07:56:03Z</time>
      </trkpt>
      <trkpt lat="43.86998" lon="1.8127">
        <ele>134.72</ele>
        <time>2026-05-23T07:56:21Z</time>
      </trkpt>
      <trkpt lat="43.86981" lon="1.8128">
        <ele>134.72</ele>
        <time>2026-05-23T07:56:35Z</time>
      </trkpt>
      <trkpt lat="43.86966" lon="1.81291">
        <ele>134.72</ele>
        <time>2026-05-23T07:56:48Z</time>
      </trkpt>
      <trkpt lat="43.86953" lon="1.81305">
        <ele>134.72</ele>
        <time>2026-05-23T07:57:01Z</time>
      </trkpt>
      <trkpt lat="43.86941" lon="1.81322">
        <ele>134.72</ele>
        <time>2026-05-23T07:57:15Z</time>
      </trkpt>
      <trkpt lat="43.86927" lon="1.81338">
        <ele>134.72</ele>
        <time>2026-05-23T07:57:29Z</time>
      </trkpt>
      <trkpt lat="43.86913" lon="1.81352">
        <ele>134.72</ele>
        <time>2026-05-23T07:57:43Z</time>
      </trkpt>
      <trkpt lat="43.86897" lon="1.81366">
        <ele>134.72</ele>
        <time>2026-05-23T07:57:58Z</time>
      </trkpt>
      <trkpt lat="43.86882" lon="1.8138">
        <ele>134.72</ele>
        <time>2026-05-23T07:58:12Z</time>
      </trkpt>
      <trkpt lat="43.86865" lon="1.81397">
        <ele>134.72</ele>
        <time>2026-05-23T07:58:28Z</time>
      </trkpt>
      <trkpt lat="43.8685" lon="1.81414">
        <ele>134.72</ele>
        <time>2026-05-23T07:58:43Z</time>
      </trkpt>
      <trkpt lat="43.86838" lon="1.81433">
        <ele>134.72</ele>
        <time>2026-05-23T07:58:57Z</time>
      </trkpt>
      <trkpt lat="43.8683" lon="1.81447">
        <ele>134.72</ele>
        <time>2026-05-23T07:59:12Z</time>
      </trkpt>
      <trkpt lat="43.86824" lon="1.8146">
        <ele>134.72</ele>
        <time>2026-05-23T07:59:27Z</time>
      </trkpt>
      <trkpt lat="43.86821" lon="1.81465">
        <ele>134.72</ele>
        <time>2026-05-23T07:59:30Z</time>
      </trkpt>
      <trkpt lat="43.86812" lon="1.81484">
        <ele>134.72</ele>
        <time>2026-05-23T07:59:44Z</time>
      </trkpt>
      <trkpt lat="43.86811" lon="1.81495">
        <ele>133.76</ele>
        <time>2026-05-23T07:59:51Z</time>
      </trkpt>
      <trkpt lat="43.86816" lon="1.81499">
        <ele>133.76</ele>
        <time>2026-05-23T08:00:06Z</time>
      </trkpt>
      <trkpt lat="43.8683" lon="1.8151">
        <ele>133.76</ele>
        <time>2026-05-23T08:00:19Z</time>
      </trkpt>
      <trkpt lat="43.86849" lon="1.81524">
        <ele>133.76</ele>
        <time>2026-05-23T08:00:34Z</time>
      </trkpt>
      <trkpt lat="43.86862" lon="1.81536">
        <ele>132.8</ele>
        <time>2026-05-23T08:00:46Z</time>
      </trkpt>
      <trkpt lat="43.86867" lon="1.81543">
        <ele>132.32</ele>
        <time>2026-05-23T08:00:57Z</time>
      </trkpt>
      <trkpt lat="43.86868" lon="1.81543">
        <ele>132.32</ele>
        <time>2026-05-23T08:01:06Z</time>
      </trkpt>
      <trkpt lat="43.86863" lon="1.81549">
        <ele>131.84</ele>
        <time>2026-05-23T08:01:12Z</time>
      </trkpt>
      <trkpt lat="43.8684" lon="1.8155">
        <ele>131.84</ele>
        <time>2026-05-23T08:01:29Z</time>
      </trkpt>
      <trkpt lat="43.86822" lon="1.81553">
        <ele>131.84</ele>
        <time>2026-05-23T08:01:42Z</time>
      </trkpt>
      <trkpt lat="43.86814" lon="1.81554">
        <ele>130.88</ele>
        <time>2026-05-23T08:01:48Z</time>
      </trkpt>
      <trkpt lat="43.86789" lon="1.81564">
        <ele>130.88</ele>
        <time>2026-05-23T08:02:09Z</time>
      </trkpt>
      <trkpt lat="43.86769" lon="1.81573">
        <ele>130.88</ele>
        <time>2026-05-23T08:02:24Z</time>
      </trkpt>
      <trkpt lat="43.86748" lon="1.81586">
        <ele>130.88</ele>
        <time>2026-05-23T08:02:40Z</time>
      </trkpt>
      <trkpt lat="43.8673" lon="1.816">
        <ele>130.4</ele>
        <time>2026-05-23T08:02:55Z</time>
      </trkpt>
      <trkpt lat="43.86712" lon="1.81614">
        <ele>130.4</ele>
        <time>2026-05-23T08:03:10Z</time>
      </trkpt>
      <trkpt lat="43.86695" lon="1.81626">
        <ele>130.4</ele>
        <time>2026-05-23T08:03:24Z</time>
      </trkpt>
      <trkpt lat="43.86675" lon="1.81636">
        <ele>130.4</ele>
        <time>2026-05-23T08:03:40Z</time>
      </trkpt>
      <trkpt lat="43.86654" lon="1.81645">
        <ele>129.92</ele>
        <time>2026-05-23T08:03:57Z</time>
      </trkpt>
      <trkpt lat="43.86635" lon="1.81652">
        <ele>129.92</ele>
        <time>2026-05-23T08:04:12Z</time>
      </trkpt>
      <trkpt lat="43.86616" lon="1.81658">
        <ele>129.92</ele>
        <time>2026-05-23T08:04:26Z</time>
      </trkpt>
      <trkpt lat="43.86594" lon="1.81665">
        <ele>129.43</ele>
        <time>2026-05-23T08:04:43Z</time>
      </trkpt>
      <trkpt lat="43.86576" lon="1.81671">
        <ele>129.43</ele>
        <time>2026-05-23T08:04:57Z</time>
      </trkpt>
      <trkpt lat="43.86571" lon="1.81672">
        <ele>129.43</ele>
        <time>2026-05-23T08:05:01Z</time>
      </trkpt>
      <trkpt lat="43.86551" lon="1.81676">
        <ele>129.43</ele>
        <time>2026-05-23T08:05:16Z</time>
      </trkpt>
      <trkpt lat="43.8653" lon="1.81682">
        <ele>129.43</ele>
        <time>2026-05-23T08:05:31Z</time>
      </trkpt>
      <trkpt lat="43.86511" lon="1.81692">
        <ele>128.95</ele>
        <time>2026-05-23T08:05:48Z</time>
      </trkpt>
      <trkpt lat="43.86509" lon="1.81692">
        <ele>128.95</ele>
        <time>2026-05-23T08:05:50Z</time>
      </trkpt>
      <trkpt lat="43.86501" lon="1.81696">
        <ele>128.95</ele>
        <time>2026-05-23T08:05:56Z</time>
      </trkpt>
      <trkpt lat="43.8648" lon="1.81706">
        <ele>128.95</ele>
        <time>2026-05-23T08:06:12Z</time>
      </trkpt>
      <trkpt lat="43.86462" lon="1.81714">
        <ele>128.95</ele>
        <time>2026-05-23T08:06:26Z</time>
      </trkpt>
      <trkpt lat="43.86458" lon="1.81715">
        <ele>128.47</ele>
        <time>2026-05-23T08:06:30Z</time>
      </trkpt>
      <trkpt lat="43.86449" lon="1.81709">
        <ele>128.47</ele>
        <time>2026-05-23T08:06:37Z</time>
      </trkpt>
      <trkpt lat="43.86446" lon="1.81702">
        <ele>128.47</ele>
        <time>2026-05-23T08:06:43Z</time>
      </trkpt>
      <trkpt lat="43.86429" lon="1.81679">
        <ele>128.47</ele>
        <time>2026-05-23T08:07:01Z</time>
      </trkpt>
      <trkpt lat="43.86406" lon="1.81678">
        <ele>128.47</ele>
        <time>2026-05-23T08:07:18Z</time>
      </trkpt>
      <trkpt lat="43.86391" lon="1.81683">
        <ele>128.47</ele>
        <time>2026-05-23T08:07:30Z</time>
      </trkpt>
      <trkpt lat="43.86384" lon="1.8168">
        <ele>128.47</ele>
        <time>2026-05-23T08:07:38Z</time>
      </trkpt>
      <trkpt lat="43.86379" lon="1.81694">
        <ele>128.47</ele>
        <time>2026-05-23T08:07:50Z</time>
      </trkpt>
      <trkpt lat="43.86355" lon="1.81683">
        <ele>128.47</ele>
        <time>2026-05-23T08:08:10Z</time>
      </trkpt>
      <trkpt lat="43.8634" lon="1.81667">
        <ele>128.47</ele>
        <time>2026-05-23T08:08:25Z</time>
      </trkpt>
      <trkpt lat="43.86323" lon="1.81655">
        <ele>128.95</ele>
        <time>2026-05-23T08:08:41Z</time>
      </trkpt>
      <trkpt lat="43.86303" lon="1.81642">
        <ele>128.95</ele>
        <time>2026-05-23T08:08:57Z</time>
      </trkpt>
      <trkpt lat="43.86286" lon="1.81626">
        <ele>128.95</ele>
        <time>2026-05-23T08:09:12Z</time>
      </trkpt>
      <trkpt lat="43.86285" lon="1.81623">
        <ele>128.95</ele>
        <time>2026-05-23T08:09:14Z</time>
      </trkpt>
      <trkpt lat="43.86263" lon="1.81604">
        <ele>128.95</ele>
        <time>2026-05-23T08:09:32Z</time>
      </trkpt>
      <trkpt lat="43.86252" lon="1.81598">
        <ele>129.43</ele>
        <time>2026-05-23T08:09:42Z</time>
      </trkpt>
      <trkpt lat="43.86236" lon="1.81583">
        <ele>128.95</ele>
        <time>2026-05-23T08:09:57Z</time>
      </trkpt>
      <trkpt lat="43.86217" lon="1.81567">
        <ele>128.95</ele>
        <time>2026-05-23T08:10:13Z</time>
      </trkpt>
      <trkpt lat="43.862" lon="1.81552">
        <ele>128.95</ele>
        <time>2026-05-23T08:10:29Z</time>
      </trkpt>
      <trkpt lat="43.86184" lon="1.81537">
        <ele>128.95</ele>
        <time>2026-05-23T08:10:45Z</time>
      </trkpt>
      <trkpt lat="43.8616" lon="1.81514">
        <ele>128.95</ele>
        <time>2026-05-23T08:11:03Z</time>
      </trkpt>
      <trkpt lat="43.86145" lon="1.81495">
        <ele>128.95</ele>
        <time>2026-05-23T08:11:18Z</time>
      </trkpt>
      <trkpt lat="43.86134" lon="1.81475">
        <ele>128.95</ele>
        <time>2026-05-23T08:11:34Z</time>
      </trkpt>
      <trkpt lat="43.86132" lon="1.81474">
        <ele>130.4</ele>
        <time>2026-05-23T08:11:36Z</time>
      </trkpt>
      <trkpt lat="43.86123" lon="1.8146">
        <ele>130.88</ele>
        <time>2026-05-23T08:11:53Z</time>
      </trkpt>
      <trkpt lat="43.8612" lon="1.81455">
        <ele>127.99</ele>
        <time>2026-05-23T08:11:57Z</time>
      </trkpt>
      <trkpt lat="43.86119" lon="1.81453">
        <ele>130.88</ele>
        <time>2026-05-23T08:11:59Z</time>
      </trkpt>
      <trkpt lat="43.86118" lon="1.81449">
        <ele>130.4</ele>
        <time>2026-05-23T08:12:07Z</time>
      </trkpt>
      <trkpt lat="43.86116" lon="1.81446">
        <ele>130.4</ele>
        <time>2026-05-23T08:12:10Z</time>
      </trkpt>
      <trkpt lat="43.86105" lon="1.81425">
        <ele>130.88</ele>
        <time>2026-05-23T08:12:25Z</time>
      </trkpt>
      <trkpt lat="43.86102" lon="1.81417">
        <ele>130.88</ele>
        <time>2026-05-23T08:12:30Z</time>
      </trkpt>
      <trkpt lat="43.861" lon="1.81413">
        <ele>130.88</ele>
        <time>2026-05-23T08:12:33Z</time>
      </trkpt>
      <trkpt lat="43.86098" lon="1.81405">
        <ele>130.88</ele>
        <time>2026-05-23T08:12:38Z</time>
      </trkpt>
      <trkpt lat="43.86092" lon="1.81388">
        <ele>129.43</ele>
        <time>2026-05-23T08:12:53Z</time>
      </trkpt>
      <trkpt lat="43.86088" lon="1.81377">
        <ele>129.43</ele>
        <time>2026-05-23T08:13:29Z</time>
      </trkpt>
      <trkpt lat="43.86075" lon="1.8135">
        <ele>129.43</ele>
        <time>2026-05-23T08:13:46Z</time>
      </trkpt>
      <trkpt lat="43.8607" lon="1.81333">
        <ele>129.92</ele>
        <time>2026-05-23T08:13:56Z</time>
      </trkpt>
      <trkpt lat="43.86057" lon="1.81305">
        <ele>129.43</ele>
        <time>2026-05-23T08:14:15Z</time>
      </trkpt>
      <trkpt lat="43.86056" lon="1.813">
        <ele>129.43</ele>
        <time>2026-05-23T08:14:19Z</time>
      </trkpt>
      <trkpt lat="43.86048" lon="1.81291">
        <ele>129.43</ele>
        <time>2026-05-23T08:14:27Z</time>
      </trkpt>
      <trkpt lat="43.86031" lon="1.81274">
        <ele>129.92</ele>
        <time>2026-05-23T08:14:42Z</time>
      </trkpt>
      <trkpt lat="43.86009" lon="1.81259">
        <ele>129.92</ele>
        <time>2026-05-23T08:14:59Z</time>
      </trkpt>
      <trkpt lat="43.85988" lon="1.81249">
        <ele>129.92</ele>
        <time>2026-05-23T08:15:16Z</time>
      </trkpt>
      <trkpt lat="43.85983" lon="1.81245">
        <ele>129.92</ele>
        <time>2026-05-23T08:15:21Z</time>
      </trkpt>
      <trkpt lat="43.85959" lon="1.81234">
        <ele>129.92</ele>
        <time>2026-05-23T08:15:37Z</time>
      </trkpt>
      <trkpt lat="43.8594" lon="1.81224">
        <ele>129.92</ele>
        <time>2026-05-23T08:15:54Z</time>
      </trkpt>
      <trkpt lat="43.85938" lon="1.81223">
        <ele>129.92</ele>
        <time>2026-05-23T08:15:56Z</time>
      </trkpt>
      <trkpt lat="43.85913" lon="1.81214">
        <ele>129.92</ele>
        <time>2026-05-23T08:16:14Z</time>
      </trkpt>
      <trkpt lat="43.85889" lon="1.81204">
        <ele>129.92</ele>
        <time>2026-05-23T08:16:32Z</time>
      </trkpt>
      <trkpt lat="43.85884" lon="1.81202">
        <ele>129.92</ele>
        <time>2026-05-23T08:16:38Z</time>
      </trkpt>
      <trkpt lat="43.85865" lon="1.81194">
        <ele>129.92</ele>
        <time>2026-05-23T08:16:53Z</time>
      </trkpt>
      <trkpt lat="43.8584" lon="1.81181">
        <ele>130.4</ele>
        <time>2026-05-23T08:17:09Z</time>
      </trkpt>
      <trkpt lat="43.85833" lon="1.8118">
        <ele>130.4</ele>
        <time>2026-05-23T08:17:16Z</time>
      </trkpt>
      <trkpt lat="43.85827" lon="1.81177">
        <ele>129.92</ele>
        <time>2026-05-23T08:17:20Z</time>
      </trkpt>
      <trkpt lat="43.85804" lon="1.81165">
        <ele>129.92</ele>
        <time>2026-05-23T08:17:37Z</time>
      </trkpt>
      <trkpt lat="43.85797" lon="1.81161">
        <ele>129.92</ele>
        <time>2026-05-23T08:17:44Z</time>
      </trkpt>
      <trkpt lat="43.85793" lon="1.81161">
        <ele>129.92</ele>
        <time>2026-05-23T08:17:47Z</time>
      </trkpt>
      <trkpt lat="43.85791" lon="1.81159">
        <ele>129.92</ele>
        <time>2026-05-23T08:17:49Z</time>
      </trkpt>
      <trkpt lat="43.85771" lon="1.81152">
        <ele>129.92</ele>
        <time>2026-05-23T08:18:05Z</time>
      </trkpt>
      <trkpt lat="43.8575" lon="1.81146">
        <ele>129.92</ele>
        <time>2026-05-23T08:18:22Z</time>
      </trkpt>
      <trkpt lat="43.85729" lon="1.81139">
        <ele>129.92</ele>
        <time>2026-05-23T08:18:37Z</time>
      </trkpt>
      <trkpt lat="43.85726" lon="1.81138">
        <ele>129.92</ele>
        <time>2026-05-23T08:18:40Z</time>
      </trkpt>
      <trkpt lat="43.85712" lon="1.81132">
        <ele>129.92</ele>
        <time>2026-05-23T08:18:53Z</time>
      </trkpt>
      <trkpt lat="43.85691" lon="1.81124">
        <ele>129.92</ele>
        <time>2026-05-23T08:19:08Z</time>
      </trkpt>
      <trkpt lat="43.85672" lon="1.81119">
        <ele>129.92</ele>
        <time>2026-05-23T08:19:23Z</time>
      </trkpt>
      <trkpt lat="43.85649" lon="1.81117">
        <ele>129.43</ele>
        <time>2026-05-23T08:19:39Z</time>
      </trkpt>
      <trkpt lat="43.85625" lon="1.81112">
        <ele>128.95</ele>
        <time>2026-05-23T08:19:55Z</time>
      </trkpt>
      <trkpt lat="43.85605" lon="1.81107">
        <ele>128.47</ele>
        <time>2026-05-23T08:20:11Z</time>
      </trkpt>
      <trkpt lat="43.85589" lon="1.81104">
        <ele>128.47</ele>
        <time>2026-05-23T08:20:22Z</time>
      </trkpt>
      <trkpt lat="43.85566" lon="1.81106">
        <ele>128.47</ele>
        <time>2026-05-23T08:20:40Z</time>
      </trkpt>
      <trkpt lat="43.85542" lon="1.81112">
        <ele>128.95</ele>
        <time>2026-05-23T08:20:57Z</time>
      </trkpt>
      <trkpt lat="43.85521" lon="1.81114">
        <ele>128.95</ele>
        <time>2026-05-23T08:21:12Z</time>
      </trkpt>
      <trkpt lat="43.85511" lon="1.81115">
        <ele>128.95</ele>
        <time>2026-05-23T08:21:21Z</time>
      </trkpt>
      <trkpt lat="43.85503" lon="1.81113">
        <ele>128.95</ele>
        <time>2026-05-23T08:21:26Z</time>
      </trkpt>
      <trkpt lat="43.85501" lon="1.81113">
        <ele>128.95</ele>
        <time>2026-05-23T08:21:27Z</time>
      </trkpt>
      <trkpt lat="43.85499" lon="1.81113">
        <ele>128.95</ele>
        <time>2026-05-23T08:21:28Z</time>
      </trkpt>
      <trkpt lat="43.85491" lon="1.81113">
        <ele>128.95</ele>
        <time>2026-05-23T08:21:36Z</time>
      </trkpt>
      <trkpt lat="43.8549" lon="1.81112">
        <ele>128.95</ele>
        <time>2026-05-23T08:21:37Z</time>
      </trkpt>
      <trkpt lat="43.85489" lon="1.81111">
        <ele>128.95</ele>
        <time>2026-05-23T08:21:38Z</time>
      </trkpt>
      <trkpt lat="43.85487" lon="1.8111">
        <ele>128.95</ele>
        <time>2026-05-23T08:21:39Z</time>
      </trkpt>
      <trkpt lat="43.85486" lon="1.81109">
        <ele>128.95</ele>
        <time>2026-05-23T08:21:40Z</time>
      </trkpt>
      <trkpt lat="43.85485" lon="1.81109">
        <ele>128.95</ele>
        <time>2026-05-23T08:21:41Z</time>
      </trkpt>
      <trkpt lat="43.85484" lon="1.81107">
        <ele>128.95</ele>
        <time>2026-05-23T08:21:42Z</time>
      </trkpt>
      <trkpt lat="43.85482" lon="1.81106">
        <ele>128.95</ele>
        <time>2026-05-23T08:21:43Z</time>
      </trkpt>
      <trkpt lat="43.85467" lon="1.81105">
        <ele>128.95</ele>
        <time>2026-05-23T08:21:56Z</time>
      </trkpt>
      <trkpt lat="43.85462" lon="1.81104">
        <ele>128.95</ele>
        <time>2026-05-23T08:22:12Z</time>
      </trkpt>
      <trkpt lat="43.85459" lon="1.81101">
        <ele>128.47</ele>
        <time>2026-05-23T08:22:19Z</time>
      </trkpt>
      <trkpt lat="43.85457" lon="1.81099">
        <ele>128.95</ele>
        <time>2026-05-23T08:22:26Z</time>
      </trkpt>
      <trkpt lat="43.85457" lon="1.81105">
        <ele>128.47</ele>
        <time>2026-05-23T08:22:29Z</time>
      </trkpt>
      <trkpt lat="43.85455" lon="1.81109">
        <ele>128.47</ele>
        <time>2026-05-23T08:22:46Z</time>
      </trkpt>
      <trkpt lat="43.85453" lon="1.81106">
        <ele>128.47</ele>
        <time>2026-05-23T08:22:51Z</time>
      </trkpt>
      <trkpt lat="43.85452" lon="1.81105">
        <ele>128.47</ele>
        <time>2026-05-23T08:22:52Z</time>
      </trkpt>
      <trkpt lat="43.85445" lon="1.81097">
        <ele>128.95</ele>
        <time>2026-05-23T08:23:02Z</time>
      </trkpt>
      <trkpt lat="43.85444" lon="1.81096">
        <ele>128.95</ele>
        <time>2026-05-23T08:23:03Z</time>
      </trkpt>
      <trkpt lat="43.85443" lon="1.81095">
        <ele>128.95</ele>
        <time>2026-05-23T08:23:04Z</time>
      </trkpt>
      <trkpt lat="43.85421" lon="1.81073">
        <ele>128.95</ele>
        <time>2026-05-23T08:23:22Z</time>
      </trkpt>
      <trkpt lat="43.85413" lon="1.81069">
        <ele>128.95</ele>
        <time>2026-05-23T08:23:28Z</time>
      </trkpt>
      <trkpt lat="43.85412" lon="1.81067">
        <ele>128.95</ele>
        <time>2026-05-23T08:23:29Z</time>
      </trkpt>
      <trkpt lat="43.85403" lon="1.81063">
        <ele>128.95</ele>
        <time>2026-05-23T08:23:38Z</time>
      </trkpt>
      <trkpt lat="43.85401" lon="1.81062">
        <ele>128.95</ele>
        <time>2026-05-23T08:23:39Z</time>
      </trkpt>
      <trkpt lat="43.854" lon="1.8106">
        <ele>128.95</ele>
        <time>2026-05-23T08:23:40Z</time>
      </trkpt>
      <trkpt lat="43.85399" lon="1.81059">
        <ele>128.95</ele>
        <time>2026-05-23T08:23:41Z</time>
      </trkpt>
      <trkpt lat="43.85397" lon="1.81058">
        <ele>128.95</ele>
        <time>2026-05-23T08:23:42Z</time>
      </trkpt>
      <trkpt lat="43.85382" lon="1.81049">
        <ele>128.47</ele>
        <time>2026-05-23T08:23:54Z</time>
      </trkpt>
      <trkpt lat="43.85367" lon="1.81036">
        <ele>128.47</ele>
        <time>2026-05-23T08:24:10Z</time>
      </trkpt>
      <trkpt lat="43.85342" lon="1.81011">
        <ele>128.47</ele>
        <time>2026-05-23T08:24:27Z</time>
      </trkpt>
      <trkpt lat="43.85325" lon="1.81008">
        <ele>127.99</ele>
        <time>2026-05-23T08:24:41Z</time>
      </trkpt>
      <trkpt lat="43.85325" lon="1.81002">
        <ele>127.99</ele>
        <time>2026-05-23T08:24:48Z</time>
      </trkpt>
      <trkpt lat="43.85325" lon="1.81001">
        <ele>127.99</ele>
        <time>2026-05-23T08:24:49Z</time>
      </trkpt>
      <trkpt lat="43.85326" lon="1.80999">
        <ele>127.99</ele>
        <time>2026-05-23T08:24:50Z</time>
      </trkpt>
      <trkpt lat="43.85329" lon="1.80985">
        <ele>126.55</ele>
        <time>2026-05-23T08:24:57Z</time>
      </trkpt>
      <trkpt lat="43.85329" lon="1.80983">
        <ele>128.95</ele>
        <time>2026-05-23T08:24:58Z</time>
      </trkpt>
      <trkpt lat="43.85329" lon="1.80973">
        <ele>128.95</ele>
        <time>2026-05-23T08:25:05Z</time>
      </trkpt>
      <trkpt lat="43.85353" lon="1.80972">
        <ele>127.99</ele>
        <time>2026-05-23T08:25:18Z</time>
      </trkpt>
      <trkpt lat="43.8532" lon="1.81016">
        <ele>127.99</ele>
        <time>2026-05-23T08:26:36Z</time>
      </trkpt>
      <trkpt lat="43.85316" lon="1.81007">
        <ele>127.99</ele>
        <time>2026-05-23T08:26:41Z</time>
      </trkpt>
      <trkpt lat="43.85312" lon="1.8101">
        <ele>127.99</ele>
        <time>2026-05-23T08:26:56Z</time>
      </trkpt>
      <trkpt lat="43.85318" lon="1.81026">
        <ele>127.99</ele>
        <time>2026-05-23T08:27:17Z</time>
      </trkpt>
      <trkpt lat="43.85318" lon="1.81033">
        <ele>127.99</ele>
        <time>2026-05-23T08:27:23Z</time>
      </trkpt>
      <trkpt lat="43.85322" lon="1.81042">
        <ele>127.99</ele>
        <time>2026-05-23T08:27:44Z</time>
      </trkpt>
      <trkpt lat="43.85313" lon="1.81026">
        <ele>128.47</ele>
        <time>2026-05-23T08:28:06Z</time>
      </trkpt>
      <trkpt lat="43.85325" lon="1.81038">
        <ele>128.47</ele>
        <time>2026-05-23T08:28:26Z</time>
      </trkpt>
      <trkpt lat="43.85309" lon="1.81036">
        <ele>126.55</ele>
        <time>2026-05-23T08:28:57Z</time>
      </trkpt>
      <trkpt lat="43.85305" lon="1.81035">
        <ele>128.47</ele>
        <time>2026-05-23T08:29:01Z</time>
      </trkpt>
      <trkpt lat="43.85304" lon="1.81035">
        <ele>124.63</ele>
        <time>2026-05-23T08:29:02Z</time>
      </trkpt>
      <trkpt lat="43.85304" lon="1.81035">
        <ele>124.63</ele>
        <time>2026-05-23T08:29:03Z</time>
      </trkpt>
      <trkpt lat="43.85299" lon="1.81031">
        <ele>127.99</ele>
        <time>2026-05-23T08:29:12Z</time>
      </trkpt>
      <trkpt lat="43.85298" lon="1.81029">
        <ele>127.03</ele>
        <time>2026-05-23T08:29:41Z</time>
      </trkpt>
      <trkpt lat="43.8529" lon="1.81028">
        <ele>127.03</ele>
        <time>2026-05-23T08:29:53Z</time>
      </trkpt>
      <trkpt lat="43.85284" lon="1.81027">
        <ele>123.19</ele>
        <time>2026-05-23T08:30:00Z</time>
      </trkpt>
      <trkpt lat="43.85283" lon="1.81026">
        <ele>124.63</ele>
        <time>2026-05-23T08:30:01Z</time>
      </trkpt>
      <trkpt lat="43.85282" lon="1.81026">
        <ele>127.51</ele>
        <time>2026-05-23T08:30:02Z</time>
      </trkpt>
      <trkpt lat="43.85282" lon="1.81025">
        <ele>127.51</ele>
        <time>2026-05-23T08:30:03Z</time>
      </trkpt>
      <trkpt lat="43.85304" lon="1.81028">
        <ele>134.72</ele>
        <time>2026-05-23T08:30:24Z</time>
      </trkpt>
      <trkpt lat="43.85306" lon="1.81029">
        <ele>129.92</ele>
        <time>2026-05-23T08:30:25Z</time>
      </trkpt>
      <trkpt lat="43.85308" lon="1.81031">
        <ele>128.47</ele>
        <time>2026-05-23T08:30:27Z</time>
      </trkpt>
      <trkpt lat="43.85307" lon="1.81044">
        <ele>127.03</ele>
        <time>2026-05-23T08:30:49Z</time>
      </trkpt>
      <trkpt lat="43.85309" lon="1.81033">
        <ele>126.55</ele>
        <time>2026-05-23T08:31:22Z</time>
      </trkpt>
      <trkpt lat="43.8531" lon="1.81033">
        <ele>128.47</ele>
        <time>2026-05-23T08:31:24Z</time>
      </trkpt>
      <trkpt lat="43.85307" lon="1.81032">
        <ele>127.51</ele>
        <time>2026-05-23T08:31:55Z</time>
      </trkpt>
      <trkpt lat="43.85311" lon="1.81031">
        <ele>127.51</ele>
        <time>2026-05-23T08:32:23Z</time>
      </trkpt>
      <trkpt lat="43.85312" lon="1.81033">
        <ele>127.03</ele>
        <time>2026-05-23T08:32:50Z</time>
      </trkpt>
      <trkpt lat="43.85313" lon="1.81026">
        <ele>126.55</ele>
        <time>2026-05-23T08:33:20Z</time>
      </trkpt>
      <trkpt lat="43.85303" lon="1.81025">
        <ele>127.03</ele>
        <time>2026-05-23T08:33:48Z</time>
      </trkpt>
      <trkpt lat="43.85307" lon="1.8103">
        <ele>126.55</ele>
        <time>2026-05-23T08:34:23Z</time>
      </trkpt>
      <trkpt lat="43.85307" lon="1.81033">
        <ele>127.99</ele>
        <time>2026-05-23T08:34:52Z</time>
      </trkpt>
      <trkpt lat="43.85317" lon="1.81041">
        <ele>127.99</ele>
        <time>2026-05-23T08:35:15Z</time>
      </trkpt>
      <trkpt lat="43.85324" lon="1.81035">
        <ele>127.99</ele>
        <time>2026-05-23T08:35:38Z</time>
      </trkpt>
      <trkpt lat="43.85339" lon="1.81038">
        <ele>127.99</ele>
        <time>2026-05-23T08:36:04Z</time>
      </trkpt>
      <trkpt lat="43.8533" lon="1.81042">
        <ele>127.99</ele>
        <time>2026-05-23T08:36:16Z</time>
      </trkpt>
      <trkpt lat="43.85297" lon="1.81035">
        <ele>127.99</ele>
        <time>2026-05-23T08:36:51Z</time>
      </trkpt>
      <trkpt lat="43.85296" lon="1.81034">
        <ele>126.55</ele>
        <time>2026-05-23T08:36:54Z</time>
      </trkpt>
      <trkpt lat="43.85302" lon="1.81039">
        <ele>126.55</ele>
        <time>2026-05-23T08:37:18Z</time>
      </trkpt>
      <trkpt lat="43.85313" lon="1.8105">
        <ele>126.55</ele>
        <time>2026-05-23T08:37:42Z</time>
      </trkpt>
      <trkpt lat="43.85315" lon="1.8104">
        <ele>126.55</ele>
        <time>2026-05-23T08:38:08Z</time>
      </trkpt>
      <trkpt lat="43.85318" lon="1.8104">
        <ele>126.55</ele>
        <time>2026-05-23T08:38:36Z</time>
      </trkpt>
      <trkpt lat="43.85319" lon="1.81038">
        <ele>126.55</ele>
        <time>2026-05-23T08:39:03Z</time>
      </trkpt>
      <trkpt lat="43.85321" lon="1.81042">
        <ele>126.55</ele>
        <time>2026-05-23T08:39:30Z</time>
      </trkpt>
      <trkpt lat="43.85321" lon="1.81049">
        <ele>126.55</ele>
        <time>2026-05-23T08:39:58Z</time>
      </trkpt>
      <trkpt lat="43.85309" lon="1.81039">
        <ele>126.55</ele>
        <time>2026-05-23T08:40:20Z</time>
      </trkpt>
      <trkpt lat="43.85308" lon="1.81029">
        <ele>126.55</ele>
        <time>2026-05-23T08:40:40Z</time>
      </trkpt>
      <trkpt lat="43.85309" lon="1.81031">
        <ele>126.55</ele>
        <time>2026-05-23T08:41:09Z</time>
      </trkpt>
      <trkpt lat="43.85308" lon="1.81031">
        <ele>126.55</ele>
        <time>2026-05-23T08:41:28Z</time>
      </trkpt>
      <trkpt lat="43.85328" lon="1.81028">
        <ele>126.55</ele>
        <time>2026-05-23T08:41:51Z</time>
      </trkpt>
      <trkpt lat="43.85324" lon="1.81026">
        <ele>126.55</ele>
        <time>2026-05-23T08:42:16Z</time>
      </trkpt>
      <trkpt lat="43.85303" lon="1.81018">
        <ele>126.55</ele>
        <time>2026-05-23T08:42:45Z</time>
      </trkpt>
      <trkpt lat="43.85307" lon="1.81029">
        <ele>126.55</ele>
        <time>2026-05-23T08:43:11Z</time>
      </trkpt>
      <trkpt lat="43.85307" lon="1.81033">
        <ele>126.55</ele>
        <time>2026-05-23T08:43:34Z</time>
      </trkpt>
      <trkpt lat="43.85305" lon="1.81022">
        <ele>126.55</ele>
        <time>2026-05-23T08:43:46Z</time>
      </trkpt>
      <trkpt lat="43.85289" lon="1.80994">
        <ele>126.55</ele>
        <time>2026-05-23T08:44:11Z</time>
      </trkpt>
      <trkpt lat="43.85296" lon="1.81003">
        <ele>126.55</ele>
        <time>2026-05-23T08:44:39Z</time>
      </trkpt>
      <trkpt lat="43.85307" lon="1.8103">
        <ele>126.55</ele>
        <time>2026-05-23T08:45:10Z</time>
      </trkpt>
      <trkpt lat="43.85303" lon="1.81025">
        <ele>126.55</ele>
        <time>2026-05-23T08:45:39Z</time>
      </trkpt>
      <trkpt lat="43.85306" lon="1.81026">
        <ele>126.55</ele>
        <time>2026-05-23T08:46:04Z</time>
      </trkpt>
      <trkpt lat="43.85308" lon="1.8103">
        <ele>126.55</ele>
        <time>2026-05-23T08:46:29Z</time>
      </trkpt>
      <trkpt lat="43.85312" lon="1.81036">
        <ele>126.55</ele>
        <time>2026-05-23T08:46:58Z</time>
      </trkpt>
      <trkpt lat="43.85317" lon="1.81042">
        <ele>126.55</ele>
        <time>2026-05-23T08:47:21Z</time>
      </trkpt>
      <trkpt lat="43.85317" lon="1.8104">
        <ele>126.55</ele>
        <time>2026-05-23T08:47:42Z</time>
      </trkpt>
      <trkpt lat="43.8533" lon="1.81055">
        <ele>126.55</ele>
        <time>2026-05-23T08:48:10Z</time>
      </trkpt>
      <trkpt lat="43.85329" lon="1.81038">
        <ele>126.55</ele>
        <time>2026-05-23T08:48:35Z</time>
      </trkpt>
      <trkpt lat="43.85319" lon="1.81026">
        <ele>126.55</ele>
        <time>2026-05-23T08:48:58Z</time>
      </trkpt>
      <trkpt lat="43.85317" lon="1.81016">
        <ele>126.55</ele>
        <time>2026-05-23T08:49:22Z</time>
      </trkpt>
      <trkpt lat="43.85335" lon="1.81011">
        <ele>126.55</ele>
        <time>2026-05-23T08:49:46Z</time>
      </trkpt>
      <trkpt lat="43.85342" lon="1.81024">
        <ele>126.55</ele>
        <time>2026-05-23T08:49:56Z</time>
      </trkpt>
      <trkpt lat="43.8534" lon="1.81045">
        <ele>126.55</ele>
        <time>2026-05-23T08:50:19Z</time>
      </trkpt>
      <trkpt lat="43.8533" lon="1.81035">
        <ele>126.55</ele>
        <time>2026-05-23T08:50:42Z</time>
      </trkpt>
      <trkpt lat="43.85319" lon="1.81033">
        <ele>126.55</ele>
        <time>2026-05-23T08:51:10Z</time>
      </trkpt>
      <trkpt lat="43.85311" lon="1.81036">
        <ele>126.55</ele>
        <time>2026-05-23T08:51:44Z</time>
      </trkpt>
      <trkpt lat="43.85312" lon="1.81037">
        <ele>126.55</ele>
        <time>2026-05-23T08:52:16Z</time>
      </trkpt>
      <trkpt lat="43.85315" lon="1.81041">
        <ele>126.55</ele>
        <time>2026-05-23T08:52:40Z</time>
      </trkpt>
      <trkpt lat="43.85321" lon="1.81048">
        <ele>126.55</ele>
        <time>2026-05-23T08:53:04Z</time>
      </trkpt>
      <trkpt lat="43.85319" lon="1.8104">
        <ele>126.55</ele>
        <time>2026-05-23T08:53:30Z</time>
      </trkpt>
      <trkpt lat="43.85315" lon="1.81041">
        <ele>126.55</ele>
        <time>2026-05-23T08:53:59Z</time>
      </trkpt>
      <trkpt lat="43.8532" lon="1.81035">
        <ele>126.07</ele>
        <time>2026-05-23T08:54:19Z</time>
      </trkpt>
      <trkpt lat="43.85343" lon="1.81044">
        <ele>126.07</ele>
        <time>2026-05-23T08:54:40Z</time>
      </trkpt>
      <trkpt lat="43.85313" lon="1.81025">
        <ele>126.07</ele>
        <time>2026-05-23T08:58:24Z</time>
      </trkpt>
      <trkpt lat="43.85314" lon="1.81029">
        <ele>126.07</ele>
        <time>2026-05-23T08:58:50Z</time>
      </trkpt>
      <trkpt lat="43.85324" lon="1.81016">
        <ele>127.51</ele>
        <time>2026-05-23T08:59:10Z</time>
      </trkpt>
      <trkpt lat="43.85322" lon="1.81019">
        <ele>127.51</ele>
        <time>2026-05-23T08:59:36Z</time>
      </trkpt>
      <trkpt lat="43.85322" lon="1.81018">
        <ele>127.99</ele>
        <time>2026-05-23T08:59:40Z</time>
      </trkpt>
      <trkpt lat="43.85334" lon="1.81014">
        <ele>127.99</ele>
        <time>2026-05-23T08:59:54Z</time>
      </trkpt>
      <trkpt lat="43.85341" lon="1.81001">
        <ele>127.99</ele>
        <time>2026-05-23T09:00:10Z</time>
      </trkpt>
      <trkpt lat="43.85349" lon="1.80979">
        <ele>127.99</ele>
        <time>2026-05-23T09:00:25Z</time>
      </trkpt>
      <trkpt lat="43.85351" lon="1.80975">
        <ele>127.03</ele>
        <time>2026-05-23T09:00:51Z</time>
      </trkpt>
      <trkpt lat="43.85358" lon="1.80958">
        <ele>127.99</ele>
        <time>2026-05-23T09:01:06Z</time>
      </trkpt>
      <trkpt lat="43.85365" lon="1.8094">
        <ele>127.99</ele>
        <time>2026-05-23T09:01:21Z</time>
      </trkpt>
      <trkpt lat="43.85368" lon="1.80936">
        <ele>127.99</ele>
        <time>2026-05-23T09:01:24Z</time>
      </trkpt>
      <trkpt lat="43.85374" lon="1.80924">
        <ele>127.99</ele>
        <time>2026-05-23T09:01:32Z</time>
      </trkpt>
      <trkpt lat="43.85385" lon="1.80893">
        <ele>127.99</ele>
        <time>2026-05-23T09:01:51Z</time>
      </trkpt>
      <trkpt lat="43.8539" lon="1.80872">
        <ele>127.99</ele>
        <time>2026-05-23T09:02:05Z</time>
      </trkpt>
      <trkpt lat="43.85389" lon="1.80871">
        <ele>126.55</ele>
        <time>2026-05-23T09:02:08Z</time>
      </trkpt>
      <trkpt lat="43.85387" lon="1.8087">
        <ele>127.99</ele>
        <time>2026-05-23T09:02:12Z</time>
      </trkpt>
      <trkpt lat="43.85391" lon="1.80859">
        <ele>127.99</ele>
        <time>2026-05-23T09:02:26Z</time>
      </trkpt>
      <trkpt lat="43.85396" lon="1.80848">
        <ele>124.63</ele>
        <time>2026-05-23T09:02:34Z</time>
      </trkpt>
      <trkpt lat="43.85397" lon="1.80846">
        <ele>128.95</ele>
        <time>2026-05-23T09:02:35Z</time>
      </trkpt>
      <trkpt lat="43.85401" lon="1.80841">
        <ele>127.51</ele>
        <time>2026-05-23T09:02:39Z</time>
      </trkpt>
      <trkpt lat="43.8541" lon="1.80821">
        <ele>127.51</ele>
        <time>2026-05-23T09:02:53Z</time>
      </trkpt>
      <trkpt lat="43.85411" lon="1.80815">
        <ele>127.51</ele>
        <time>2026-05-23T09:02:58Z</time>
      </trkpt>
      <trkpt lat="43.85416" lon="1.80818">
        <ele>127.51</ele>
        <time>2026-05-23T09:03:09Z</time>
      </trkpt>
      <trkpt lat="43.85416" lon="1.80814">
        <ele>127.51</ele>
        <time>2026-05-23T09:03:28Z</time>
      </trkpt>
      <trkpt lat="43.85422" lon="1.80796">
        <ele>127.51</ele>
        <time>2026-05-23T09:03:41Z</time>
      </trkpt>
      <trkpt lat="43.85425" lon="1.80792">
        <ele>127.51</ele>
        <time>2026-05-23T09:03:44Z</time>
      </trkpt>
      <trkpt lat="43.85427" lon="1.80788">
        <ele>127.51</ele>
        <time>2026-05-23T09:03:48Z</time>
      </trkpt>
      <trkpt lat="43.85429" lon="1.80771">
        <ele>127.51</ele>
        <time>2026-05-23T09:04:01Z</time>
      </trkpt>
      <trkpt lat="43.85429" lon="1.80765">
        <ele>127.51</ele>
        <time>2026-05-23T09:04:05Z</time>
      </trkpt>
      <trkpt lat="43.8543" lon="1.80758">
        <ele>128.47</ele>
        <time>2026-05-23T09:04:09Z</time>
      </trkpt>
      <trkpt lat="43.85434" lon="1.80736">
        <ele>128.47</ele>
        <time>2026-05-23T09:04:22Z</time>
      </trkpt>
      <trkpt lat="43.85437" lon="1.80716">
        <ele>128.95</ele>
        <time>2026-05-23T09:04:35Z</time>
      </trkpt>
      <trkpt lat="43.85429" lon="1.80706">
        <ele>128.47</ele>
        <time>2026-05-23T09:04:46Z</time>
      </trkpt>
      <trkpt lat="43.8541" lon="1.80687">
        <ele>127.99</ele>
        <time>2026-05-23T09:05:03Z</time>
      </trkpt>
      <trkpt lat="43.85397" lon="1.80673">
        <ele>127.99</ele>
        <time>2026-05-23T09:05:16Z</time>
      </trkpt>
      <trkpt lat="43.85381" lon="1.80668">
        <ele>127.51</ele>
        <time>2026-05-23T09:05:28Z</time>
      </trkpt>
      <trkpt lat="43.85356" lon="1.80664">
        <ele>125.59</ele>
        <time>2026-05-23T09:05:46Z</time>
      </trkpt>
      <trkpt lat="43.85339" lon="1.80658">
        <ele>125.11</ele>
        <time>2026-05-23T09:05:58Z</time>
      </trkpt>
      <trkpt lat="43.85322" lon="1.80639">
        <ele>125.11</ele>
        <time>2026-05-23T09:06:14Z</time>
      </trkpt>
      <trkpt lat="43.85309" lon="1.80627">
        <ele>126.07</ele>
        <time>2026-05-23T09:06:28Z</time>
      </trkpt>
      <trkpt lat="43.85302" lon="1.80621">
        <ele>126.55</ele>
        <time>2026-05-23T09:06:36Z</time>
      </trkpt>
      <trkpt lat="43.85287" lon="1.80604">
        <ele>127.03</ele>
        <time>2026-05-23T09:06:54Z</time>
      </trkpt>
      <trkpt lat="43.8527" lon="1.80586">
        <ele>127.51</ele>
        <time>2026-05-23T09:07:09Z</time>
      </trkpt>
      <trkpt lat="43.85266" lon="1.8058">
        <ele>127.51</ele>
        <time>2026-05-23T09:07:14Z</time>
      </trkpt>
      <trkpt lat="43.85263" lon="1.80579">
        <ele>127.51</ele>
        <time>2026-05-23T09:07:16Z</time>
      </trkpt>
      <trkpt lat="43.85251" lon="1.80568">
        <ele>127.51</ele>
        <time>2026-05-23T09:07:32Z</time>
      </trkpt>
      <trkpt lat="43.85252" lon="1.80568">
        <ele>127.03</ele>
        <time>2026-05-23T09:07:41Z</time>
      </trkpt>
      <trkpt lat="43.85255" lon="1.80559">
        <ele>127.03</ele>
        <time>2026-05-23T09:07:48Z</time>
      </trkpt>
      <trkpt lat="43.85258" lon="1.80552">
        <ele>127.03</ele>
        <time>2026-05-23T09:07:52Z</time>
      </trkpt>
      <trkpt lat="43.85259" lon="1.80548">
        <ele>126.07</ele>
        <time>2026-05-23T09:07:54Z</time>
      </trkpt>
      <trkpt lat="43.85266" lon="1.80523">
        <ele>126.07</ele>
        <time>2026-05-23T09:08:12Z</time>
      </trkpt>
      <trkpt lat="43.85272" lon="1.80507">
        <ele>126.07</ele>
        <time>2026-05-23T09:08:22Z</time>
      </trkpt>
      <trkpt lat="43.85253" lon="1.80494">
        <ele>126.55</ele>
        <time>2026-05-23T09:08:37Z</time>
      </trkpt>
      <trkpt lat="43.85232" lon="1.80483">
        <ele>127.03</ele>
        <time>2026-05-23T09:08:54Z</time>
      </trkpt>
      <trkpt lat="43.85211" lon="1.80468">
        <ele>127.51</ele>
        <time>2026-05-23T09:09:11Z</time>
      </trkpt>
      <trkpt lat="43.85195" lon="1.80456">
        <ele>127.51</ele>
        <time>2026-05-23T09:09:26Z</time>
      </trkpt>
      <trkpt lat="43.85177" lon="1.80441">
        <ele>127.51</ele>
        <time>2026-05-23T09:09:43Z</time>
      </trkpt>
      <trkpt lat="43.85152" lon="1.80423">
        <ele>127.51</ele>
        <time>2026-05-23T09:10:02Z</time>
      </trkpt>
      <trkpt lat="43.85132" lon="1.80409">
        <ele>127.03</ele>
        <time>2026-05-23T09:10:18Z</time>
      </trkpt>
      <trkpt lat="43.85115" lon="1.80396">
        <ele>127.03</ele>
        <time>2026-05-23T09:10:32Z</time>
      </trkpt>
      <trkpt lat="43.85096" lon="1.80381">
        <ele>127.03</ele>
        <time>2026-05-23T09:10:49Z</time>
      </trkpt>
      <trkpt lat="43.85082" lon="1.80363">
        <ele>127.03</ele>
        <time>2026-05-23T09:11:04Z</time>
      </trkpt>
      <trkpt lat="43.8507" lon="1.80341">
        <ele>127.03</ele>
        <time>2026-05-23T09:11:20Z</time>
      </trkpt>
      <trkpt lat="43.85059" lon="1.80323">
        <ele>127.03</ele>
        <time>2026-05-23T09:11:34Z</time>
      </trkpt>
      <trkpt lat="43.8504" lon="1.80313">
        <ele>127.03</ele>
        <time>2026-05-23T09:11:47Z</time>
      </trkpt>
      <trkpt lat="43.85035" lon="1.80318">
        <ele>127.51</ele>
        <time>2026-05-23T09:11:52Z</time>
      </trkpt>
      <trkpt lat="43.85031" lon="1.80322">
        <ele>127.03</ele>
        <time>2026-05-23T09:11:56Z</time>
      </trkpt>
      <trkpt lat="43.85026" lon="1.80324">
        <ele>127.03</ele>
        <time>2026-05-23T09:12:00Z</time>
      </trkpt>
      <trkpt lat="43.85007" lon="1.80312">
        <ele>126.07</ele>
        <time>2026-05-23T09:12:14Z</time>
      </trkpt>
      <trkpt lat="43.84986" lon="1.80297">
        <ele>125.11</ele>
        <time>2026-05-23T09:12:30Z</time>
      </trkpt>
      <trkpt lat="43.84968" lon="1.80284">
        <ele>125.11</ele>
        <time>2026-05-23T09:12:46Z</time>
      </trkpt>
      <trkpt lat="43.84949" lon="1.80268">
        <ele>125.11</ele>
        <time>2026-05-23T09:13:02Z</time>
      </trkpt>
      <trkpt lat="43.84925" lon="1.80247">
        <ele>125.11</ele>
        <time>2026-05-23T09:13:22Z</time>
      </trkpt>
      <trkpt lat="43.84905" lon="1.80232">
        <ele>125.11</ele>
        <time>2026-05-23T09:13:40Z</time>
      </trkpt>
      <trkpt lat="43.84886" lon="1.80213">
        <ele>125.11</ele>
        <time>2026-05-23T09:13:58Z</time>
      </trkpt>
      <trkpt lat="43.84867" lon="1.80195">
        <ele>125.11</ele>
        <time>2026-05-23T09:14:14Z</time>
      </trkpt>
      <trkpt lat="43.84849" lon="1.80177">
        <ele>125.59</ele>
        <time>2026-05-23T09:14:32Z</time>
      </trkpt>
      <trkpt lat="43.8483" lon="1.80155">
        <ele>125.59</ele>
        <time>2026-05-23T09:14:50Z</time>
      </trkpt>
      <trkpt lat="43.84824" lon="1.8015">
        <ele>126.55</ele>
        <time>2026-05-23T09:14:55Z</time>
      </trkpt>
      <trkpt lat="43.84805" lon="1.80127">
        <ele>126.55</ele>
        <time>2026-05-23T09:15:12Z</time>
      </trkpt>
      <trkpt lat="43.84787" lon="1.80107">
        <ele>126.55</ele>
        <time>2026-05-23T09:15:29Z</time>
      </trkpt>
      <trkpt lat="43.8477" lon="1.80083">
        <ele>126.55</ele>
        <time>2026-05-23T09:15:48Z</time>
      </trkpt>
      <trkpt lat="43.84751" lon="1.80057">
        <ele>126.55</ele>
        <time>2026-05-23T09:16:08Z</time>
      </trkpt>
      <trkpt lat="43.84733" lon="1.8003">
        <ele>126.55</ele>
        <time>2026-05-23T09:16:27Z</time>
      </trkpt>
      <trkpt lat="43.84716" lon="1.80008">
        <ele>126.55</ele>
        <time>2026-05-23T09:16:45Z</time>
      </trkpt>
      <trkpt lat="43.84704" lon="1.79983">
        <ele>125.59</ele>
        <time>2026-05-23T09:17:01Z</time>
      </trkpt>
      <trkpt lat="43.84701" lon="1.79973">
        <ele>125.11</ele>
        <time>2026-05-23T09:17:06Z</time>
      </trkpt>
      <trkpt lat="43.847" lon="1.79971">
        <ele>125.11</ele>
        <time>2026-05-23T09:17:08Z</time>
      </trkpt>
      <trkpt lat="43.84699" lon="1.79969">
        <ele>125.11</ele>
        <time>2026-05-23T09:17:09Z</time>
      </trkpt>
      <trkpt lat="43.8469" lon="1.79943">
        <ele>124.63</ele>
        <time>2026-05-23T09:17:25Z</time>
      </trkpt>
      <trkpt lat="43.84682" lon="1.79911">
        <ele>124.15</ele>
        <time>2026-05-23T09:17:43Z</time>
      </trkpt>
      <trkpt lat="43.84675" lon="1.79876">
        <ele>124.63</ele>
        <time>2026-05-23T09:18:04Z</time>
      </trkpt>
      <trkpt lat="43.8467" lon="1.79842">
        <ele>124.63</ele>
        <time>2026-05-23T09:18:24Z</time>
      </trkpt>
      <trkpt lat="43.84666" lon="1.79814">
        <ele>125.11</ele>
        <time>2026-05-23T09:18:40Z</time>
      </trkpt>
      <trkpt lat="43.84664" lon="1.79781">
        <ele>124.63</ele>
        <time>2026-05-23T09:18:58Z</time>
      </trkpt>
      <trkpt lat="43.84662" lon="1.79747">
        <ele>124.63</ele>
        <time>2026-05-23T09:19:16Z</time>
      </trkpt>
      <trkpt lat="43.8466" lon="1.79713">
        <ele>124.63</ele>
        <time>2026-05-23T09:19:35Z</time>
      </trkpt>
      <trkpt lat="43.84657" lon="1.79683">
        <ele>125.11</ele>
        <time>2026-05-23T09:19:52Z</time>
      </trkpt>
      <trkpt lat="43.84651" lon="1.7965">
        <ele>125.59</ele>
        <time>2026-05-23T09:20:11Z</time>
      </trkpt>
      <trkpt lat="43.84643" lon="1.79615">
        <ele>125.59</ele>
        <time>2026-05-23T09:20:31Z</time>
      </trkpt>
      <trkpt lat="43.84638" lon="1.79583">
        <ele>125.59</ele>
        <time>2026-05-23T09:20:48Z</time>
      </trkpt>
      <trkpt lat="43.84648" lon="1.79556">
        <ele>126.07</ele>
        <time>2026-05-23T09:21:06Z</time>
      </trkpt>
      <trkpt lat="43.84648" lon="1.79554">
        <ele>126.07</ele>
        <time>2026-05-23T09:21:07Z</time>
      </trkpt>
      <trkpt lat="43.84648" lon="1.79551">
        <ele>126.07</ele>
        <time>2026-05-23T09:21:08Z</time>
      </trkpt>
      <trkpt lat="43.84648" lon="1.7955">
        <ele>126.07</ele>
        <time>2026-05-23T09:21:09Z</time>
      </trkpt>
      <trkpt lat="43.84648" lon="1.79548">
        <ele>126.07</ele>
        <time>2026-05-23T09:21:10Z</time>
      </trkpt>
      <trkpt lat="43.84642" lon="1.79514">
        <ele>126.07</ele>
        <time>2026-05-23T09:21:28Z</time>
      </trkpt>
      <trkpt lat="43.84632" lon="1.79483">
        <ele>126.07</ele>
        <time>2026-05-23T09:21:47Z</time>
      </trkpt>
      <trkpt lat="43.84621" lon="1.7945">
        <ele>126.07</ele>
        <time>2026-05-23T09:22:05Z</time>
      </trkpt>
      <trkpt lat="43.84609" lon="1.79418">
        <ele>126.07</ele>
        <time>2026-05-23T09:22:24Z</time>
      </trkpt>
      <trkpt lat="43.84599" lon="1.79389">
        <ele>126.07</ele>
        <time>2026-05-23T09:22:43Z</time>
      </trkpt>
      <trkpt lat="43.84588" lon="1.7936">
        <ele>126.07</ele>
        <time>2026-05-23T09:23:00Z</time>
      </trkpt>
      <trkpt lat="43.84576" lon="1.79322">
        <ele>126.07</ele>
        <time>2026-05-23T09:23:21Z</time>
      </trkpt>
      <trkpt lat="43.84565" lon="1.79292">
        <ele>126.07</ele>
        <time>2026-05-23T09:23:39Z</time>
      </trkpt>
      <trkpt lat="43.84557" lon="1.79268">
        <ele>125.59</ele>
        <time>2026-05-23T09:23:55Z</time>
      </trkpt>
      <trkpt lat="43.84556" lon="1.79264">
        <ele>125.59</ele>
        <time>2026-05-23T09:24:02Z</time>
      </trkpt>
      <trkpt lat="43.84555" lon="1.79262">
        <ele>125.59</ele>
        <time>2026-05-23T09:24:03Z</time>
      </trkpt>
      <trkpt lat="43.84555" lon="1.79261">
        <ele>125.59</ele>
        <time>2026-05-23T09:24:04Z</time>
      </trkpt>
      <trkpt lat="43.84554" lon="1.79259">
        <ele>125.59</ele>
        <time>2026-05-23T09:24:05Z</time>
      </trkpt>
      <trkpt lat="43.84554" lon="1.79257">
        <ele>125.59</ele>
        <time>2026-05-23T09:24:06Z</time>
      </trkpt>
      <trkpt lat="43.84553" lon="1.79255">
        <ele>125.59</ele>
        <time>2026-05-23T09:24:07Z</time>
      </trkpt>
      <trkpt lat="43.84545" lon="1.79233">
        <ele>125.59</ele>
        <time>2026-05-23T09:24:21Z</time>
      </trkpt>
      <trkpt lat="43.84536" lon="1.79209">
        <ele>125.59</ele>
        <time>2026-05-23T09:24:36Z</time>
      </trkpt>
      <trkpt lat="43.84526" lon="1.79182">
        <ele>125.59</ele>
        <time>2026-05-23T09:24:53Z</time>
      </trkpt>
      <trkpt lat="43.84515" lon="1.79156">
        <ele>125.59</ele>
        <time>2026-05-23T09:25:09Z</time>
      </trkpt>
      <trkpt lat="43.84505" lon="1.79129">
        <ele>125.59</ele>
        <time>2026-05-23T09:25:24Z</time>
      </trkpt>
      <trkpt lat="43.84496" lon="1.79104">
        <ele>125.59</ele>
        <time>2026-05-23T09:25:39Z</time>
      </trkpt>
      <trkpt lat="43.8449" lon="1.79079">
        <ele>125.59</ele>
        <time>2026-05-23T09:25:53Z</time>
      </trkpt>
      <trkpt lat="43.84483" lon="1.79053">
        <ele>125.59</ele>
        <time>2026-05-23T09:26:08Z</time>
      </trkpt>
      <trkpt lat="43.84477" lon="1.7903">
        <ele>125.59</ele>
        <time>2026-05-23T09:26:23Z</time>
      </trkpt>
      <trkpt lat="43.84473" lon="1.79007">
        <ele>124.63</ele>
        <time>2026-05-23T09:26:36Z</time>
      </trkpt>
      <trkpt lat="43.84467" lon="1.78983">
        <ele>124.63</ele>
        <time>2026-05-23T09:26:50Z</time>
      </trkpt>
      <trkpt lat="43.8446" lon="1.78958">
        <ele>124.63</ele>
        <time>2026-05-23T09:27:05Z</time>
      </trkpt>
      <trkpt lat="43.8446" lon="1.78957">
        <ele>124.63</ele>
        <time>2026-05-23T09:27:09Z</time>
      </trkpt>
      <trkpt lat="43.8446" lon="1.78955">
        <ele>124.63</ele>
        <time>2026-05-23T09:27:10Z</time>
      </trkpt>
      <trkpt lat="43.84459" lon="1.78952">
        <ele>124.63</ele>
        <time>2026-05-23T09:27:11Z</time>
      </trkpt>
      <trkpt lat="43.8445" lon="1.78925">
        <ele>124.63</ele>
        <time>2026-05-23T09:27:27Z</time>
      </trkpt>
      <trkpt lat="43.84441" lon="1.78898">
        <ele>124.63</ele>
        <time>2026-05-23T09:27:43Z</time>
      </trkpt>
      <trkpt lat="43.84429" lon="1.78872">
        <ele>124.63</ele>
        <time>2026-05-23T09:28:00Z</time>
      </trkpt>
      <trkpt lat="43.84415" lon="1.78845">
        <ele>124.63</ele>
        <time>2026-05-23T09:28:17Z</time>
      </trkpt>
      <trkpt lat="43.844" lon="1.78821">
        <ele>124.63</ele>
        <time>2026-05-23T09:28:34Z</time>
      </trkpt>
      <trkpt lat="43.84383" lon="1.78799">
        <ele>124.15</ele>
        <time>2026-05-23T09:28:51Z</time>
      </trkpt>
      <trkpt lat="43.84366" lon="1.78777">
        <ele>124.15</ele>
        <time>2026-05-23T09:29:08Z</time>
      </trkpt>
      <trkpt lat="43.84352" lon="1.78754">
        <ele>124.15</ele>
        <time>2026-05-23T09:29:25Z</time>
      </trkpt>
      <trkpt lat="43.84336" lon="1.78732">
        <ele>124.15</ele>
        <time>2026-05-23T09:29:42Z</time>
      </trkpt>
      <trkpt lat="43.84326" lon="1.7872">
        <ele>124.15</ele>
        <time>2026-05-23T09:29:53Z</time>
      </trkpt>
      <trkpt lat="43.84325" lon="1.78719">
        <ele>124.15</ele>
        <time>2026-05-23T09:29:54Z</time>
      </trkpt>
      <trkpt lat="43.84308" lon="1.78704">
        <ele>124.15</ele>
        <time>2026-05-23T09:30:10Z</time>
      </trkpt>
      <trkpt lat="43.84291" lon="1.78684">
        <ele>124.15</ele>
        <time>2026-05-23T09:30:27Z</time>
      </trkpt>
      <trkpt lat="43.84273" lon="1.78662">
        <ele>124.15</ele>
        <time>2026-05-23T09:30:44Z</time>
      </trkpt>
      <trkpt lat="43.84255" lon="1.78642">
        <ele>124.15</ele>
        <time>2026-05-23T09:31:03Z</time>
      </trkpt>
      <trkpt lat="43.84236" lon="1.7862">
        <ele>124.15</ele>
        <time>2026-05-23T09:31:20Z</time>
      </trkpt>
      <trkpt lat="43.84218" lon="1.78599">
        <ele>124.15</ele>
        <time>2026-05-23T09:31:38Z</time>
      </trkpt>
      <trkpt lat="43.84204" lon="1.78579">
        <ele>124.15</ele>
        <time>2026-05-23T09:31:54Z</time>
      </trkpt>
      <trkpt lat="43.84193" lon="1.78563">
        <ele>124.15</ele>
        <time>2026-05-23T09:32:08Z</time>
      </trkpt>
      <trkpt lat="43.84188" lon="1.78555">
        <ele>124.15</ele>
        <time>2026-05-23T09:32:26Z</time>
      </trkpt>
      <trkpt lat="43.84179" lon="1.78537">
        <ele>123.67</ele>
        <time>2026-05-23T09:32:39Z</time>
      </trkpt>
      <trkpt lat="43.8417" lon="1.78517">
        <ele>123.67</ele>
        <time>2026-05-23T09:32:52Z</time>
      </trkpt>
      <trkpt lat="43.84161" lon="1.78492">
        <ele>123.67</ele>
        <time>2026-05-23T09:33:07Z</time>
      </trkpt>
      <trkpt lat="43.84154" lon="1.78468">
        <ele>123.67</ele>
        <time>2026-05-23T09:33:21Z</time>
      </trkpt>
      <trkpt lat="43.84149" lon="1.78441">
        <ele>123.67</ele>
        <time>2026-05-23T09:33:37Z</time>
      </trkpt>
      <trkpt lat="43.84142" lon="1.78416">
        <ele>123.67</ele>
        <time>2026-05-23T09:33:53Z</time>
      </trkpt>
      <trkpt lat="43.84135" lon="1.7839">
        <ele>123.67</ele>
        <time>2026-05-23T09:34:09Z</time>
      </trkpt>
      <trkpt lat="43.84128" lon="1.78362">
        <ele>123.19</ele>
        <time>2026-05-23T09:34:25Z</time>
      </trkpt>
      <trkpt lat="43.84123" lon="1.78335">
        <ele>123.19</ele>
        <time>2026-05-23T09:34:41Z</time>
      </trkpt>
      <trkpt lat="43.84119" lon="1.78307">
        <ele>123.19</ele>
        <time>2026-05-23T09:34:57Z</time>
      </trkpt>
      <trkpt lat="43.84116" lon="1.78278">
        <ele>123.19</ele>
        <time>2026-05-23T09:35:14Z</time>
      </trkpt>
      <trkpt lat="43.84113" lon="1.78249">
        <ele>123.19</ele>
        <time>2026-05-23T09:35:30Z</time>
      </trkpt>
      <trkpt lat="43.8411" lon="1.7822">
        <ele>123.19</ele>
        <time>2026-05-23T09:35:46Z</time>
      </trkpt>
      <trkpt lat="43.84109" lon="1.78205">
        <ele>123.19</ele>
        <time>2026-05-23T09:36:01Z</time>
      </trkpt>
      <trkpt lat="43.8411" lon="1.78203">
        <ele>123.19</ele>
        <time>2026-05-23T09:36:16Z</time>
      </trkpt>
      <trkpt lat="43.84109" lon="1.78201">
        <ele>123.19</ele>
        <time>2026-05-23T09:36:17Z</time>
      </trkpt>
      <trkpt lat="43.84109" lon="1.78199">
        <ele>123.19</ele>
        <time>2026-05-23T09:36:18Z</time>
      </trkpt>
      <trkpt lat="43.84107" lon="1.78177">
        <ele>123.19</ele>
        <time>2026-05-23T09:36:30Z</time>
      </trkpt>
      <trkpt lat="43.84107" lon="1.78152">
        <ele>123.19</ele>
        <time>2026-05-23T09:36:44Z</time>
      </trkpt>
      <trkpt lat="43.84108" lon="1.78127">
        <ele>123.19</ele>
        <time>2026-05-23T09:36:58Z</time>
      </trkpt>
      <trkpt lat="43.8411" lon="1.78101">
        <ele>123.19</ele>
        <time>2026-05-23T09:37:13Z</time>
      </trkpt>
      <trkpt lat="43.84112" lon="1.78069">
        <ele>123.19</ele>
        <time>2026-05-23T09:37:31Z</time>
      </trkpt>
      <trkpt lat="43.84113" lon="1.78041">
        <ele>123.19</ele>
        <time>2026-05-23T09:37:47Z</time>
      </trkpt>
      <trkpt lat="43.84119" lon="1.78013">
        <ele>123.19</ele>
        <time>2026-05-23T09:38:03Z</time>
      </trkpt>
      <trkpt lat="43.84126" lon="1.77984">
        <ele>123.19</ele>
        <time>2026-05-23T09:38:20Z</time>
      </trkpt>
      <trkpt lat="43.84133" lon="1.77954">
        <ele>123.19</ele>
        <time>2026-05-23T09:38:37Z</time>
      </trkpt>
      <trkpt lat="43.84137" lon="1.77925">
        <ele>123.19</ele>
        <time>2026-05-23T09:38:53Z</time>
      </trkpt>
      <trkpt lat="43.84138" lon="1.77898">
        <ele>122.71</ele>
        <time>2026-05-23T09:39:08Z</time>
      </trkpt>
      <trkpt lat="43.84139" lon="1.77878">
        <ele>122.71</ele>
        <time>2026-05-23T09:39:19Z</time>
      </trkpt>
      <trkpt lat="43.84137" lon="1.77849">
        <ele>122.22</ele>
        <time>2026-05-23T09:39:35Z</time>
      </trkpt>
      <trkpt lat="43.84134" lon="1.77825">
        <ele>122.71</ele>
        <time>2026-05-23T09:39:49Z</time>
      </trkpt>
      <trkpt lat="43.84132" lon="1.77798">
        <ele>122.71</ele>
        <time>2026-05-23T09:40:04Z</time>
      </trkpt>
      <trkpt lat="43.84128" lon="1.77766">
        <ele>122.71</ele>
        <time>2026-05-23T09:40:22Z</time>
      </trkpt>
      <trkpt lat="43.84125" lon="1.77733">
        <ele>122.22</ele>
        <time>2026-05-23T09:40:40Z</time>
      </trkpt>
      <trkpt lat="43.84123" lon="1.77704">
        <ele>122.22</ele>
        <time>2026-05-23T09:40:56Z</time>
      </trkpt>
      <trkpt lat="43.84121" lon="1.77673">
        <ele>122.22</ele>
        <time>2026-05-23T09:41:13Z</time>
      </trkpt>
      <trkpt lat="43.84119" lon="1.77649">
        <ele>122.22</ele>
        <time>2026-05-23T09:41:28Z</time>
      </trkpt>
      <trkpt lat="43.84119" lon="1.77647">
        <ele>122.22</ele>
        <time>2026-05-23T09:41:29Z</time>
      </trkpt>
      <trkpt lat="43.84119" lon="1.77645">
        <ele>122.22</ele>
        <time>2026-05-23T09:41:30Z</time>
      </trkpt>
      <trkpt lat="43.84118" lon="1.77643">
        <ele>122.22</ele>
        <time>2026-05-23T09:41:31Z</time>
      </trkpt>
      <trkpt lat="43.84115" lon="1.77627">
        <ele>121.74</ele>
        <time>2026-05-23T09:41:42Z</time>
      </trkpt>
      <trkpt lat="43.84111" lon="1.77603">
        <ele>121.74</ele>
        <time>2026-05-23T09:41:55Z</time>
      </trkpt>
      <trkpt lat="43.8411" lon="1.77576">
        <ele>121.74</ele>
        <time>2026-05-23T09:42:10Z</time>
      </trkpt>
      <trkpt lat="43.84107" lon="1.77549">
        <ele>121.74</ele>
        <time>2026-05-23T09:42:26Z</time>
      </trkpt>
      <trkpt lat="43.84102" lon="1.77524">
        <ele>121.74</ele>
        <time>2026-05-23T09:42:40Z</time>
      </trkpt>
      <trkpt lat="43.84095" lon="1.77501">
        <ele>121.74</ele>
        <time>2026-05-23T09:42:54Z</time>
      </trkpt>
      <trkpt lat="43.84087" lon="1.77476">
        <ele>121.74</ele>
        <time>2026-05-23T09:43:09Z</time>
      </trkpt>
      <trkpt lat="43.84079" lon="1.77452">
        <ele>121.74</ele>
        <time>2026-05-23T09:43:24Z</time>
      </trkpt>
      <trkpt lat="43.84069" lon="1.77425">
        <ele>121.26</ele>
        <time>2026-05-23T09:43:40Z</time>
      </trkpt>
      <trkpt lat="43.84066" lon="1.77412">
        <ele>121.26</ele>
        <time>2026-05-23T09:43:53Z</time>
      </trkpt>
      <trkpt lat="43.84067" lon="1.77408">
        <ele>121.26</ele>
        <time>2026-05-23T09:44:07Z</time>
      </trkpt>
      <trkpt lat="43.84067" lon="1.77409">
        <ele>121.26</ele>
        <time>2026-05-23T09:44:38Z</time>
      </trkpt>
      <trkpt lat="43.84067" lon="1.77409">
        <ele>121.26</ele>
        <time>2026-05-23T09:45:03Z</time>
      </trkpt>
      <trkpt lat="43.84067" lon="1.77408">
        <ele>121.26</ele>
        <time>2026-05-23T09:45:36Z</time>
      </trkpt>
      <trkpt lat="43.84068" lon="1.77407">
        <ele>120.3</ele>
        <time>2026-05-23T09:46:05Z</time>
      </trkpt>
      <trkpt lat="43.84068" lon="1.77408">
        <ele>120.3</ele>
        <time>2026-05-23T09:46:35Z</time>
      </trkpt>
      <trkpt lat="43.84068" lon="1.77409">
        <ele>120.3</ele>
        <time>2026-05-23T09:47:05Z</time>
      </trkpt>
      <trkpt lat="43.84067" lon="1.77407">
        <ele>120.3</ele>
        <time>2026-05-23T09:47:24Z</time>
      </trkpt>
      <trkpt lat="43.84066" lon="1.77405">
        <ele>120.3</ele>
        <time>2026-05-23T09:47:25Z</time>
      </trkpt>
      <trkpt lat="43.84066" lon="1.77403">
        <ele>120.3</ele>
        <time>2026-05-23T09:47:26Z</time>
      </trkpt>
      <trkpt lat="43.84065" lon="1.77401">
        <ele>120.3</ele>
        <time>2026-05-23T09:47:27Z</time>
      </trkpt>
      <trkpt lat="43.84065" lon="1.774">
        <ele>120.3</ele>
        <time>2026-05-23T09:47:28Z</time>
      </trkpt>
      <trkpt lat="43.84061" lon="1.77393">
        <ele>120.3</ele>
        <time>2026-05-23T09:47:34Z</time>
      </trkpt>
      <trkpt lat="43.84061" lon="1.77392">
        <ele>120.3</ele>
        <time>2026-05-23T09:47:35Z</time>
      </trkpt>
      <trkpt lat="43.84051" lon="1.77367">
        <ele>120.3</ele>
        <time>2026-05-23T09:47:50Z</time>
      </trkpt>
      <trkpt lat="43.8404" lon="1.77339">
        <ele>120.3</ele>
        <time>2026-05-23T09:48:05Z</time>
      </trkpt>
      <trkpt lat="43.8403" lon="1.77312">
        <ele>120.3</ele>
        <time>2026-05-23T09:48:22Z</time>
      </trkpt>
      <trkpt lat="43.84019" lon="1.77291">
        <ele>120.3</ele>
        <time>2026-05-23T09:48:37Z</time>
      </trkpt>
      <trkpt lat="43.84007" lon="1.77265">
        <ele>120.3</ele>
        <time>2026-05-23T09:48:54Z</time>
      </trkpt>
      <trkpt lat="43.83996" lon="1.77236">
        <ele>120.3</ele>
        <time>2026-05-23T09:49:10Z</time>
      </trkpt>
      <trkpt lat="43.83994" lon="1.77231">
        <ele>120.3</ele>
        <time>2026-05-23T09:49:14Z</time>
      </trkpt>
      <trkpt lat="43.83994" lon="1.77229">
        <ele>120.3</ele>
        <time>2026-05-23T09:49:15Z</time>
      </trkpt>
      <trkpt lat="43.83993" lon="1.77223">
        <ele>120.3</ele>
        <time>2026-05-23T09:49:19Z</time>
      </trkpt>
      <trkpt lat="43.83993" lon="1.77217">
        <ele>119.82</ele>
        <time>2026-05-23T09:49:32Z</time>
      </trkpt>
      <trkpt lat="43.83991" lon="1.77217">
        <ele>119.82</ele>
        <time>2026-05-23T09:49:39Z</time>
      </trkpt>
      <trkpt lat="43.83968" lon="1.77208">
        <ele>119.82</ele>
        <time>2026-05-23T09:49:57Z</time>
      </trkpt>
      <trkpt lat="43.83951" lon="1.77201">
        <ele>119.82</ele>
        <time>2026-05-23T09:50:12Z</time>
      </trkpt>
      <trkpt lat="43.83933" lon="1.77192">
        <ele>119.34</ele>
        <time>2026-05-23T09:50:27Z</time>
      </trkpt>
      <trkpt lat="43.83928" lon="1.77187">
        <ele>119.34</ele>
        <time>2026-05-23T09:50:32Z</time>
      </trkpt>
      <trkpt lat="43.83923" lon="1.77158">
        <ele>118.86</ele>
        <time>2026-05-23T09:50:48Z</time>
      </trkpt>
      <trkpt lat="43.8392" lon="1.77135">
        <ele>118.38</ele>
        <time>2026-05-23T09:51:00Z</time>
      </trkpt>
      <trkpt lat="43.8392" lon="1.77134">
        <ele>118.38</ele>
        <time>2026-05-23T09:51:01Z</time>
      </trkpt>
      <trkpt lat="43.83919" lon="1.77132">
        <ele>118.38</ele>
        <time>2026-05-23T09:51:02Z</time>
      </trkpt>
      <trkpt lat="43.83918" lon="1.7713">
        <ele>118.38</ele>
        <time>2026-05-23T09:51:03Z</time>
      </trkpt>
      <trkpt lat="43.83918" lon="1.77128">
        <ele>118.38</ele>
        <time>2026-05-23T09:51:04Z</time>
      </trkpt>
      <trkpt lat="43.83917" lon="1.77126">
        <ele>118.38</ele>
        <time>2026-05-23T09:51:05Z</time>
      </trkpt>
      <trkpt lat="43.83916" lon="1.77125">
        <ele>118.38</ele>
        <time>2026-05-23T09:51:06Z</time>
      </trkpt>
      <trkpt lat="43.83915" lon="1.77123">
        <ele>118.38</ele>
        <time>2026-05-23T09:51:07Z</time>
      </trkpt>
      <trkpt lat="43.83914" lon="1.77122">
        <ele>118.38</ele>
        <time>2026-05-23T09:51:08Z</time>
      </trkpt>
      <trkpt lat="43.83896" lon="1.77104">
        <ele>117.9</ele>
        <time>2026-05-23T09:51:24Z</time>
      </trkpt>
      <trkpt lat="43.83884" lon="1.7708">
        <ele>117.9</ele>
        <time>2026-05-23T09:51:40Z</time>
      </trkpt>
      <trkpt lat="43.83881" lon="1.77071">
        <ele>117.9</ele>
        <time>2026-05-23T09:51:46Z</time>
      </trkpt>
      <trkpt lat="43.8388" lon="1.77069">
        <ele>117.9</ele>
        <time>2026-05-23T09:51:47Z</time>
      </trkpt>
      <trkpt lat="43.83863" lon="1.77045">
        <ele>117.9</ele>
        <time>2026-05-23T09:52:05Z</time>
      </trkpt>
      <trkpt lat="43.83844" lon="1.77025">
        <ele>117.42</ele>
        <time>2026-05-23T09:52:22Z</time>
      </trkpt>
      <trkpt lat="43.83831" lon="1.77012">
        <ele>117.42</ele>
        <time>2026-05-23T09:52:35Z</time>
      </trkpt>
      <trkpt lat="43.8383" lon="1.7701">
        <ele>117.42</ele>
        <time>2026-05-23T09:52:36Z</time>
      </trkpt>
      <trkpt lat="43.83828" lon="1.77009">
        <ele>117.42</ele>
        <time>2026-05-23T09:52:51Z</time>
      </trkpt>
      <trkpt lat="43.83828" lon="1.77007">
        <ele>117.9</ele>
        <time>2026-05-23T09:53:02Z</time>
      </trkpt>
      <trkpt lat="43.83829" lon="1.77005">
        <ele>117.9</ele>
        <time>2026-05-23T09:53:03Z</time>
      </trkpt>
      <trkpt lat="43.83845" lon="1.7698">
        <ele>117.9</ele>
        <time>2026-05-23T09:53:21Z</time>
      </trkpt>
      <trkpt lat="43.8386" lon="1.76954">
        <ele>117.9</ele>
        <time>2026-05-23T09:53:39Z</time>
      </trkpt>
      <trkpt lat="43.83876" lon="1.7693">
        <ele>117.9</ele>
        <time>2026-05-23T09:53:55Z</time>
      </trkpt>
      <trkpt lat="43.83876" lon="1.76925">
        <ele>117.9</ele>
        <time>2026-05-23T09:54:07Z</time>
      </trkpt>
      <trkpt lat="43.83885" lon="1.76921">
        <ele>117.9</ele>
        <time>2026-05-23T09:54:26Z</time>
      </trkpt>
      <trkpt lat="43.83902" lon="1.76907">
        <ele>117.9</ele>
        <time>2026-05-23T09:54:45Z</time>
      </trkpt>
      <trkpt lat="43.83903" lon="1.76906">
        <ele>117.9</ele>
        <time>2026-05-23T09:54:46Z</time>
      </trkpt>
      <trkpt lat="43.83917" lon="1.76868">
        <ele>117.42</ele>
        <time>2026-05-23T09:55:03Z</time>
      </trkpt>
      <trkpt lat="43.83923" lon="1.76853">
        <ele>117.9</ele>
        <time>2026-05-23T09:55:12Z</time>
      </trkpt>
      <trkpt lat="43.83931" lon="1.76815">
        <ele>116.94</ele>
        <time>2026-05-23T09:55:30Z</time>
      </trkpt>
      <trkpt lat="43.83935" lon="1.7678">
        <ele>115.98</ele>
        <time>2026-05-23T09:55:47Z</time>
      </trkpt>
      <trkpt lat="43.83935" lon="1.7677">
        <ele>115.5</ele>
        <time>2026-05-23T09:55:53Z</time>
      </trkpt>
      <trkpt lat="43.83934" lon="1.76768">
        <ele>115.5</ele>
        <time>2026-05-23T09:55:54Z</time>
      </trkpt>
      <trkpt lat="43.83933" lon="1.76767">
        <ele>115.5</ele>
        <time>2026-05-23T09:55:55Z</time>
      </trkpt>
      <trkpt lat="43.83931" lon="1.76766">
        <ele>115.5</ele>
        <time>2026-05-23T09:56:10Z</time>
      </trkpt>
      <trkpt lat="43.83933" lon="1.76765">
        <ele>115.5</ele>
        <time>2026-05-23T09:56:12Z</time>
      </trkpt>
      <trkpt lat="43.83949" lon="1.7675">
        <ele>114.53</ele>
        <time>2026-05-23T09:56:28Z</time>
      </trkpt>
      <trkpt lat="43.83954" lon="1.76741">
        <ele>115.98</ele>
        <time>2026-05-23T09:56:38Z</time>
      </trkpt>
      <trkpt lat="43.83956" lon="1.76738">
        <ele>115.98</ele>
        <time>2026-05-23T09:56:41Z</time>
      </trkpt>
      <trkpt lat="43.83957" lon="1.76736">
        <ele>115.98</ele>
        <time>2026-05-23T09:56:42Z</time>
      </trkpt>
      <trkpt lat="43.83959" lon="1.76735">
        <ele>115.98</ele>
        <time>2026-05-23T09:56:43Z</time>
      </trkpt>
      <trkpt lat="43.83962" lon="1.76732">
        <ele>115.98</ele>
        <time>2026-05-23T09:56:45Z</time>
      </trkpt>
      <trkpt lat="43.83967" lon="1.76719">
        <ele>116.46</ele>
        <time>2026-05-23T09:56:55Z</time>
      </trkpt>
      <trkpt lat="43.83968" lon="1.76697">
        <ele>116.46</ele>
        <time>2026-05-23T09:57:05Z</time>
      </trkpt>
      <trkpt lat="43.83969" lon="1.76687">
        <ele>116.46</ele>
        <time>2026-05-23T09:57:11Z</time>
      </trkpt>
      <trkpt lat="43.83971" lon="1.76678">
        <ele>116.46</ele>
        <time>2026-05-23T09:57:15Z</time>
      </trkpt>
      <trkpt lat="43.83973" lon="1.76665">
        <ele>116.46</ele>
        <time>2026-05-23T09:57:23Z</time>
      </trkpt>
      <trkpt lat="43.83973" lon="1.76663">
        <ele>116.46</ele>
        <time>2026-05-23T09:57:24Z</time>
      </trkpt>
      <trkpt lat="43.83973" lon="1.76661">
        <ele>116.46</ele>
        <time>2026-05-23T09:57:25Z</time>
      </trkpt>
      <trkpt lat="43.83973" lon="1.76658">
        <ele>116.46</ele>
        <time>2026-05-23T09:57:26Z</time>
      </trkpt>
      <trkpt lat="43.83973" lon="1.76656">
        <ele>116.46</ele>
        <time>2026-05-23T09:57:27Z</time>
      </trkpt>
      <trkpt lat="43.83973" lon="1.76653">
        <ele>116.46</ele>
        <time>2026-05-23T09:57:28Z</time>
      </trkpt>
      <trkpt lat="43.8397" lon="1.76631">
        <ele>115.01</ele>
        <time>2026-05-23T09:57:40Z</time>
      </trkpt>
      <trkpt lat="43.83961" lon="1.76611">
        <ele>115.5</ele>
        <time>2026-05-23T09:57:54Z</time>
      </trkpt>
      <trkpt lat="43.83956" lon="1.766">
        <ele>115.5</ele>
        <time>2026-05-23T09:58:06Z</time>
      </trkpt>
      <trkpt lat="43.83955" lon="1.76588">
        <ele>116.46</ele>
        <time>2026-05-23T09:58:21Z</time>
      </trkpt>
      <trkpt lat="43.83953" lon="1.76584">
        <ele>116.94</ele>
        <time>2026-05-23T09:58:24Z</time>
      </trkpt>
      <trkpt lat="43.83953" lon="1.76583">
        <ele>116.94</ele>
        <time>2026-05-23T09:58:25Z</time>
      </trkpt>
      <trkpt lat="43.83943" lon="1.7657">
        <ele>118.38</ele>
        <time>2026-05-23T09:58:37Z</time>
      </trkpt>
      <trkpt lat="43.83942" lon="1.76569">
        <ele>118.38</ele>
        <time>2026-05-23T09:58:38Z</time>
      </trkpt>
      <trkpt lat="43.83941" lon="1.76567">
        <ele>118.38</ele>
        <time>2026-05-23T09:58:39Z</time>
      </trkpt>
      <trkpt lat="43.8394" lon="1.76566">
        <ele>118.38</ele>
        <time>2026-05-23T09:58:40Z</time>
      </trkpt>
      <trkpt lat="43.8394" lon="1.76564">
        <ele>118.38</ele>
        <time>2026-05-23T09:58:41Z</time>
      </trkpt>
      <trkpt lat="43.83937" lon="1.76556">
        <ele>118.38</ele>
        <time>2026-05-23T09:58:47Z</time>
      </trkpt>
      <trkpt lat="43.83937" lon="1.76537">
        <ele>118.86</ele>
        <time>2026-05-23T09:58:59Z</time>
      </trkpt>
      <trkpt lat="43.83944" lon="1.76514">
        <ele>118.86</ele>
        <time>2026-05-23T09:59:14Z</time>
      </trkpt>
      <trkpt lat="43.83948" lon="1.765">
        <ele>118.86</ele>
        <time>2026-05-23T09:59:24Z</time>
      </trkpt>
      <trkpt lat="43.83948" lon="1.76498">
        <ele>118.86</ele>
        <time>2026-05-23T09:59:25Z</time>
      </trkpt>
      <trkpt lat="43.83949" lon="1.76496">
        <ele>118.86</ele>
        <time>2026-05-23T09:59:26Z</time>
      </trkpt>
      <trkpt lat="43.8395" lon="1.76494">
        <ele>118.86</ele>
        <time>2026-05-23T09:59:27Z</time>
      </trkpt>
      <trkpt lat="43.8395" lon="1.76493">
        <ele>118.86</ele>
        <time>2026-05-23T09:59:28Z</time>
      </trkpt>
      <trkpt lat="43.83952" lon="1.76487">
        <ele>118.86</ele>
        <time>2026-05-23T09:59:33Z</time>
      </trkpt>
      <trkpt lat="43.83952" lon="1.76485">
        <ele>118.86</ele>
        <time>2026-05-23T09:59:34Z</time>
      </trkpt>
      <trkpt lat="43.83953" lon="1.76483">
        <ele>118.86</ele>
        <time>2026-05-23T09:59:35Z</time>
      </trkpt>
      <trkpt lat="43.83959" lon="1.76459">
        <ele>119.34</ele>
        <time>2026-05-23T09:59:49Z</time>
      </trkpt>
      <trkpt lat="43.83962" lon="1.76448">
        <ele>120.3</ele>
        <time>2026-05-23T09:59:57Z</time>
      </trkpt>
      <trkpt lat="43.83963" lon="1.76447">
        <ele>120.3</ele>
        <time>2026-05-23T09:59:58Z</time>
      </trkpt>
      <trkpt lat="43.83963" lon="1.76445">
        <ele>120.3</ele>
        <time>2026-05-23T09:59:59Z</time>
      </trkpt>
      <trkpt lat="43.83968" lon="1.76431">
        <ele>121.74</ele>
        <time>2026-05-23T10:00:11Z</time>
      </trkpt>
      <trkpt lat="43.83969" lon="1.76428">
        <ele>122.71</ele>
        <time>2026-05-23T10:00:14Z</time>
      </trkpt>
      <trkpt lat="43.83969" lon="1.76426">
        <ele>122.71</ele>
        <time>2026-05-23T10:00:15Z</time>
      </trkpt>
      <trkpt lat="43.83969" lon="1.76424">
        <ele>122.71</ele>
        <time>2026-05-23T10:00:16Z</time>
      </trkpt>
      <trkpt lat="43.8397" lon="1.76422">
        <ele>122.71</ele>
        <time>2026-05-23T10:00:17Z</time>
      </trkpt>
      <trkpt lat="43.8397" lon="1.76421">
        <ele>122.71</ele>
        <time>2026-05-23T10:00:18Z</time>
      </trkpt>
      <trkpt lat="43.83973" lon="1.76401">
        <ele>123.19</ele>
        <time>2026-05-23T10:00:31Z</time>
      </trkpt>
      <trkpt lat="43.83978" lon="1.76377">
        <ele>123.67</ele>
        <time>2026-05-23T10:00:44Z</time>
      </trkpt>
      <trkpt lat="43.83978" lon="1.76354">
        <ele>123.67</ele>
        <time>2026-05-23T10:00:57Z</time>
      </trkpt>
      <trkpt lat="43.83975" lon="1.76329">
        <ele>123.67</ele>
        <time>2026-05-23T10:01:11Z</time>
      </trkpt>
      <trkpt lat="43.83972" lon="1.76306">
        <ele>123.67</ele>
        <time>2026-05-23T10:01:24Z</time>
      </trkpt>
      <trkpt lat="43.8397" lon="1.76291">
        <ele>123.67</ele>
        <time>2026-05-23T10:01:33Z</time>
      </trkpt>
      <trkpt lat="43.8397" lon="1.76289">
        <ele>123.67</ele>
        <time>2026-05-23T10:01:34Z</time>
      </trkpt>
      <trkpt lat="43.8397" lon="1.76286">
        <ele>123.67</ele>
        <time>2026-05-23T10:01:35Z</time>
      </trkpt>
      <trkpt lat="43.83969" lon="1.76284">
        <ele>123.67</ele>
        <time>2026-05-23T10:01:36Z</time>
      </trkpt>
      <trkpt lat="43.83969" lon="1.76282">
        <ele>123.67</ele>
        <time>2026-05-23T10:01:37Z</time>
      </trkpt>
      <trkpt lat="43.83966" lon="1.76258">
        <ele>123.67</ele>
        <time>2026-05-23T10:01:50Z</time>
      </trkpt>
      <trkpt lat="43.83962" lon="1.76233">
        <ele>123.67</ele>
        <time>2026-05-23T10:02:04Z</time>
      </trkpt>
      <trkpt lat="43.83957" lon="1.76211">
        <ele>123.67</ele>
        <time>2026-05-23T10:02:17Z</time>
      </trkpt>
      <trkpt lat="43.83952" lon="1.76187">
        <ele>123.67</ele>
        <time>2026-05-23T10:02:31Z</time>
      </trkpt>
      <trkpt lat="43.83947" lon="1.76165">
        <ele>123.67</ele>
        <time>2026-05-23T10:02:44Z</time>
      </trkpt>
      <trkpt lat="43.83941" lon="1.76149">
        <ele>123.67</ele>
        <time>2026-05-23T10:02:55Z</time>
      </trkpt>
      <trkpt lat="43.83933" lon="1.76129">
        <ele>123.67</ele>
        <time>2026-05-23T10:03:08Z</time>
      </trkpt>
      <trkpt lat="43.83925" lon="1.7611">
        <ele>123.67</ele>
        <time>2026-05-23T10:03:21Z</time>
      </trkpt>
      <trkpt lat="43.83917" lon="1.76087">
        <ele>123.67</ele>
        <time>2026-05-23T10:03:35Z</time>
      </trkpt>
      <trkpt lat="43.8391" lon="1.76064">
        <ele>123.67</ele>
        <time>2026-05-23T10:03:49Z</time>
      </trkpt>
      <trkpt lat="43.83901" lon="1.7604">
        <ele>123.67</ele>
        <time>2026-05-23T10:04:03Z</time>
      </trkpt>
      <trkpt lat="43.83893" lon="1.76016">
        <ele>123.67</ele>
        <time>2026-05-23T10:04:17Z</time>
      </trkpt>
      <trkpt lat="43.83884" lon="1.75998">
        <ele>123.67</ele>
        <time>2026-05-23T10:04:30Z</time>
      </trkpt>
      <trkpt lat="43.83877" lon="1.75976">
        <ele>123.67</ele>
        <time>2026-05-23T10:04:44Z</time>
      </trkpt>
      <trkpt lat="43.8387" lon="1.75953">
        <ele>123.67</ele>
        <time>2026-05-23T10:04:57Z</time>
      </trkpt>
      <trkpt lat="43.83861" lon="1.75929">
        <ele>122.22</ele>
        <time>2026-05-23T10:05:11Z</time>
      </trkpt>
      <trkpt lat="43.83854" lon="1.75907">
        <ele>122.22</ele>
        <time>2026-05-23T10:05:25Z</time>
      </trkpt>
      <trkpt lat="43.83846" lon="1.75879">
        <ele>122.22</ele>
        <time>2026-05-23T10:05:42Z</time>
      </trkpt>
      <trkpt lat="43.83838" lon="1.75854">
        <ele>122.22</ele>
        <time>2026-05-23T10:05:57Z</time>
      </trkpt>
      <trkpt lat="43.83829" lon="1.75825">
        <ele>122.22</ele>
        <time>2026-05-23T10:06:12Z</time>
      </trkpt>
      <trkpt lat="43.83822" lon="1.75798">
        <ele>122.22</ele>
        <time>2026-05-23T10:06:28Z</time>
      </trkpt>
      <trkpt lat="43.83816" lon="1.75774">
        <ele>122.22</ele>
        <time>2026-05-23T10:06:43Z</time>
      </trkpt>
      <trkpt lat="43.83808" lon="1.75748">
        <ele>122.22</ele>
        <time>2026-05-23T10:07:00Z</time>
      </trkpt>
      <trkpt lat="43.83802" lon="1.75722">
        <ele>121.26</ele>
        <time>2026-05-23T10:07:15Z</time>
      </trkpt>
      <trkpt lat="43.83799" lon="1.75694">
        <ele>121.26</ele>
        <time>2026-05-23T10:07:30Z</time>
      </trkpt>
      <trkpt lat="43.83795" lon="1.75665">
        <ele>121.26</ele>
        <time>2026-05-23T10:07:45Z</time>
      </trkpt>
      <trkpt lat="43.83793" lon="1.75636">
        <ele>121.26</ele>
        <time>2026-05-23T10:08:01Z</time>
      </trkpt>
      <trkpt lat="43.83791" lon="1.75616">
        <ele>120.78</ele>
        <time>2026-05-23T10:08:16Z</time>
      </trkpt>
      <trkpt lat="43.83789" lon="1.75592">
        <ele>120.3</ele>
        <time>2026-05-23T10:08:29Z</time>
      </trkpt>
      <trkpt lat="43.83786" lon="1.75567">
        <ele>120.3</ele>
        <time>2026-05-23T10:08:44Z</time>
      </trkpt>
      <trkpt lat="43.83779" lon="1.75549">
        <ele>120.3</ele>
        <time>2026-05-23T10:08:57Z</time>
      </trkpt>
      <trkpt lat="43.83772" lon="1.75537">
        <ele>120.3</ele>
        <time>2026-05-23T10:09:07Z</time>
      </trkpt>
      <trkpt lat="43.83757" lon="1.75512">
        <ele>120.3</ele>
        <time>2026-05-23T10:09:23Z</time>
      </trkpt>
      <trkpt lat="43.83745" lon="1.7549">
        <ele>119.82</ele>
        <time>2026-05-23T10:09:36Z</time>
      </trkpt>
      <trkpt lat="43.83743" lon="1.75487">
        <ele>119.82</ele>
        <time>2026-05-23T10:09:38Z</time>
      </trkpt>
      <trkpt lat="43.83737" lon="1.75477">
        <ele>119.82</ele>
        <time>2026-05-23T10:09:44Z</time>
      </trkpt>
      <trkpt lat="43.8373" lon="1.75469">
        <ele>119.82</ele>
        <time>2026-05-23T10:09:52Z</time>
      </trkpt>
      <trkpt lat="43.83714" lon="1.75451">
        <ele>119.82</ele>
        <time>2026-05-23T10:10:06Z</time>
      </trkpt>
      <trkpt lat="43.83713" lon="1.75446">
        <ele>118.86</ele>
        <time>2026-05-23T10:10:21Z</time>
      </trkpt>
      <trkpt lat="43.83712" lon="1.75441">
        <ele>118.86</ele>
        <time>2026-05-23T10:10:59Z</time>
      </trkpt>
      <trkpt lat="43.83712" lon="1.75439">
        <ele>118.86</ele>
        <time>2026-05-23T10:11:00Z</time>
      </trkpt>
      <trkpt lat="43.83706" lon="1.75432">
        <ele>120.3</ele>
        <time>2026-05-23T10:11:11Z</time>
      </trkpt>
      <trkpt lat="43.837" lon="1.7543">
        <ele>120.78</ele>
        <time>2026-05-23T10:11:26Z</time>
      </trkpt>
      <trkpt lat="43.83695" lon="1.75431">
        <ele>121.26</ele>
        <time>2026-05-23T10:11:35Z</time>
      </trkpt>
      <trkpt lat="43.83686" lon="1.75432">
        <ele>119.82</ele>
        <time>2026-05-23T10:11:42Z</time>
      </trkpt>
      <trkpt lat="43.83673" lon="1.75431">
        <ele>119.34</ele>
        <time>2026-05-23T10:11:56Z</time>
      </trkpt>
      <trkpt lat="43.83655" lon="1.75435">
        <ele>119.34</ele>
        <time>2026-05-23T10:12:10Z</time>
      </trkpt>
      <trkpt lat="43.83635" lon="1.75448">
        <ele>118.86</ele>
        <time>2026-05-23T10:12:26Z</time>
      </trkpt>
      <trkpt lat="43.83617" lon="1.7546">
        <ele>118.86</ele>
        <time>2026-05-23T10:12:41Z</time>
      </trkpt>
      <trkpt lat="43.83597" lon="1.75464">
        <ele>118.86</ele>
        <time>2026-05-23T10:12:56Z</time>
      </trkpt>
      <trkpt lat="43.83587" lon="1.75464">
        <ele>118.86</ele>
        <time>2026-05-23T10:13:04Z</time>
      </trkpt>
      <trkpt lat="43.83586" lon="1.75464">
        <ele>118.86</ele>
        <time>2026-05-23T10:13:05Z</time>
      </trkpt>
      <trkpt lat="43.83585" lon="1.75464">
        <ele>118.86</ele>
        <time>2026-05-23T10:13:06Z</time>
      </trkpt>
      <trkpt lat="43.83583" lon="1.75464">
        <ele>118.86</ele>
        <time>2026-05-23T10:13:07Z</time>
      </trkpt>
      <trkpt lat="43.83582" lon="1.75464">
        <ele>118.86</ele>
        <time>2026-05-23T10:13:08Z</time>
      </trkpt>
      <trkpt lat="43.83559" lon="1.75464">
        <ele>118.86</ele>
        <time>2026-05-23T10:13:24Z</time>
      </trkpt>
      <trkpt lat="43.83537" lon="1.75465">
        <ele>119.34</ele>
        <time>2026-05-23T10:13:42Z</time>
      </trkpt>
      <trkpt lat="43.83517" lon="1.75462">
        <ele>119.34</ele>
        <time>2026-05-23T10:13:58Z</time>
      </trkpt>
      <trkpt lat="43.83499" lon="1.75455">
        <ele>119.34</ele>
        <time>2026-05-23T10:14:13Z</time>
      </trkpt>
      <trkpt lat="43.83481" lon="1.75446">
        <ele>120.3</ele>
        <time>2026-05-23T10:14:28Z</time>
      </trkpt>
      <trkpt lat="43.83464" lon="1.75439">
        <ele>120.3</ele>
        <time>2026-05-23T10:14:42Z</time>
      </trkpt>
      <trkpt lat="43.83445" lon="1.75429">
        <ele>120.3</ele>
        <time>2026-05-23T10:14:57Z</time>
      </trkpt>
      <trkpt lat="43.83427" lon="1.75419">
        <ele>120.3</ele>
        <time>2026-05-23T10:15:12Z</time>
      </trkpt>
      <trkpt lat="43.8342" lon="1.75416">
        <ele>120.3</ele>
        <time>2026-05-23T10:15:24Z</time>
      </trkpt>
      <trkpt lat="43.83415" lon="1.75413">
        <ele>120.3</ele>
        <time>2026-05-23T10:15:47Z</time>
      </trkpt>
      <trkpt lat="43.83393" lon="1.75401">
        <ele>120.3</ele>
        <time>2026-05-23T10:16:03Z</time>
      </trkpt>
      <trkpt lat="43.83373" lon="1.75389">
        <ele>119.34</ele>
        <time>2026-05-23T10:16:19Z</time>
      </trkpt>
      <trkpt lat="43.83353" lon="1.75378">
        <ele>119.34</ele>
        <time>2026-05-23T10:16:35Z</time>
      </trkpt>
      <trkpt lat="43.83336" lon="1.75369">
        <ele>118.86</ele>
        <time>2026-05-23T10:16:49Z</time>
      </trkpt>
      <trkpt lat="43.83319" lon="1.75361">
        <ele>118.86</ele>
        <time>2026-05-23T10:17:03Z</time>
      </trkpt>
      <trkpt lat="43.83301" lon="1.75352">
        <ele>118.86</ele>
        <time>2026-05-23T10:17:17Z</time>
      </trkpt>
      <trkpt lat="43.83282" lon="1.75342">
        <ele>118.38</ele>
        <time>2026-05-23T10:17:32Z</time>
      </trkpt>
      <trkpt lat="43.83262" lon="1.75333">
        <ele>118.38</ele>
        <time>2026-05-23T10:17:48Z</time>
      </trkpt>
      <trkpt lat="43.83243" lon="1.75325">
        <ele>118.38</ele>
        <time>2026-05-23T10:18:03Z</time>
      </trkpt>
      <trkpt lat="43.8323" lon="1.75318">
        <ele>118.38</ele>
        <time>2026-05-23T10:18:16Z</time>
      </trkpt>
      <trkpt lat="43.8323" lon="1.75316">
        <ele>118.38</ele>
        <time>2026-05-23T10:18:17Z</time>
      </trkpt>
      <trkpt lat="43.83233" lon="1.75294">
        <ele>118.38</ele>
        <time>2026-05-23T10:18:30Z</time>
      </trkpt>
      <trkpt lat="43.83233" lon="1.75291">
        <ele>118.38</ele>
        <time>2026-05-23T10:18:32Z</time>
      </trkpt>
      <trkpt lat="43.83234" lon="1.75289">
        <ele>118.38</ele>
        <time>2026-05-23T10:18:33Z</time>
      </trkpt>
      <trkpt lat="43.83236" lon="1.75264">
        <ele>117.9</ele>
        <time>2026-05-23T10:18:48Z</time>
      </trkpt>
      <trkpt lat="43.83235" lon="1.75262">
        <ele>117.9</ele>
        <time>2026-05-23T10:18:49Z</time>
      </trkpt>
      <trkpt lat="43.83237" lon="1.75234">
        <ele>117.9</ele>
        <time>2026-05-23T10:19:05Z</time>
      </trkpt>
      <trkpt lat="43.83239" lon="1.75207">
        <ele>117.9</ele>
        <time>2026-05-23T10:19:20Z</time>
      </trkpt>
      <trkpt lat="43.83239" lon="1.75202">
        <ele>117.9</ele>
        <time>2026-05-23T10:19:24Z</time>
      </trkpt>
      <trkpt lat="43.83238" lon="1.752">
        <ele>117.9</ele>
        <time>2026-05-23T10:19:25Z</time>
      </trkpt>
      <trkpt lat="43.83218" lon="1.75192">
        <ele>117.9</ele>
        <time>2026-05-23T10:19:41Z</time>
      </trkpt>
      <trkpt lat="43.83196" lon="1.7519">
        <ele>117.9</ele>
        <time>2026-05-23T10:19:56Z</time>
      </trkpt>
      <trkpt lat="43.83178" lon="1.75185">
        <ele>117.9</ele>
        <time>2026-05-23T10:20:09Z</time>
      </trkpt>
      <trkpt lat="43.83159" lon="1.75178">
        <ele>117.9</ele>
        <time>2026-05-23T10:20:24Z</time>
      </trkpt>
      <trkpt lat="43.83142" lon="1.75169">
        <ele>117.9</ele>
        <time>2026-05-23T10:20:39Z</time>
      </trkpt>
      <trkpt lat="43.83126" lon="1.75157">
        <ele>117.9</ele>
        <time>2026-05-23T10:20:55Z</time>
      </trkpt>
      <trkpt lat="43.83111" lon="1.75144">
        <ele>118.86</ele>
        <time>2026-05-23T10:21:10Z</time>
      </trkpt>
      <trkpt lat="43.83097" lon="1.7514">
        <ele>119.34</ele>
        <time>2026-05-23T10:21:24Z</time>
      </trkpt>
      <trkpt lat="43.83096" lon="1.75141">
        <ele>119.34</ele>
        <time>2026-05-23T10:21:25Z</time>
      </trkpt>
      <trkpt lat="43.83096" lon="1.75142">
        <ele>119.34</ele>
        <time>2026-05-23T10:21:26Z</time>
      </trkpt>
      <trkpt lat="43.83094" lon="1.75146">
        <ele>119.34</ele>
        <time>2026-05-23T10:21:44Z</time>
      </trkpt>
      <trkpt lat="43.83092" lon="1.75145">
        <ele>120.3</ele>
        <time>2026-05-23T10:22:18Z</time>
      </trkpt>
      <trkpt lat="43.83092" lon="1.75146">
        <ele>120.3</ele>
        <time>2026-05-23T10:22:23Z</time>
      </trkpt>
      <trkpt lat="43.83094" lon="1.75144">
        <ele>120.3</ele>
        <time>2026-05-23T10:22:59Z</time>
      </trkpt>
      <trkpt lat="43.83095" lon="1.75145">
        <ele>120.3</ele>
        <time>2026-05-23T10:23:32Z</time>
      </trkpt>
      <trkpt lat="43.83095" lon="1.75146">
        <ele>119.34</ele>
        <time>2026-05-23T10:24:04Z</time>
      </trkpt>
      <trkpt lat="43.83094" lon="1.75146">
        <ele>119.34</ele>
        <time>2026-05-23T10:24:21Z</time>
      </trkpt>
      <trkpt lat="43.83095" lon="1.75145">
        <ele>119.34</ele>
        <time>2026-05-23T10:24:22Z</time>
      </trkpt>
      <trkpt lat="43.83097" lon="1.75144">
        <ele>119.34</ele>
        <time>2026-05-23T10:24:23Z</time>
      </trkpt>
      <trkpt lat="43.83098" lon="1.75143">
        <ele>119.34</ele>
        <time>2026-05-23T10:24:24Z</time>
      </trkpt>
      <trkpt lat="43.83099" lon="1.75142">
        <ele>119.34</ele>
        <time>2026-05-23T10:24:25Z</time>
      </trkpt>
      <trkpt lat="43.83107" lon="1.75121">
        <ele>119.34</ele>
        <time>2026-05-23T10:24:38Z</time>
      </trkpt>
      <trkpt lat="43.83115" lon="1.75096">
        <ele>119.34</ele>
        <time>2026-05-23T10:24:52Z</time>
      </trkpt>
      <trkpt lat="43.83122" lon="1.75071">
        <ele>119.34</ele>
        <time>2026-05-23T10:25:07Z</time>
      </trkpt>
      <trkpt lat="43.83133" lon="1.75043">
        <ele>118.86</ele>
        <time>2026-05-23T10:25:25Z</time>
      </trkpt>
      <trkpt lat="43.83144" lon="1.75018">
        <ele>118.38</ele>
        <time>2026-05-23T10:25:42Z</time>
      </trkpt>
      <trkpt lat="43.83153" lon="1.74995">
        <ele>117.9</ele>
        <time>2026-05-23T10:25:57Z</time>
      </trkpt>
      <trkpt lat="43.83161" lon="1.74974">
        <ele>117.9</ele>
        <time>2026-05-23T10:26:10Z</time>
      </trkpt>
      <trkpt lat="43.83166" lon="1.74957">
        <ele>117.9</ele>
        <time>2026-05-23T10:26:20Z</time>
      </trkpt>
      <trkpt lat="43.83166" lon="1.74955">
        <ele>117.9</ele>
        <time>2026-05-23T10:26:21Z</time>
      </trkpt>
      <trkpt lat="43.83166" lon="1.74954">
        <ele>117.9</ele>
        <time>2026-05-23T10:26:22Z</time>
      </trkpt>
      <trkpt lat="43.83169" lon="1.74927">
        <ele>117.9</ele>
        <time>2026-05-23T10:26:37Z</time>
      </trkpt>
      <trkpt lat="43.8317" lon="1.74896">
        <ele>117.9</ele>
        <time>2026-05-23T10:26:54Z</time>
      </trkpt>
      <trkpt lat="43.83165" lon="1.74871">
        <ele>117.9</ele>
        <time>2026-05-23T10:27:09Z</time>
      </trkpt>
      <trkpt lat="43.83161" lon="1.74842">
        <ele>117.9</ele>
        <time>2026-05-23T10:27:24Z</time>
      </trkpt>
      <trkpt lat="43.83152" lon="1.74814">
        <ele>117.9</ele>
        <time>2026-05-23T10:27:41Z</time>
      </trkpt>
      <trkpt lat="43.83138" lon="1.74784">
        <ele>117.9</ele>
        <time>2026-05-23T10:28:00Z</time>
      </trkpt>
      <trkpt lat="43.8313" lon="1.74758">
        <ele>117.9</ele>
        <time>2026-05-23T10:28:16Z</time>
      </trkpt>
      <trkpt lat="43.83125" lon="1.7474">
        <ele>118.86</ele>
        <time>2026-05-23T10:28:27Z</time>
      </trkpt>
      <trkpt lat="43.83124" lon="1.74735">
        <ele>117.42</ele>
        <time>2026-05-23T10:28:30Z</time>
      </trkpt>
      <trkpt lat="43.83117" lon="1.74708">
        <ele>117.42</ele>
        <time>2026-05-23T10:28:46Z</time>
      </trkpt>
      <trkpt lat="43.83112" lon="1.74685">
        <ele>117.42</ele>
        <time>2026-05-23T10:28:59Z</time>
      </trkpt>
      <trkpt lat="43.83112" lon="1.74669">
        <ele>117.42</ele>
        <time>2026-05-23T10:29:10Z</time>
      </trkpt>
      <trkpt lat="43.83121" lon="1.74646">
        <ele>117.42</ele>
        <time>2026-05-23T10:29:22Z</time>
      </trkpt>
      <trkpt lat="43.83128" lon="1.74626">
        <ele>117.42</ele>
        <time>2026-05-23T10:29:36Z</time>
      </trkpt>
      <trkpt lat="43.83137" lon="1.74607">
        <ele>118.38</ele>
        <time>2026-05-23T10:29:50Z</time>
      </trkpt>
      <trkpt lat="43.83146" lon="1.74587">
        <ele>118.86</ele>
        <time>2026-05-23T10:30:04Z</time>
      </trkpt>
      <trkpt lat="43.83155" lon="1.74566">
        <ele>119.34</ele>
        <time>2026-05-23T10:30:18Z</time>
      </trkpt>
      <trkpt lat="43.83164" lon="1.74547">
        <ele>119.82</ele>
        <time>2026-05-23T10:30:32Z</time>
      </trkpt>
      <trkpt lat="43.83174" lon="1.74525">
        <ele>120.78</ele>
        <time>2026-05-23T10:30:47Z</time>
      </trkpt>
      <trkpt lat="43.8318" lon="1.74512">
        <ele>122.22</ele>
        <time>2026-05-23T10:30:59Z</time>
      </trkpt>
      <trkpt lat="43.83184" lon="1.74505">
        <ele>123.19</ele>
        <time>2026-05-23T10:31:05Z</time>
      </trkpt>
      <trkpt lat="43.83184" lon="1.74503">
        <ele>123.19</ele>
        <time>2026-05-23T10:31:06Z</time>
      </trkpt>
      <trkpt lat="43.83183" lon="1.74494">
        <ele>123.67</ele>
        <time>2026-05-23T10:31:13Z</time>
      </trkpt>
      <trkpt lat="43.83184" lon="1.74493">
        <ele>123.67</ele>
        <time>2026-05-23T10:31:14Z</time>
      </trkpt>
      <trkpt lat="43.83194" lon="1.74485">
        <ele>123.67</ele>
        <time>2026-05-23T10:31:23Z</time>
      </trkpt>
      <trkpt lat="43.83196" lon="1.74485">
        <ele>123.67</ele>
        <time>2026-05-23T10:31:24Z</time>
      </trkpt>
      <trkpt lat="43.83197" lon="1.74484">
        <ele>123.67</ele>
        <time>2026-05-23T10:31:25Z</time>
      </trkpt>
      <trkpt lat="43.83214" lon="1.74471">
        <ele>124.15</ele>
        <time>2026-05-23T10:31:40Z</time>
      </trkpt>
      <trkpt lat="43.83229" lon="1.74457">
        <ele>124.63</ele>
        <time>2026-05-23T10:31:54Z</time>
      </trkpt>
      <trkpt lat="43.83244" lon="1.74443">
        <ele>125.59</ele>
        <time>2026-05-23T10:32:09Z</time>
      </trkpt>
      <trkpt lat="43.8326" lon="1.74428">
        <ele>126.07</ele>
        <time>2026-05-23T10:32:24Z</time>
      </trkpt>
      <trkpt lat="43.83279" lon="1.74414">
        <ele>126.07</ele>
        <time>2026-05-23T10:32:40Z</time>
      </trkpt>
      <trkpt lat="43.83298" lon="1.744">
        <ele>125.59</ele>
        <time>2026-05-23T10:32:56Z</time>
      </trkpt>
      <trkpt lat="43.83316" lon="1.74386">
        <ele>125.59</ele>
        <time>2026-05-23T10:33:12Z</time>
      </trkpt>
      <trkpt lat="43.83331" lon="1.74368">
        <ele>124.63</ele>
        <time>2026-05-23T10:33:28Z</time>
      </trkpt>
      <trkpt lat="43.83332" lon="1.74367">
        <ele>124.63</ele>
        <time>2026-05-23T10:33:29Z</time>
      </trkpt>
      <trkpt lat="43.83346" lon="1.74351">
        <ele>124.63</ele>
        <time>2026-05-23T10:33:43Z</time>
      </trkpt>
      <trkpt lat="43.83359" lon="1.74339">
        <ele>124.63</ele>
        <time>2026-05-23T10:33:57Z</time>
      </trkpt>
      <trkpt lat="43.83358" lon="1.74336">
        <ele>124.63</ele>
        <time>2026-05-23T10:34:06Z</time>
      </trkpt>
      <trkpt lat="43.83355" lon="1.74329">
        <ele>124.15</ele>
        <time>2026-05-23T10:34:12Z</time>
      </trkpt>
      <trkpt lat="43.83355" lon="1.74328">
        <ele>124.15</ele>
        <time>2026-05-23T10:34:13Z</time>
      </trkpt>
      <trkpt lat="43.83348" lon="1.74305">
        <ele>124.15</ele>
        <time>2026-05-23T10:34:26Z</time>
      </trkpt>
      <trkpt lat="43.8334" lon="1.74282">
        <ele>124.15</ele>
        <time>2026-05-23T10:34:40Z</time>
      </trkpt>
      <trkpt lat="43.83333" lon="1.74259">
        <ele>124.15</ele>
        <time>2026-05-23T10:34:54Z</time>
      </trkpt>
      <trkpt lat="43.83324" lon="1.74231">
        <ele>124.15</ele>
        <time>2026-05-23T10:35:11Z</time>
      </trkpt>
      <trkpt lat="43.83318" lon="1.74203">
        <ele>124.15</ele>
        <time>2026-05-23T10:35:27Z</time>
      </trkpt>
      <trkpt lat="43.83309" lon="1.74175">
        <ele>124.15</ele>
        <time>2026-05-23T10:35:43Z</time>
      </trkpt>
      <trkpt lat="43.833" lon="1.74151">
        <ele>124.15</ele>
        <time>2026-05-23T10:35:59Z</time>
      </trkpt>
      <trkpt lat="43.8329" lon="1.74124">
        <ele>124.15</ele>
        <time>2026-05-23T10:36:16Z</time>
      </trkpt>
      <trkpt lat="43.83277" lon="1.74104">
        <ele>124.15</ele>
        <time>2026-05-23T10:36:32Z</time>
      </trkpt>
      <trkpt lat="43.8326" lon="1.74087">
        <ele>123.67</ele>
        <time>2026-05-23T10:36:49Z</time>
      </trkpt>
      <trkpt lat="43.83241" lon="1.74064">
        <ele>123.67</ele>
        <time>2026-05-23T10:37:08Z</time>
      </trkpt>
      <trkpt lat="43.8323" lon="1.74053">
        <ele>123.67</ele>
        <time>2026-05-23T10:37:20Z</time>
      </trkpt>
      <trkpt lat="43.8323" lon="1.74052">
        <ele>123.67</ele>
        <time>2026-05-23T10:37:21Z</time>
      </trkpt>
      <trkpt lat="43.83229" lon="1.7405">
        <ele>123.67</ele>
        <time>2026-05-23T10:37:22Z</time>
      </trkpt>
      <trkpt lat="43.8322" lon="1.74019">
        <ele>123.67</ele>
        <time>2026-05-23T10:37:38Z</time>
      </trkpt>
      <trkpt lat="43.83216" lon="1.73992">
        <ele>123.19</ele>
        <time>2026-05-23T10:37:53Z</time>
      </trkpt>
      <trkpt lat="43.83209" lon="1.73966">
        <ele>121.74</ele>
        <time>2026-05-23T10:38:08Z</time>
      </trkpt>
      <trkpt lat="43.83207" lon="1.7396">
        <ele>121.74</ele>
        <time>2026-05-23T10:38:12Z</time>
      </trkpt>
      <trkpt lat="43.83202" lon="1.73937">
        <ele>121.74</ele>
        <time>2026-05-23T10:38:26Z</time>
      </trkpt>
      <trkpt lat="43.83201" lon="1.73931">
        <ele>121.74</ele>
        <time>2026-05-23T10:38:31Z</time>
      </trkpt>
      <trkpt lat="43.83199" lon="1.7393">
        <ele>121.74</ele>
        <time>2026-05-23T10:38:32Z</time>
      </trkpt>
      <trkpt lat="43.83181" lon="1.73914">
        <ele>121.74</ele>
        <time>2026-05-23T10:38:48Z</time>
      </trkpt>
      <trkpt lat="43.83173" lon="1.73897">
        <ele>121.74</ele>
        <time>2026-05-23T10:39:04Z</time>
      </trkpt>
      <trkpt lat="43.83169" lon="1.73884">
        <ele>121.74</ele>
        <time>2026-05-23T10:39:12Z</time>
      </trkpt>
      <trkpt lat="43.83168" lon="1.73882">
        <ele>121.74</ele>
        <time>2026-05-23T10:39:13Z</time>
      </trkpt>
      <trkpt lat="43.83161" lon="1.7387">
        <ele>122.71</ele>
        <time>2026-05-23T10:39:23Z</time>
      </trkpt>
      <trkpt lat="43.83158" lon="1.73868">
        <ele>123.19</ele>
        <time>2026-05-23T10:39:26Z</time>
      </trkpt>
      <trkpt lat="43.83138" lon="1.73839">
        <ele>123.67</ele>
        <time>2026-05-23T10:39:43Z</time>
      </trkpt>
      <trkpt lat="43.83127" lon="1.73817">
        <ele>123.67</ele>
        <time>2026-05-23T10:39:58Z</time>
      </trkpt>
      <trkpt lat="43.83126" lon="1.73815">
        <ele>123.67</ele>
        <time>2026-05-23T10:39:59Z</time>
      </trkpt>
      <trkpt lat="43.83125" lon="1.73814">
        <ele>123.67</ele>
        <time>2026-05-23T10:40:00Z</time>
      </trkpt>
      <trkpt lat="43.83124" lon="1.73813">
        <ele>123.67</ele>
        <time>2026-05-23T10:40:01Z</time>
      </trkpt>
      <trkpt lat="43.83123" lon="1.73811">
        <ele>123.67</ele>
        <time>2026-05-23T10:40:02Z</time>
      </trkpt>
      <trkpt lat="43.83123" lon="1.7381">
        <ele>123.67</ele>
        <time>2026-05-23T10:40:03Z</time>
      </trkpt>
      <trkpt lat="43.83122" lon="1.73808">
        <ele>123.67</ele>
        <time>2026-05-23T10:40:04Z</time>
      </trkpt>
      <trkpt lat="43.83111" lon="1.73774">
        <ele>123.67</ele>
        <time>2026-05-23T10:40:24Z</time>
      </trkpt>
      <trkpt lat="43.83106" lon="1.73759">
        <ele>123.67</ele>
        <time>2026-05-23T10:40:34Z</time>
      </trkpt>
      <trkpt lat="43.83101" lon="1.73739">
        <ele>124.15</ele>
        <time>2026-05-23T10:40:46Z</time>
      </trkpt>
      <trkpt lat="43.83099" lon="1.73713">
        <ele>124.15</ele>
        <time>2026-05-23T10:41:01Z</time>
      </trkpt>
      <trkpt lat="43.83089" lon="1.7369">
        <ele>124.15</ele>
        <time>2026-05-23T10:41:16Z</time>
      </trkpt>
      <trkpt lat="43.83088" lon="1.73688">
        <ele>124.15</ele>
        <time>2026-05-23T10:41:17Z</time>
      </trkpt>
      <trkpt lat="43.83077" lon="1.73657">
        <ele>124.63</ele>
        <time>2026-05-23T10:41:37Z</time>
      </trkpt>
      <trkpt lat="43.83065" lon="1.73631">
        <ele>125.11</ele>
        <time>2026-05-23T10:41:54Z</time>
      </trkpt>
      <trkpt lat="43.83051" lon="1.73603">
        <ele>124.63</ele>
        <time>2026-05-23T10:42:11Z</time>
      </trkpt>
      <trkpt lat="43.83034" lon="1.73584">
        <ele>124.63</ele>
        <time>2026-05-23T10:42:28Z</time>
      </trkpt>
      <trkpt lat="43.83014" lon="1.73569">
        <ele>125.11</ele>
        <time>2026-05-23T10:42:45Z</time>
      </trkpt>
      <trkpt lat="43.82998" lon="1.73552">
        <ele>125.11</ele>
        <time>2026-05-23T10:43:00Z</time>
      </trkpt>
      <trkpt lat="43.82981" lon="1.73535">
        <ele>125.11</ele>
        <time>2026-05-23T10:43:16Z</time>
      </trkpt>
      <trkpt lat="43.82964" lon="1.73518">
        <ele>125.11</ele>
        <time>2026-05-23T10:43:32Z</time>
      </trkpt>
      <trkpt lat="43.82963" lon="1.73517">
        <ele>125.11</ele>
        <time>2026-05-23T10:43:34Z</time>
      </trkpt>
      <trkpt lat="43.82962" lon="1.73516">
        <ele>125.11</ele>
        <time>2026-05-23T10:43:35Z</time>
      </trkpt>
      <trkpt lat="43.82948" lon="1.73502">
        <ele>125.11</ele>
        <time>2026-05-23T10:43:49Z</time>
      </trkpt>
      <trkpt lat="43.82926" lon="1.73488">
        <ele>125.11</ele>
        <time>2026-05-23T10:44:07Z</time>
      </trkpt>
      <trkpt lat="43.82909" lon="1.73472">
        <ele>125.11</ele>
        <time>2026-05-23T10:44:23Z</time>
      </trkpt>
      <trkpt lat="43.82907" lon="1.73471">
        <ele>125.11</ele>
        <time>2026-05-23T10:44:26Z</time>
      </trkpt>
      <trkpt lat="43.82906" lon="1.7347">
        <ele>125.11</ele>
        <time>2026-05-23T10:44:27Z</time>
      </trkpt>
      <trkpt lat="43.82884" lon="1.73461">
        <ele>125.11</ele>
        <time>2026-05-23T10:44:44Z</time>
      </trkpt>
      <trkpt lat="43.82888" lon="1.7346">
        <ele>124.63</ele>
        <time>2026-05-23T10:45:07Z</time>
      </trkpt>
      <trkpt lat="43.82879" lon="1.73449">
        <ele>124.63</ele>
        <time>2026-05-23T10:45:31Z</time>
      </trkpt>
      <trkpt lat="43.82866" lon="1.73426">
        <ele>125.11</ele>
        <time>2026-05-23T10:45:47Z</time>
      </trkpt>
      <trkpt lat="43.82866" lon="1.73425">
        <ele>125.11</ele>
        <time>2026-05-23T10:45:48Z</time>
      </trkpt>
      <trkpt lat="43.82865" lon="1.73423">
        <ele>125.11</ele>
        <time>2026-05-23T10:45:49Z</time>
      </trkpt>
      <trkpt lat="43.82855" lon="1.73401">
        <ele>125.11</ele>
        <time>2026-05-23T10:46:04Z</time>
      </trkpt>
      <trkpt lat="43.82846" lon="1.73376">
        <ele>125.11</ele>
        <time>2026-05-23T10:46:20Z</time>
      </trkpt>
      <trkpt lat="43.82843" lon="1.73371">
        <ele>125.11</ele>
        <time>2026-05-23T10:46:23Z</time>
      </trkpt>
      <trkpt lat="43.82836" lon="1.73361">
        <ele>125.11</ele>
        <time>2026-05-23T10:46:36Z</time>
      </trkpt>
      <trkpt lat="43.8283" lon="1.73348">
        <ele>125.11</ele>
        <time>2026-05-23T10:46:59Z</time>
      </trkpt>
      <trkpt lat="43.82829" lon="1.73347">
        <ele>125.11</ele>
        <time>2026-05-23T10:47:00Z</time>
      </trkpt>
      <trkpt lat="43.82825" lon="1.73336">
        <ele>125.11</ele>
        <time>2026-05-23T10:47:09Z</time>
      </trkpt>
      <trkpt lat="43.82824" lon="1.73334">
        <ele>125.59</ele>
        <time>2026-05-23T10:47:10Z</time>
      </trkpt>
      <trkpt lat="43.82823" lon="1.73332">
        <ele>125.59</ele>
        <time>2026-05-23T10:47:11Z</time>
      </trkpt>
      <trkpt lat="43.82822" lon="1.73331">
        <ele>125.59</ele>
        <time>2026-05-23T10:47:12Z</time>
      </trkpt>
      <trkpt lat="43.82821" lon="1.73329">
        <ele>125.59</ele>
        <time>2026-05-23T10:47:13Z</time>
      </trkpt>
      <trkpt lat="43.82806" lon="1.73311">
        <ele>126.55</ele>
        <time>2026-05-23T10:47:27Z</time>
      </trkpt>
      <trkpt lat="43.82801" lon="1.73299">
        <ele>126.55</ele>
        <time>2026-05-23T10:47:35Z</time>
      </trkpt>
      <trkpt lat="43.82801" lon="1.73298">
        <ele>126.07</ele>
        <time>2026-05-23T10:47:36Z</time>
      </trkpt>
      <trkpt lat="43.828" lon="1.73296">
        <ele>126.55</ele>
        <time>2026-05-23T10:47:37Z</time>
      </trkpt>
      <trkpt lat="43.82798" lon="1.7329">
        <ele>126.55</ele>
        <time>2026-05-23T10:47:40Z</time>
      </trkpt>
      <trkpt lat="43.82797" lon="1.73288">
        <ele>126.55</ele>
        <time>2026-05-23T10:47:41Z</time>
      </trkpt>
      <trkpt lat="43.82797" lon="1.73286">
        <ele>126.55</ele>
        <time>2026-05-23T10:47:42Z</time>
      </trkpt>
      <trkpt lat="43.8279" lon="1.73265">
        <ele>126.55</ele>
        <time>2026-05-23T10:47:55Z</time>
      </trkpt>
      <trkpt lat="43.82785" lon="1.73254">
        <ele>126.07</ele>
        <time>2026-05-23T10:48:04Z</time>
      </trkpt>
      <trkpt lat="43.82784" lon="1.73253">
        <ele>126.07</ele>
        <time>2026-05-23T10:48:05Z</time>
      </trkpt>
      <trkpt lat="43.82783" lon="1.73251">
        <ele>126.07</ele>
        <time>2026-05-23T10:48:06Z</time>
      </trkpt>
      <trkpt lat="43.82782" lon="1.7325">
        <ele>126.07</ele>
        <time>2026-05-23T10:48:07Z</time>
      </trkpt>
      <trkpt lat="43.82781" lon="1.73248">
        <ele>126.07</ele>
        <time>2026-05-23T10:48:08Z</time>
      </trkpt>
      <trkpt lat="43.8278" lon="1.73245">
        <ele>126.07</ele>
        <time>2026-05-23T10:48:09Z</time>
      </trkpt>
      <trkpt lat="43.82779" lon="1.73242">
        <ele>126.55</ele>
        <time>2026-05-23T10:48:11Z</time>
      </trkpt>
      <trkpt lat="43.82768" lon="1.73223">
        <ele>126.55</ele>
        <time>2026-05-23T10:48:24Z</time>
      </trkpt>
      <trkpt lat="43.82759" lon="1.73199">
        <ele>126.55</ele>
        <time>2026-05-23T10:48:39Z</time>
      </trkpt>
      <trkpt lat="43.82751" lon="1.73173">
        <ele>127.03</ele>
        <time>2026-05-23T10:48:55Z</time>
      </trkpt>
      <trkpt lat="43.82752" lon="1.73171">
        <ele>127.03</ele>
        <time>2026-05-23T10:48:57Z</time>
      </trkpt>
      <trkpt lat="43.82752" lon="1.73169">
        <ele>127.03</ele>
        <time>2026-05-23T10:48:58Z</time>
      </trkpt>
      <trkpt lat="43.8276" lon="1.73147">
        <ele>127.03</ele>
        <time>2026-05-23T10:49:13Z</time>
      </trkpt>
      <trkpt lat="43.82767" lon="1.73124">
        <ele>127.03</ele>
        <time>2026-05-23T10:49:27Z</time>
      </trkpt>
      <trkpt lat="43.82775" lon="1.73099">
        <ele>127.03</ele>
        <time>2026-05-23T10:49:42Z</time>
      </trkpt>
      <trkpt lat="43.82784" lon="1.73074">
        <ele>127.03</ele>
        <time>2026-05-23T10:49:56Z</time>
      </trkpt>
      <trkpt lat="43.82793" lon="1.73048">
        <ele>127.03</ele>
        <time>2026-05-23T10:50:12Z</time>
      </trkpt>
      <trkpt lat="43.8279" lon="1.73026">
        <ele>127.03</ele>
        <time>2026-05-23T10:50:26Z</time>
      </trkpt>
      <trkpt lat="43.82781" lon="1.73011">
        <ele>127.03</ele>
        <time>2026-05-23T10:50:43Z</time>
      </trkpt>
      <trkpt lat="43.82781" lon="1.73018">
        <ele>126.07</ele>
        <time>2026-05-23T10:51:00Z</time>
      </trkpt>
      <trkpt lat="43.82782" lon="1.73018">
        <ele>126.07</ele>
        <time>2026-05-23T10:51:23Z</time>
      </trkpt>
      <trkpt lat="43.82782" lon="1.73015">
        <ele>126.07</ele>
        <time>2026-05-23T10:51:41Z</time>
      </trkpt>
      <trkpt lat="43.82782" lon="1.73012">
        <ele>126.07</ele>
        <time>2026-05-23T10:52:08Z</time>
      </trkpt>
      <trkpt lat="43.82783" lon="1.73012">
        <ele>126.07</ele>
        <time>2026-05-23T10:52:33Z</time>
      </trkpt>
      <trkpt lat="43.82784" lon="1.73015">
        <ele>126.07</ele>
        <time>2026-05-23T10:52:55Z</time>
      </trkpt>
      <trkpt lat="43.82783" lon="1.73014">
        <ele>126.07</ele>
        <time>2026-05-23T10:53:08Z</time>
      </trkpt>
      <trkpt lat="43.82782" lon="1.73013">
        <ele>126.07</ele>
        <time>2026-05-23T10:53:09Z</time>
      </trkpt>
      <trkpt lat="43.8278" lon="1.73012">
        <ele>126.07</ele>
        <time>2026-05-23T10:53:10Z</time>
      </trkpt>
      <trkpt lat="43.82776" lon="1.73008">
        <ele>126.07</ele>
        <time>2026-05-23T10:53:15Z</time>
      </trkpt>
      <trkpt lat="43.82775" lon="1.73007">
        <ele>126.07</ele>
        <time>2026-05-23T10:53:16Z</time>
      </trkpt>
      <trkpt lat="43.82775" lon="1.73006">
        <ele>126.07</ele>
        <time>2026-05-23T10:53:17Z</time>
      </trkpt>
      <trkpt lat="43.82772" lon="1.73002">
        <ele>126.07</ele>
        <time>2026-05-23T10:53:20Z</time>
      </trkpt>
      <trkpt lat="43.82771" lon="1.73001">
        <ele>126.07</ele>
        <time>2026-05-23T10:53:21Z</time>
      </trkpt>
      <trkpt lat="43.82769" lon="1.72999">
        <ele>126.07</ele>
        <time>2026-05-23T10:53:22Z</time>
      </trkpt>
      <trkpt lat="43.82757" lon="1.72981">
        <ele>126.07</ele>
        <time>2026-05-23T10:53:37Z</time>
      </trkpt>
      <trkpt lat="43.8274" lon="1.72965">
        <ele>126.07</ele>
        <time>2026-05-23T10:53:54Z</time>
      </trkpt>
      <trkpt lat="43.82724" lon="1.72942">
        <ele>126.07</ele>
        <time>2026-05-23T10:54:12Z</time>
      </trkpt>
      <trkpt lat="43.82724" lon="1.72932">
        <ele>126.07</ele>
        <time>2026-05-23T10:54:27Z</time>
      </trkpt>
      <trkpt lat="43.82735" lon="1.72919">
        <ele>126.07</ele>
        <time>2026-05-23T10:54:39Z</time>
      </trkpt>
      <trkpt lat="43.82747" lon="1.72899">
        <ele>126.07</ele>
        <time>2026-05-23T10:54:54Z</time>
      </trkpt>
      <trkpt lat="43.82751" lon="1.72885">
        <ele>126.07</ele>
        <time>2026-05-23T10:55:04Z</time>
      </trkpt>
      <trkpt lat="43.8276" lon="1.72857">
        <ele>127.51</ele>
        <time>2026-05-23T10:55:20Z</time>
      </trkpt>
      <trkpt lat="43.8276" lon="1.72855">
        <ele>127.51</ele>
        <time>2026-05-23T10:55:21Z</time>
      </trkpt>
      <trkpt lat="43.82768" lon="1.72832">
        <ele>127.51</ele>
        <time>2026-05-23T10:55:34Z</time>
      </trkpt>
      <trkpt lat="43.82771" lon="1.72819">
        <ele>127.51</ele>
        <time>2026-05-23T10:55:42Z</time>
      </trkpt>
      <trkpt lat="43.82771" lon="1.72818">
        <ele>127.51</ele>
        <time>2026-05-23T10:55:43Z</time>
      </trkpt>
      <trkpt lat="43.82776" lon="1.72794">
        <ele>127.99</ele>
        <time>2026-05-23T10:55:57Z</time>
      </trkpt>
      <trkpt lat="43.82781" lon="1.72769">
        <ele>127.99</ele>
        <time>2026-05-23T10:56:11Z</time>
      </trkpt>
      <trkpt lat="43.82786" lon="1.72747">
        <ele>127.99</ele>
        <time>2026-05-23T10:56:24Z</time>
      </trkpt>
      <trkpt lat="43.82785" lon="1.72729">
        <ele>127.99</ele>
        <time>2026-05-23T10:56:40Z</time>
      </trkpt>
      <trkpt lat="43.82777" lon="1.72725">
        <ele>127.99</ele>
        <time>2026-05-23T10:56:47Z</time>
      </trkpt>
      <trkpt lat="43.8276" lon="1.72714">
        <ele>127.99</ele>
        <time>2026-05-23T10:56:59Z</time>
      </trkpt>
      <trkpt lat="43.82758" lon="1.72714">
        <ele>127.99</ele>
        <time>2026-05-23T10:57:00Z</time>
      </trkpt>
      <trkpt lat="43.82757" lon="1.72714">
        <ele>127.99</ele>
        <time>2026-05-23T10:57:01Z</time>
      </trkpt>
      <trkpt lat="43.82738" lon="1.7271">
        <ele>126.55</ele>
        <time>2026-05-23T10:57:15Z</time>
      </trkpt>
      <trkpt lat="43.82719" lon="1.72706">
        <ele>126.55</ele>
        <time>2026-05-23T10:57:30Z</time>
      </trkpt>
      <trkpt lat="43.82699" lon="1.72704">
        <ele>126.55</ele>
        <time>2026-05-23T10:57:45Z</time>
      </trkpt>
      <trkpt lat="43.82679" lon="1.72701">
        <ele>126.55</ele>
        <time>2026-05-23T10:58:00Z</time>
      </trkpt>
      <trkpt lat="43.82659" lon="1.72696">
        <ele>126.55</ele>
        <time>2026-05-23T10:58:16Z</time>
      </trkpt>
      <trkpt lat="43.82656" lon="1.72697">
        <ele>126.55</ele>
        <time>2026-05-23T10:58:18Z</time>
      </trkpt>
      <trkpt lat="43.82635" lon="1.72694">
        <ele>126.07</ele>
        <time>2026-05-23T10:58:34Z</time>
      </trkpt>
      <trkpt lat="43.82616" lon="1.72697">
        <ele>126.07</ele>
        <time>2026-05-23T10:58:47Z</time>
      </trkpt>
      <trkpt lat="43.82596" lon="1.72693">
        <ele>126.07</ele>
        <time>2026-05-23T10:59:04Z</time>
      </trkpt>
      <trkpt lat="43.82579" lon="1.72691">
        <ele>126.07</ele>
        <time>2026-05-23T10:59:18Z</time>
      </trkpt>
      <trkpt lat="43.82563" lon="1.72684">
        <ele>125.59</ele>
        <time>2026-05-23T10:59:31Z</time>
      </trkpt>
      <trkpt lat="43.82547" lon="1.72681">
        <ele>125.59</ele>
        <time>2026-05-23T10:59:46Z</time>
      </trkpt>
      <trkpt lat="43.8253" lon="1.72674">
        <ele>125.59</ele>
        <time>2026-05-23T11:00:02Z</time>
      </trkpt>
      <trkpt lat="43.82512" lon="1.72664">
        <ele>125.11</ele>
        <time>2026-05-23T11:00:18Z</time>
      </trkpt>
      <trkpt lat="43.82494" lon="1.72663">
        <ele>125.11</ele>
        <time>2026-05-23T11:00:31Z</time>
      </trkpt>
      <trkpt lat="43.82492" lon="1.72663">
        <ele>125.11</ele>
        <time>2026-05-23T11:00:32Z</time>
      </trkpt>
      <trkpt lat="43.82474" lon="1.72652">
        <ele>125.11</ele>
        <time>2026-05-23T11:00:47Z</time>
      </trkpt>
      <trkpt lat="43.82451" lon="1.72642">
        <ele>123.67</ele>
        <time>2026-05-23T11:01:03Z</time>
      </trkpt>
      <trkpt lat="43.82435" lon="1.72636">
        <ele>123.67</ele>
        <time>2026-05-23T11:01:19Z</time>
      </trkpt>
      <trkpt lat="43.82425" lon="1.72632">
        <ele>123.67</ele>
        <time>2026-05-23T11:01:27Z</time>
      </trkpt>
      <trkpt lat="43.82423" lon="1.72631">
        <ele>123.67</ele>
        <time>2026-05-23T11:01:28Z</time>
      </trkpt>
      <trkpt lat="43.82415" lon="1.72629">
        <ele>123.67</ele>
        <time>2026-05-23T11:01:34Z</time>
      </trkpt>
      <trkpt lat="43.82413" lon="1.7263">
        <ele>123.67</ele>
        <time>2026-05-23T11:01:35Z</time>
      </trkpt>
      <trkpt lat="43.82392" lon="1.72626">
        <ele>123.67</ele>
        <time>2026-05-23T11:01:53Z</time>
      </trkpt>
      <trkpt lat="43.82383" lon="1.72625">
        <ele>123.67</ele>
        <time>2026-05-23T11:01:59Z</time>
      </trkpt>
      <trkpt lat="43.8238" lon="1.72624">
        <ele>123.67</ele>
        <time>2026-05-23T11:02:01Z</time>
      </trkpt>
      <trkpt lat="43.82379" lon="1.72622">
        <ele>123.67</ele>
        <time>2026-05-23T11:02:02Z</time>
      </trkpt>
      <trkpt lat="43.82377" lon="1.72621">
        <ele>123.67</ele>
        <time>2026-05-23T11:02:03Z</time>
      </trkpt>
      <trkpt lat="43.82362" lon="1.72615">
        <ele>124.15</ele>
        <time>2026-05-23T11:02:18Z</time>
      </trkpt>
      <trkpt lat="43.82352" lon="1.72613">
        <ele>124.15</ele>
        <time>2026-05-23T11:02:28Z</time>
      </trkpt>
      <trkpt lat="43.82351" lon="1.72612">
        <ele>124.15</ele>
        <time>2026-05-23T11:02:29Z</time>
      </trkpt>
      <trkpt lat="43.82349" lon="1.72612">
        <ele>124.15</ele>
        <time>2026-05-23T11:02:30Z</time>
      </trkpt>
      <trkpt lat="43.82348" lon="1.72611">
        <ele>124.15</ele>
        <time>2026-05-23T11:02:31Z</time>
      </trkpt>
      <trkpt lat="43.82347" lon="1.7261">
        <ele>124.15</ele>
        <time>2026-05-23T11:02:32Z</time>
      </trkpt>
      <trkpt lat="43.82342" lon="1.72612">
        <ele>124.15</ele>
        <time>2026-05-23T11:02:45Z</time>
      </trkpt>
      <trkpt lat="43.82339" lon="1.72606">
        <ele>124.15</ele>
        <time>2026-05-23T11:03:05Z</time>
      </trkpt>
      <trkpt lat="43.82337" lon="1.726">
        <ele>126.07</ele>
        <time>2026-05-23T11:03:11Z</time>
      </trkpt>
    </trkseg>
  </trk>
</gpx>